[[{"header":{"parameterUnit":"m.s-1","parameterCategory":1,"la1":30.6,"la2":29.2853,"lo1":-89.7004,"lo2":-87.6739,"dy":0.0162,"dx":0.0183,"nx":112,"ny":82,"refTime":"2026-04-22T12:00:00:Z","depth":0,"parameterNumber":2,"parameterNumberName":"U-component_of_WINDS"},"data":[0.0,0.0,0.0,0.0,0.0,0.0,0.0,0.0,0.0,0.0,0.0,0.0,0.0,0.0,0.0,0.0,0.0,0.0,0.0,0.0,0.0,0.0,0.0,0.0,0.0,0.0,0.0,0.0,0.0,0.0,0.0,0.0,0.0,0.0,0.0,0.0,0.0,0.0,0.0,0.0,0.0,0.0,0.0,0.0,0.0,0.0,0.0,0.0,0.0,0.0,0.0,0.0,0.0,0.0,0.0,0.0,0.0,0.0,0.0,0.0,0.0,0.0,0.0,0.0,0.0,0.0,0.0,0.0,0.0,0.0,0.0,0.0,0.0,0.0,0.0,0.0,0.0,0.0,0.0,0.0,0.0,0.0,0.0,0.0,0.0,0.0,0.0,0.0,0.0,0.0,-5.5114,-6.0971,-6.7807,-7.101,-6.859,-6.6132,-6.2422,-5.7148,0.0,0.0,0.0,0.0,0.0,0.0,0.0,0.0,0.0,0.0,0.0,0.0,0.0,0.0,0.0,0.0,0.0,0.0,0.0,0.0,0.0,0.0,0.0,0.0,0.0,0.0,0.0,0.0,0.0,0.0,0.0,0.0,0.0,0.0,0.0,0.0,0.0,0.0,0.0,0.0,0.0,0.0,0.0,0.0,0.0,0.0,0.0,0.0,0.0,0.0,0.0,0.0,0.0,0.0,0.0,0.0,0.0,0.0,0.0,0.0,0.0,0.0,0.0,0.0,0.0,0.0,0.0,0.0,0.0,0.0,0.0,0.0,0.0,0.0,0.0,0.0,0.0,0.0,0.0,0.0,0.0,0.0,0.0,0.0,0.0,0.0,0.0,0.0,0.0,0.0,0.0,0.0,0.0,0.0,0.0,0.0,0.0,0.0,0.0,0.0,0.0,0.0,0.0,0.0,-5.7181,-6.5998,-6.9855,-7.1106,-6.9363,-6.7537,-6.3984,-5.8086,0.0,0.0,0.0,0.0,0.0,0.0,0.0,0.0,0.0,0.0,0.0,0.0,0.0,0.0,0.0,0.0,0.0,0.0,0.0,0.0,0.0,0.0,0.0,0.0,0.0,0.0,0.0,0.0,0.0,0.0,0.0,0.0,0.0,0.0,0.0,0.0,0.0,0.0,0.0,0.0,0.0,0.0,0.0,0.0,0.0,0.0,0.0,0.0,0.0,0.0,0.0,0.0,0.0,0.0,0.0,0.0,0.0,0.0,0.0,0.0,0.0,0.0,0.0,0.0,0.0,0.0,0.0,0.0,0.0,0.0,0.0,0.0,0.0,0.0,0.0,0.0,0.0,0.0,0.0,0.0,0.0,0.0,0.0,0.0,0.0,0.0,0.0,0.0,0.0,0.0,0.0,0.0,0.0,0.0,0.0,0.0,0.0,0.0,0.0,0.0,0.0,0.0,0.0,-5.4656,-6.0263,-6.6017,-6.8912,-6.9592,-6.7464,-6.5734,-6.2225,-5.6171,-5.0195,0.0,0.0,0.0,0.0,0.0,0.0,0.0,0.0,0.0,0.0,0.0,0.0,0.0,0.0,0.0,0.0,0.0,0.0,0.0,0.0,0.0,0.0,0.0,0.0,0.0,0.0,0.0,0.0,0.0,0.0,0.0,0.0,0.0,0.0,0.0,0.0,0.0,0.0,0.0,0.0,0.0,0.0,0.0,0.0,0.0,0.0,0.0,0.0,0.0,0.0,0.0,0.0,0.0,0.0,0.0,0.0,0.0,0.0,0.0,0.0,0.0,0.0,0.0,0.0,0.0,0.0,0.0,0.0,0.0,0.0,0.0,0.0,0.0,0.0,0.0,0.0,0.0,0.0,0.0,0.0,0.0,0.0,0.0,0.0,0.0,0.0,0.0,0.0,0.0,0.0,0.0,0.0,0.0,0.0,0.0,0.0,0.0,0.0,0.0,0.0,0.0,0.0,-5.8593,-6.2737,-6.5366,-6.7618,-6.789,-6.5383,-6.3254,-5.9486,-5.3473,-4.8242,0.0,0.0,0.0,0.0,0.0,0.0,0.0,0.0,0.0,0.0,0.0,0.0,0.0,0.0,0.0,0.0,0.0,0.0,0.0,0.0,0.0,0.0,0.0,0.0,0.0,0.0,0.0,0.0,0.0,0.0,0.0,0.0,0.0,0.0,0.0,0.0,0.0,0.0,0.0,0.0,0.0,0.0,0.0,0.0,0.0,0.0,0.0,0.0,0.0,0.0,0.0,0.0,0.0,0.0,0.0,0.0,0.0,0.0,0.0,0.0,0.0,0.0,0.0,0.0,0.0,0.0,0.0,0.0,0.0,0.0,0.0,0.0,0.0,0.0,0.0,0.0,0.0,0.0,0.0,0.0,0.0,0.0,0.0,0.0,0.0,0.0,0.0,0.0,0.0,0.0,0.0,0.0,0.0,0.0,0.0,0.0,0.0,0.0,0.0,0.0,0.0,0.0,-5.9308,-6.3461,-6.6153,-6.726,-6.6828,-6.4413,-6.1179,-5.6733,-5.0733,-4.5545,0.0,0.0,0.0,0.0,0.0,0.0,0.0,0.0,0.0,0.0,0.0,0.0,0.0,0.0,0.0,0.0,0.0,0.0,0.0,0.0,0.0,0.0,0.0,0.0,0.0,0.0,0.0,0.0,0.0,0.0,0.0,0.0,0.0,0.0,0.0,0.0,0.0,0.0,0.0,0.0,0.0,0.0,0.0,0.0,0.0,0.0,0.0,0.0,0.0,0.0,0.0,0.0,0.0,0.0,0.0,0.0,0.0,0.0,0.0,0.0,0.0,0.0,0.0,0.0,0.0,0.0,0.0,0.0,0.0,0.0,0.0,0.0,0.0,0.0,0.0,0.0,0.0,0.0,0.0,0.0,0.0,0.0,0.0,0.0,0.0,0.0,0.0,0.0,0.0,0.0,0.0,0.0,0.0,0.0,0.0,0.0,0.0,0.0,0.0,0.0,0.0,0.0,-5.78,-6.1718,0.0,-6.4761,-6.4037,-6.1056,-5.871,-5.4594,-4.8094,0.0,0.0,0.0,0.0,0.0,0.0,0.0,0.0,0.0,0.0,0.0,0.0,0.0,0.0,0.0,0.0,0.0,0.0,0.0,0.0,0.0,0.0,0.0,0.0,0.0,0.0,0.0,0.0,0.0,0.0,0.0,0.0,0.0,0.0,0.0,0.0,0.0,0.0,0.0,0.0,0.0,0.0,0.0,0.0,0.0,0.0,0.0,0.0,0.0,0.0,0.0,0.0,0.0,0.0,0.0,0.0,0.0,0.0,0.0,0.0,0.0,0.0,0.0,0.0,0.0,0.0,0.0,0.0,0.0,0.0,0.0,0.0,0.0,0.0,0.0,0.0,0.0,0.0,0.0,0.0,0.0,0.0,0.0,0.0,0.0,0.0,0.0,0.0,0.0,0.0,0.0,0.0,0.0,0.0,0.0,0.0,0.0,0.0,0.0,0.0,0.0,0.0,-5.1257,-5.6621,-6.0506,0.0,-6.284,-6.2113,-5.9043,-5.6781,-5.284,-4.655,0.0,0.0,0.0,0.0,0.0,0.0,0.0,0.0,0.0,0.0,0.0,0.0,0.0,0.0,0.0,0.0,0.0,0.0,0.0,0.0,0.0,0.0,0.0,0.0,0.0,0.0,0.0,0.0,0.0,0.0,0.0,0.0,0.0,0.0,0.0,0.0,0.0,0.0,0.0,0.0,0.0,0.0,0.0,0.0,0.0,0.0,0.0,0.0,0.0,0.0,0.0,0.0,0.0,0.0,0.0,0.0,0.0,0.0,0.0,0.0,0.0,0.0,0.0,0.0,0.0,0.0,0.0,0.0,0.0,0.0,0.0,0.0,0.0,0.0,0.0,0.0,0.0,0.0,0.0,0.0,0.0,0.0,0.0,0.0,0.0,0.0,0.0,0.0,0.0,0.0,0.0,0.0,0.0,0.0,0.0,0.0,0.0,0.0,0.0,0.0,0.0,0.0,-5.0241,-5.6128,-6.019,-6.1002,-6.1853,-6.1378,-5.8878,-5.555,-5.1417,0.0,0.0,0.0,0.0,0.0,0.0,0.0,0.0,0.0,0.0,0.0,0.0,0.0,0.0,0.0,0.0,0.0,0.0,0.0,0.0,0.0,0.0,0.0,0.0,0.0,0.0,0.0,0.0,0.0,0.0,0.0,0.0,0.0,0.0,0.0,0.0,0.0,0.0,0.0,0.0,0.0,0.0,0.0,0.0,0.0,0.0,0.0,0.0,0.0,0.0,0.0,0.0,0.0,0.0,0.0,0.0,0.0,0.0,0.0,0.0,0.0,0.0,0.0,0.0,0.0,0.0,0.0,0.0,0.0,0.0,0.0,0.0,0.0,0.0,0.0,0.0,0.0,0.0,0.0,0.0,0.0,0.0,0.0,0.0,0.0,0.0,0.0,0.0,0.0,0.0,0.0,0.0,0.0,0.0,0.0,0.0,0.0,0.0,0.0,0.0,0.0,0.0,0.0,-4.9397,-5.4735,-5.841,-5.9261,-6.0112,-5.9598,-5.7094,-5.4869,-5.1425,-4.6302,0.0,0.0,0.0,0.0,0.0,0.0,0.0,0.0,0.0,0.0,0.0,0.0,0.0,0.0,0.0,0.0,0.0,0.0,0.0,0.0,0.0,0.0,0.0,0.0,0.0,0.0,0.0,0.0,0.0,0.0,0.0,0.0,0.0,0.0,0.0,0.0,0.0,0.0,0.0,0.0,0.0,0.0,0.0,0.0,0.0,0.0,0.0,0.0,0.0,0.0,0.0,0.0,0.0,0.0,0.0,0.0,0.0,0.0,0.0,0.0,0.0,0.0,0.0,0.0,0.0,0.0,0.0,0.0,0.0,0.0,0.0,0.0,0.0,0.0,0.0,0.0,0.0,0.0,0.0,0.0,0.0,0.0,0.0,0.0,0.0,0.0,0.0,0.0,0.0,0.0,0.0,0.0,0.0,0.0,0.0,0.0,0.0,0.0,0.0,0.0,0.0,0.0,-4.8508,-5.3652,-5.7134,-5.7985,-5.8874,-5.8458,-5.6239,-5.4847,-5.1894,-4.6758,0.0,0.0,0.0,0.0,0.0,0.0,0.0,0.0,0.0,0.0,0.0,0.0,0.0,0.0,0.0,0.0,0.0,0.0,0.0,0.0,0.0,0.0,0.0,0.0,0.0,0.0,0.0,0.0,0.0,0.0,0.0,0.0,0.0,0.0,0.0,0.0,0.0,0.0,0.0,0.0,0.0,0.0,0.0,0.0,0.0,0.0,0.0,0.0,0.0,0.0,0.0,0.0,0.0,0.0,0.0,0.0,0.0,0.0,0.0,0.0,0.0,0.0,0.0,0.0,0.0,0.0,0.0,0.0,0.0,0.0,0.0,0.0,0.0,0.0,0.0,0.0,0.0,0.0,0.0,0.0,0.0,0.0,0.0,0.0,0.0,0.0,0.0,0.0,0.0,0.0,0.0,0.0,0.0,0.0,0.0,0.0,0.0,0.0,0.0,0.0,0.0,0.0,-4.7618,-5.2724,-5.6205,-5.697,-5.7907,-5.7791,-5.6051,-5.5161,-5.2492,-4.7424,0.0,0.0,0.0,0.0,0.0,0.0,0.0,0.0,0.0,0.0,0.0,0.0,0.0,0.0,0.0,0.0,0.0,0.0,0.0,0.0,0.0,0.0,0.0,0.0,0.0,0.0,0.0,0.0,0.0,0.0,0.0,0.0,0.0,0.0,0.0,0.0,0.0,0.0,0.0,0.0,0.0,0.0,0.0,0.0,0.0,0.0,0.0,0.0,0.0,0.0,0.0,0.0,0.0,0.0,0.0,0.0,0.0,0.0,0.0,0.0,-5.5896,-5.489,0.0,0.0,0.0,0.0,0.0,0.0,0.0,0.0,0.0,0.0,0.0,0.0,0.0,0.0,0.0,0.0,0.0,0.0,0.0,0.0,0.0,0.0,0.0,0.0,0.0,0.0,0.0,0.0,0.0,0.0,0.0,0.0,0.0,0.0,0.0,0.0,0.0,0.0,0.0,0.0,-4.6728,-5.1873,-5.5122,-5.5316,-5.667,-5.6902,-5.52,-5.4271,-5.1873,-4.7386,-4.2944,0.0,0.0,0.0,0.0,0.0,0.0,0.0,0.0,0.0,0.0,0.0,0.0,0.0,0.0,0.0,0.0,0.0,0.0,0.0,0.0,0.0,0.0,0.0,0.0,0.0,0.0,0.0,0.0,0.0,0.0,0.0,0.0,0.0,0.0,0.0,0.0,0.0,0.0,0.0,0.0,0.0,0.0,0.0,0.0,0.0,0.0,0.0,0.0,0.0,0.0,0.0,0.0,0.0,0.0,0.0,0.0,0.0,0.0,0.0,-6.0112,-5.8681,0.0,0.0,0.0,0.0,0.0,0.0,0.0,0.0,0.0,0.0,0.0,0.0,0.0,0.0,0.0,0.0,0.0,0.0,0.0,0.0,0.0,0.0,0.0,0.0,0.0,0.0,0.0,0.0,0.0,0.0,0.0,0.0,0.0,0.0,0.0,0.0,0.0,0.0,0.0,0.0,-4.6341,-5.0519,-5.3265,-5.4078,-5.4967,-5.4967,-5.3652,-5.3149,-5.1215,-4.7347,-4.3904,0.0,0.0,0.0,0.0,0.0,0.0,0.0,0.0,0.0,0.0,0.0,0.0,0.0,0.0,0.0,0.0,0.0,0.0,0.0,0.0,0.0,0.0,0.0,0.0,0.0,0.0,0.0,0.0,0.0,0.0,0.0,0.0,0.0,0.0,0.0,0.0,0.0,0.0,0.0,0.0,0.0,0.0,0.0,0.0,0.0,0.0,0.0,0.0,0.0,0.0,0.0,0.0,0.0,-6.6688,-6.7152,-6.7346,-6.8042,-6.8468,-6.8468,-6.5489,-6.3826,-6.3168,-6.1311,0.0,0.0,0.0,0.0,0.0,0.0,0.0,0.0,0.0,0.0,0.0,0.0,0.0,0.0,0.0,0.0,0.0,0.0,0.0,0.0,0.0,0.0,-5.1053,-4.9823,-4.9281,-4.8082,-4.4523,0.0,0.0,0.0,0.0,0.0,0.0,0.0,0.0,0.0,0.0,0.0,-4.6032,-4.9243,-5.1517,-5.3111,-5.342,-5.3149,-5.2268,-5.2066,-5.0558,-4.7308,-4.4833,-4.2048,0.0,0.0,0.0,0.0,0.0,0.0,0.0,0.0,0.0,0.0,0.0,0.0,0.0,0.0,0.0,0.0,0.0,0.0,0.0,0.0,0.0,0.0,0.0,0.0,0.0,0.0,0.0,0.0,0.0,0.0,0.0,0.0,-5.6004,-5.7842,0.0,0.0,0.0,0.0,0.0,0.0,0.0,0.0,0.0,0.0,0.0,0.0,0.0,-6.5373,-6.5373,-6.7191,-6.8545,-6.9357,-7.0208,-7.1021,-7.1756,-7.1872,-7.2336,-7.2993,-7.1794,0.0,-6.665,-6.4213,0.0,0.0,0.0,0.0,0.0,0.0,0.0,0.0,0.0,0.0,0.0,0.0,0.0,0.0,0.0,0.0,0.0,0.0,0.0,0.0,0.0,0.0,-5.3304,-5.3846,-5.2801,-5.1533,-5.0991,-4.7857,-4.4646,-4.2937,-4.1081,-3.8992,0.0,0.0,0.0,0.0,0.0,0.0,-4.5304,-4.8856,-5.1293,-5.2268,-5.3033,-5.3149,-5.2268,-5.1525,-4.9939,-4.727,-4.5413,-4.3247,-4.0584,-3.7174,0.0,0.0,0.0,0.0,0.0,0.0,0.0,0.0,0.0,0.0,0.0,0.0,0.0,0.0,0.0,0.0,0.0,0.0,0.0,0.0,0.0,0.0,0.0,0.0,0.0,0.0,0.0,0.0,0.0,-5.6232,-5.8848,-5.9196,-5.9312,-5.8867,0.0,0.0,0.0,0.0,0.0,0.0,0.0,0.0,0.0,-6.4174,-6.8313,-7.075,-7.1214,-7.3419,-7.4695,-7.5082,-7.5895,-7.6281,-7.6204,-7.6668,-7.6552,-7.6011,-7.5624,-7.3806,-7.0827,-6.7307,-6.4831,-6.282,0.0,0.0,0.0,0.0,-5.6098,-5.6592,-5.694,-5.6863,-5.6515,-5.6399,0.0,0.0,0.0,0.0,0.0,0.0,0.0,-4.9939,-5.2879,-5.4271,-5.489,-5.4813,-5.4233,-5.3382,-5.2422,-5.072,-4.8631,-4.5955,-4.3285,-4.0655,-3.8063,-3.5201,0.0,0.0,0.0,-4.0578,-4.5226,-4.754,-4.9088,-4.9977,-5.0403,-5.048,-5.0094,-4.9707,-4.8817,-4.7192,-4.5955,-4.433,-4.228,-3.9385,-3.6792,0.0,0.0,0.0,0.0,0.0,0.0,0.0,0.0,0.0,0.0,0.0,0.0,0.0,0.0,0.0,0.0,0.0,0.0,0.0,0.0,0.0,0.0,0.0,0.0,0.0,0.0,0.0,0.0,-5.8828,-6.1389,-6.1234,-6.193,-6.1737,0.0,0.0,0.0,0.0,0.0,0.0,-6.2665,-6.576,-6.7887,-6.8777,-7.2529,-7.4811,-7.543,-7.7597,-7.8564,-7.8332,-7.9183,-7.926,-7.868,-7.9299,-7.8873,-7.7674,-7.7248,-7.5856,-7.3612,-6.9976,-6.7462,-6.5566,-6.1466,-6.0315,-6.077,-5.988,-5.9996,-6.0576,-6.077,-6.0847,-6.077,-6.0121,-5.7714,-5.4813,-5.3304,0.0,0.0,0.0,0.0,-5.1796,-5.4194,-5.5238,-5.5586,-5.52,-5.4967,-5.4387,-5.284,-5.2182,-5.0983,-4.8005,-4.5181,-4.2512,-3.9953,-3.756,0.0,0.0,0.0,-4.1512,-4.5304,-4.6581,-4.7424,-4.8314,-4.8392,-4.8392,-4.8392,-4.8198,-4.7773,-4.7154,-4.6071,-4.4833,-4.3363,-4.0855,-3.8301,-3.5742,0.0,0.0,0.0,0.0,0.0,0.0,0.0,0.0,0.0,0.0,0.0,0.0,0.0,0.0,0.0,0.0,0.0,0.0,0.0,0.0,0.0,0.0,0.0,0.0,0.0,0.0,0.0,0.0,0.0,-6.4561,-6.545,0.0,0.0,0.0,0.0,-6.3255,-6.4184,-6.5412,-6.7075,-6.9628,-7.1446,-7.2336,-7.4889,-7.6281,-7.632,-7.7287,-7.7365,-7.6552,-7.7403,-7.779,-7.7751,-7.779,-7.779,-7.7597,-7.5972,-7.4734,-7.3767,-7.1872,-7.0131,-6.8274,-6.4793,-6.3487,-6.341,-6.2549,-6.224,-6.2394,-6.3207,-6.3526,-6.3487,-6.3449,-6.0035,-5.578,-5.4929,-5.226,0.0,0.0,-5.2113,-5.2531,-5.4349,-5.4813,-5.5045,-5.578,-5.5354,-5.4542,-5.3614,-5.2144,-5.0434,-4.8662,-4.754,-4.6032,-4.3479,0.0,-4.0777,-4.1661,-4.1854,-4.2821,-4.5459,-4.6581,-4.7424,-4.8314,-4.8392,-4.8392,-4.8392,-4.7657,-4.7154,-4.7115,-4.5568,-4.4253,-4.3324,-4.0855,-3.8301,-3.5742,-3.3151,0.0,0.0,0.0,0.0,0.0,0.0,0.0,0.0,0.0,0.0,0.0,0.0,0.0,0.0,0.0,0.0,0.0,0.0,0.0,0.0,0.0,0.0,0.0,0.0,0.0,0.0,0.0,0.0,-6.6533,-6.8313,0.0,-6.7859,-6.5721,-6.5334,-6.7588,-6.8545,-6.9783,-7.1523,-7.4038,-7.5546,-7.5856,-7.7326,-7.8061,-7.8061,-7.837,-7.837,-7.8061,-7.837,-7.8525,-7.8525,-7.8525,-7.7906,-7.6823,-7.6204,-7.485,-7.3032,-7.2375,-7.1137,-6.928,-6.6417,-6.5296,-6.5218,-6.4367,-6.4058,-6.4174,-6.5025,-6.5296,-6.5025,-6.34,-6.0886,-5.8255,-5.6824,-5.4813,-5.3227,-5.4349,-5.4271,-5.4155,-5.5277,-5.5586,-5.5625,-5.5935,-5.5393,-5.4542,-5.3691,-5.2569,-5.1254,-4.9552,-4.8082,-4.6612,-4.5142,-4.3982,-4.3324,-4.3634,-4.3672,-4.4175,-4.5613,-4.6078,-4.6387,-4.6689,-4.6728,-4.6728,-4.6728,-4.5955,-4.549,-4.549,-4.4407,-4.3634,-4.3324,-4.1893,-4.0158,-3.8185,-3.5626,-3.3035,0.0,0.0,0.0,0.0,0.0,0.0,0.0,0.0,0.0,0.0,0.0,0.0,0.0,0.0,0.0,0.0,0.0,0.0,0.0,0.0,0.0,0.0,0.0,0.0,0.0,-6.4522,-6.8158,-6.87,-7.0789,-7.1833,-7.0943,-6.8816,-6.8545,-7.1098,-7.1562,-7.2607,-7.4657,-7.632,-7.7403,-7.7674,-7.8254,-7.8564,-7.8564,-7.8564,-7.8409,-7.8099,-7.8099,-7.8099,-7.8099,-7.7829,-7.7055,-7.5933,-7.5353,-7.4154,-7.2568,-7.2297,-7.1291,-6.9821,-6.7849,-6.7075,-6.6959,-6.5799,-6.5412,-6.5489,-6.6031,-6.5837,-6.5064,-6.34,-6.1505,-5.9687,-5.8526,-5.7211,-5.6128,-5.636,-5.6051,-5.5702,-5.5935,-5.5818,-5.5586,-5.5586,-5.4735,-5.3768,-5.3188,-5.2376,-5.1447,-5.0326,-4.874,-4.727,-4.6387,-4.5568,-4.4987,-4.4987,-4.4987,-4.5181,-4.5729,-4.5807,-4.5807,-4.5807,-4.5807,-4.5691,-4.5413,-4.491,-4.4478,-4.4168,-4.3092,-4.2473,-4.2473,-4.1622,-4.0236,-3.8263,-3.5704,-3.3538,-3.1792,0.0,0.0,0.0,0.0,0.0,0.0,0.0,0.0,0.0,0.0,0.0,0.0,0.0,0.0,0.0,0.0,0.0,0.0,0.0,0.0,0.0,0.0,0.0,-6.224,-6.6185,-6.9473,-7.1137,-7.2916,-7.3651,-7.28,-7.1175,-7.1214,-7.3806,-7.3187,-7.3767,-7.6281,-7.6397,-7.6784,-7.7635,-7.7674,-7.7674,-7.7674,-7.7674,-7.721,-7.6359,-7.6359,-7.6359,-7.6281,-7.5469,-7.5032,-7.4928,-7.3303,-7.2568,-7.2491,-7.1601,-7.075,-6.9899,-6.9125,-6.8777,-6.8545,-6.6843,-6.6185,-6.6185,-6.6185,-6.5102,-6.3719,-6.3719,-6.1978,-5.9919,-5.9919,-5.93,-5.841,-5.7598,-5.728,-5.7048,-5.6197,-5.5393,-5.4813,-5.4813,-5.3459,-5.219,-5.219,-5.1525,-5.0898,-5.0859,-4.9552,-4.8121,-4.727,-4.6387,-4.5807,-4.5807,-4.5807,0.0,-4.5807,-4.5807,-4.5807,-4.5807,-4.5768,-4.5452,-4.4671,-4.4555,-4.413,-4.3285,-4.1661,-4.0739,-4.0739,-3.9926,-3.8301,-3.5781,-3.3189,-3.1831,-3.1792,0.0,0.0,0.0,0.0,0.0,0.0,0.0,0.0,0.0,0.0,0.0,0.0,0.0,0.0,0.0,0.0,0.0,0.0,0.0,0.0,0.0,-5.9493,-6.2317,-6.4019,-6.7926,-7.1021,-7.2104,-7.4309,-7.5624,-7.5392,-7.4347,-7.427,-7.5624,-7.4928,-7.5005,-7.632,-7.6397,-7.6514,-7.6746,-7.6746,-7.6746,-7.6746,-7.6746,-7.632,-7.5469,-7.5469,-7.516,-7.4579,-7.4347,-7.3883,-7.3264,-7.28,-7.222,-7.1601,-7.0711,-7.0208,-6.9899,-6.9125,-6.8429,-6.7733,-6.6611,-6.6185,-6.6185,-6.6185,-6.5102,-6.3719,-6.3719,-6.2356,-6.077,-6.077,-5.9764,-5.8535,-5.8294,-5.7327,-5.6313,-5.6042,-5.5393,-5.4813,-5.4813,-5.3459,-5.219,-5.219,-5.1525,-5.0743,-5.0132,-4.9165,-4.8314,-4.8082,-4.6806,-4.5807,-4.5807,-4.5807,0.0,-4.5807,-4.5807,-4.5807,-4.5807,-4.5297,-4.4833,-4.4632,-4.344,-4.2357,-4.1545,-4.0468,-3.9578,-3.8953,-3.9307,-3.8572,-3.6593,-3.4659,-3.3073,0.0,0.0,0.0,0.0,0.0,0.0,0.0,0.0,0.0,0.0,0.0,0.0,0.0,0.0,0.0,0.0,0.0,0.0,0.0,0.0,0.0,0.0,-6.2317,-6.5141,-6.6843,-6.9512,-7.1756,-7.2993,-7.4734,-7.5856,-7.5856,-7.5082,-7.4966,-7.5779,-7.5082,-7.5121,-7.632,-7.6397,-7.6397,-7.6397,-7.6397,-7.6204,-7.5856,-7.5856,-7.543,-7.4618,-7.4618,-7.4347,-7.3883,-7.3535,-7.3071,-7.2568,-7.1833,-7.1214,-7.0672,-6.986,-6.928,-6.8893,0.0,0.0,0.0,0.0,-6.6185,-6.6185,-6.6185,-6.5102,-6.3719,-6.3719,-6.2511,-6.1118,-6.1118,-6.019,-5.9068,-5.869,-5.7598,-5.6467,-5.6081,-5.5122,-5.4271,-5.4271,-5.2917,-5.1641,-5.1641,-5.0983,-5.0241,-4.9784,-4.8701,0.0,-4.785,-4.6689,-4.5807,-4.5807,-4.5807,-4.5807,-4.5807,-4.5807,-4.5807,-4.5807,-4.5065,-4.4439,-4.4091,-4.2783,0.0,0.0,0.0,-3.8721,-3.8212,-3.8682,0.0,0.0,0.0,0.0,0.0,0.0,0.0,0.0,-2.9549,-3.0593,0.0,0.0,0.0,0.0,0.0,0.0,0.0,0.0,0.0,0.0,0.0,0.0,0.0,0.0,0.0,0.0,-6.5489,-6.8197,-6.9783,-7.075,-7.191,-7.3574,-7.4463,-7.4955,-7.4955,-7.4309,-7.4231,-7.5032,-7.4425,-7.4734,-7.632,-7.6397,0.0,0.0,0.0,-7.5895,-7.5109,-7.4993,-7.4579,-7.3767,-7.3767,-7.369,-7.3574,-7.2684,-7.2297,-7.222,-7.0595,-6.986,-6.9783,-6.9009,-6.8158,-6.7346,-6.7346,-6.7346,-6.7268,-6.6495,-6.6147,-6.6069,-6.6069,0.0,0.0,-6.3565,-6.2433,-6.1118,-6.1118,-6.046,-5.9571,-5.8806,-5.7907,-5.697,-5.6197,-5.4774,-5.3498,-5.3498,-5.2182,-5.0898,-5.0898,-5.0279,-4.9668,-4.9591,-4.8237,-4.7076,-4.696,-4.631,-4.5807,-4.5807,-4.5807,-4.5807,-4.5807,-4.5807,-4.5807,-4.5807,0.0,0.0,-4.3363,-4.2434,-4.1506,-4.07,-3.9108,-3.8251,-3.8328,-3.8251,-3.8251,-3.8328,-3.6787,-3.5588,-3.4819,-3.4819,-3.4897,-3.4935,-3.3996,-3.4422,0.0,0.0,0.0,0.0,0.0,0.0,0.0,0.0,0.0,0.0,0.0,0.0,0.0,0.0,0.0,-6.4019,-6.6766,-6.8893,-6.986,-7.075,-7.1678,-7.2723,-7.3612,-7.4115,-7.4115,-7.3999,-7.4231,-7.5032,-7.4955,-7.5314,-7.6359,-7.6397,-7.6397,-7.6397,-7.574,-7.5276,-7.5109,-7.4463,-7.369,-7.2839,-7.2839,0.0,-7.1756,-7.0905,-7.0479,-7.044,-6.9473,-6.9048,-6.897,-6.8119,-6.723,-6.6456,-6.6456,-6.6456,-6.6417,-6.6263,-6.5799,-6.5218,-6.5218,-6.4097,-6.2665,-6.2665,-6.1969,-6.1118,-6.1118,-6.0035,0.0,-5.8651,-5.7482,-5.6197,-5.6051,-5.4774,-5.3498,-5.3498,-5.2182,-5.0898,-5.0898,-5.0279,-4.9475,-4.8778,-4.7811,-4.6883,-4.6155,-4.5923,-4.5807,-4.5807,-4.5807,-4.5807,-4.5807,-4.5807,-4.5807,-4.5807,-4.4446,-4.3479,-4.3324,-4.1893,-4.0661,-3.981,-3.8798,-3.8528,-3.923,-3.8566,-3.8528,-3.923,-3.8257,-3.7632,-3.7483,-3.7483,-3.7831,-3.8495,-3.6903,-3.6704,0.0,0.0,0.0,0.0,0.0,0.0,0.0,0.0,0.0,0.0,0.0,-5.7366,-5.9455,0.0,-6.4367,-6.6533,-6.8313,-6.9705,-7.0518,-7.1021,-7.1601,-7.2491,-7.2993,-7.3264,-7.3264,-7.3264,-7.3612,-7.4425,-7.4502,-7.5044,-7.632,-7.5972,-7.574,-7.574,-7.4928,-7.4309,-7.3844,-7.3458,-7.28,-7.1949,-7.1523,-7.1059,-7.0634,-6.9783,-6.9396,-6.9357,-6.8506,-6.8158,-6.8081,-6.723,-6.6572,-6.6185,-6.6185,-6.5953,-6.5605,-6.5605,-6.5064,-6.4338,-6.4338,-6.3478,-6.2394,-6.2394,-6.1814,-6.1041,-6.0615,-5.9609,-5.8488,-5.8062,-5.7018,-5.5896,-5.5509,-5.4465,-5.3382,-5.2956,-5.1834,-5.0898,-5.0898,-4.9939,-4.8933,-4.8469,-4.7347,-4.631,-4.5884,-4.5807,-4.5807,-4.5807,-4.5807,-4.5807,-4.5807,-4.5807,-4.5652,-4.5258,-4.4059,-4.3131,-4.2705,-4.1506,-4.0429,-3.9578,-3.9495,-3.9495,-3.9501,-3.9495,-3.9495,-3.9501,-3.9075,-3.8644,-3.8212,-3.8644,-3.9075,-3.9501,-3.9036,-3.9108,0.0,0.0,0.0,0.0,0.0,0.0,0.0,-5.4503,-5.4967,-5.667,-5.8952,-6.1157,-6.282,-6.5218,-6.7384,-6.8816,-6.986,-7.0672,-7.1214,-7.1137,-7.1291,-7.2026,-7.2258,-7.2336,-7.2336,-7.2491,-7.2877,-7.3574,-7.3806,-7.4502,-7.5817,-7.5237,-7.4889,-7.4889,-7.4077,-7.3226,-7.2375,-7.2181,-7.164,-7.0827,-7.0092,-6.9783,-6.9744,-6.8932,-6.8545,-6.8506,-6.7617,-6.7268,-6.7191,-6.6495,-6.6108,-6.5953,-6.5953,-6.5373,-6.4522,-6.487,-6.4329,-6.3449,-6.3449,-6.2897,-6.2162,-6.2162,-6.1582,-6.0731,-6.0112,-5.9184,-5.8217,-5.7512,-5.6661,-5.5818,-5.5006,-5.4155,-5.3265,-5.2422,-5.1525,-5.0898,-5.0898,-4.9591,-4.8392,-4.8392,-4.6999,-4.5807,-4.5807,-4.5807,-4.5807,-4.5807,-4.5807,-4.5807,-4.5807,-4.5652,-4.5336,-4.4671,-4.3672,-4.2705,-4.1854,-4.1164,-4.0507,-3.981,-4.0429,-4.0507,-3.9771,-4.0429,-4.0468,-3.9771,-3.9733,-3.9423,-3.8721,-3.9423,-3.9733,-3.9771,-4.0468,-4.0816,-5.2414,-5.4194,-5.6622,-5.6815,-5.7443,-5.8032,0.0,-5.8032,-5.8488,-6.019,-6.1969,-6.3797,-6.545,-6.7849,-6.9628,-6.9821,-7.1253,-7.2065,-7.1407,-7.0634,-7.017,-7.0286,-7.0982,-7.1446,-7.1446,-7.2142,-7.2645,-7.2723,-7.3458,-7.3999,-7.4154,-7.4077,-7.4038,-7.4038,-7.3187,-7.2336,-7.1446,-7.0672,-6.986,-6.9087,-6.897,-6.8932,-6.8893,-6.8042,-6.7655,-6.7617,-6.6727,-6.634,-6.634,-6.6224,-6.576,-6.5141,-6.5141,-6.4135,-6.2897,-6.4445,-6.3942,-6.2549,-6.2549,-6.1969,-6.1234,-6.1234,-6.0692,-6.0035,-5.9919,-5.8758,-5.7434,-5.7318,-5.6661,-5.5818,-5.5006,-5.4155,-5.3265,-5.2422,-5.1525,-5.0898,-5.0898,-4.9591,-4.8392,-4.8392,-4.6999,-4.5807,-4.5807,-4.5807,-4.5807,-4.5807,-4.5807,-4.5807,-4.5807,-4.5181,-4.471,-4.4594,-4.3131,-4.1816,-4.1009,-4.0855,-4.0777,-4.0661,-4.0739,-4.0777,-4.0661,-4.0739,-4.0739,-4.0661,-4.0661,-4.0623,-4.0507,-4.0623,-4.0661,-4.0661,-4.0739,-4.0816,-5.5389,-5.7288,-5.9648,-6.0142,-6.1311,-6.2317,-6.2317,-6.2704,-6.3362,-6.4599,-6.6185,-6.7588,-6.8274,-6.9705,-7.075,-7.075,-7.1369,-7.1523,-7.0672,-7.0208,-6.9821,-6.9357,-6.9628,-7.0015,-7.0479,-7.133,-7.2065,-7.2568,-7.2955,-7.338,-7.3883,-7.3419,-7.3148,-7.3148,-7.1794,-7.0905,-7.0556,-6.9705,-6.9125,-6.8777,-6.8274,-6.8042,-6.8003,-6.7152,-6.6727,-6.6727,-6.6379,-6.5915,-6.5489,-6.5489,-6.4986,-6.4261,-6.4261,-6.3478,-6.2511,-6.3207,-6.2704,-6.166,-6.166,-6.1389,-6.1041,-6.0538,-6.0151,-5.9725,-5.8681,-5.786,-5.7202,-5.6699,-5.6274,-5.5702,-5.4387,-5.3768,-5.3149,-5.1757,-5.1169,-5.0898,-5.0898,-4.9591,-4.8392,-4.8392,-4.6999,-4.5807,-4.5807,-4.5807,-4.5807,-4.5807,-4.5807,-4.5807,-4.5807,-4.5104,-4.4207,-4.3208,-4.2009,-4.1164,-4.0816,-4.0816,-4.0816,-4.0816,-4.0816,-4.0816,-4.0816,-4.0816,-4.0816,-4.0816,-4.0816,-4.0816,-4.0816,-4.0816,-4.0816,-4.0816,-4.0816,-4.0816,-5.7994,-5.9766,-6.1819,-6.3157,-6.4425,-6.5422,-6.5674,-6.5963,-6.6379,-6.6998,-6.8119,-6.9009,-6.928,-7.0015,-7.0595,-7.0595,-7.0982,-7.0905,-6.9821,-6.9667,-6.9357,-6.8545,-6.8429,-6.8661,-6.9241,-7.0286,-7.1214,-7.1833,-7.2104,-7.2529,-7.3148,-7.2568,-7.2142,-7.1872,-7.0672,-6.9783,-6.9319,-6.8738,-6.8313,-6.8081,-6.7423,-6.7152,-6.7114,-6.6263,-6.5721,-6.5489,-6.5489,-6.518,-6.4648,-6.4648,-6.4145,-6.3323,-6.3323,-6.282,-6.2046,-6.2046,-6.166,-6.1118,-6.1118,-6.0963,-6.0654,-6.0074,-5.9571,-5.8952,-5.7666,-5.7125,-5.6815,-5.6158,-5.6012,-5.5625,-5.3923,-5.3498,-5.3072,-5.1323,-5.0898,-5.0898,-5.0898,-4.9591,-4.8392,-4.8392,-4.6999,-4.5807,-4.5807,-4.5807,-4.5807,-4.5807,-4.5807,-4.5807,-4.5807,-4.4871,-4.3595,-4.1854,-4.1164,-4.0816,-4.0816,-4.0816,-4.0816,-4.0816,-4.0816,-4.0816,-4.0816,-4.0816,-4.0816,-4.0816,-4.0816,-4.0816,-4.0816,-4.0816,-4.0816,-4.0816,-4.0816,-4.0816,-5.9555,-6.1264,-6.316,-6.5638,-6.6256,-6.6484,-6.7319,-6.6845,-6.6224,-6.6224,-6.6263,-6.6572,-6.7423,-6.8274,-6.8893,-6.8893,-7.0247,-7.0711,-6.9087,-6.8854,-6.8506,-6.7655,-6.7539,-6.7539,-6.7578,-6.9087,-7.0054,-7.0092,-7.0866,-7.133,-7.1369,-7.133,-7.0943,-7.0092,-7.0015,-6.9203,-6.7578,-6.7539,-6.7114,-6.6263,-6.6263,-6.6224,-6.6224,-6.5412,-6.4571,-6.3797,-6.3797,-6.3758,-6.3758,-6.3758,-6.3245,-6.2433,-6.2433,-6.193,-6.1157,-6.1157,-6.1118,-6.1118,-6.1118,-6.0576,-5.9919,-5.9919,-5.8758,-5.7357,-5.7318,-5.6699,-5.6051,-5.6012,-5.6012,-5.5625,-5.3923,-5.3498,-5.3072,-5.1323,-5.0898,-5.0898,-5.0898,-4.9591,-4.8392,-4.8392,-4.6999,-4.5807,-4.5807,-4.5807,-4.5807,-4.5807,-4.5807,-4.5807,-4.5807,-4.4369,-4.2705,-4.1009,-4.0816,-4.0816,-4.0816,-4.0816,-4.0816,-4.0816,-4.0816,-4.0816,-4.0816,-4.0816,-4.0816,-4.0816,-4.0816,-4.0816,-4.0816,-4.0816,-4.0816,-4.0816,-4.0816,-4.0816,-6.1217,-6.3086,-6.4872,-6.6821,-6.8108,-6.8791,-6.8545,-6.8597,-6.839,-6.7307,-6.6611,-6.6301,-6.6572,-6.6456,-6.665,-6.7771,-6.8893,-6.9435,-6.8893,-6.8816,-6.8468,-6.7617,-6.6998,-6.665,-6.665,-6.8197,0.0,-6.9203,-6.9976,-7.0208,-6.9667,-7.0131,-7.0054,-6.9241,-6.8622,-6.8081,-6.7501,-6.692,-6.6495,-6.6185,-6.5644,-6.5412,-6.5373,-6.4532,-6.399,-6.3719,-6.3719,-6.3362,-6.2859,-6.2859,-6.2317,-6.1543,-6.1543,-6.135,-6.1118,-6.1118,-6.077,-6.0306,-6.0306,-5.9764,-5.8952,-5.8372,-5.7782,-5.7202,-5.6622,-5.6235,-5.6012,-5.6012,-5.5625,-5.4929,-5.3807,-5.3072,-5.2337,-5.1169,-5.0898,-5.0743,-5.0202,-4.9204,-4.8237,-4.7657,-4.6619,-4.5807,-4.5807,-4.5807,-4.5807,-4.5807,-4.5336,-4.4794,-4.4214,-4.3131,-4.2009,-4.0932,-4.0816,-4.0816,-4.0816,-4.0816,-4.0816,-4.0816,-4.0816,-4.0816,-4.0816,-4.0816,-4.0816,-4.0816,-4.0816,-4.0816,-4.0816,-4.0816,-4.0816,-4.0816,-4.0816,-4.1087,-6.2641,-6.4751,-6.6615,-6.7984,-6.9116,-6.9536,-6.8334,-6.8372,-6.8093,-6.6099,-6.4764,-6.4058,-6.4329,-6.371,-6.371,-6.5412,-6.692,-6.7771,-6.7462,-6.7965,-6.8003,-6.7152,-6.6533,-6.6185,-6.6185,-6.723,0.0,-6.8313,-6.8816,-6.9009,-6.8816,-6.928,-6.9203,-6.8352,-6.781,-6.7346,-6.7036,-6.6495,-6.6069,-6.576,-6.5257,-6.4677,-6.4058,-6.3478,-6.3052,-6.2781,-6.2781,-6.2433,-6.193,-6.193,-6.1621,-6.1118,-6.1118,-6.0925,-6.0654,-6.0654,-5.9957,-5.9068,-5.9687,-5.9145,-5.8023,-5.7473,-5.7086,-5.6738,-5.6158,-5.6012,-5.6012,-5.6012,-5.5432,-5.4581,-5.373,-5.284,-5.1989,-5.1091,-5.0898,-5.0743,-5.0241,-4.9204,-4.8237,-4.7657,-4.6619,-4.5807,-4.5807,-4.5807,-4.5807,-4.5807,-4.4833,-4.3943,-4.3363,-4.255,-4.1699,-4.0893,-4.0816,-4.0816,-4.0816,-4.0816,-4.0816,-4.0816,-4.0816,-4.0816,-4.0816,-4.0816,-4.0816,-4.0816,-4.0816,-4.0816,-4.0816,-4.0816,-4.0816,-4.0816,-4.0816,-4.1235,-6.395,-6.6295,-6.8437,-6.9181,-6.9333,-6.8806,-6.6919,-6.6369,-6.5485,-6.2913,-6.097,-5.9919,0.0,0.0,-6.0228,-6.2008,-6.4406,-6.5837,-6.5141,-6.6456,-6.7191,0.0,-6.6224,-6.6185,-6.6185,-6.6185,0.0,-6.7384,0.0,-6.7849,-6.8622,-6.87,-6.8352,-6.7462,-6.7423,-6.7036,-6.6224,-6.6147,-6.576,-6.4986,-6.4909,-6.398,-6.2394,-6.2356,-6.1892,-6.1118,-6.1118,-6.1118,-6.1118,-6.1118,-6.1118,-6.1118,-6.1041,-6.0576,-5.988,-5.9841,-5.8758,-5.755,-5.9184,-5.8642,-5.7241,-5.7241,-5.6661,-5.6012,-5.6012,-5.5973,-5.5935,-5.5935,-5.5316,-5.4465,-5.3652,-5.2801,-5.1912,-5.1091,-5.0898,-5.0898,-5.0859,-4.9552,-4.8392,-4.8353,-4.696,-4.5807,-4.5807,-4.5807,-4.5807,-4.5807,-4.4369,-4.3285,-4.3285,-4.2512,-4.1661,-4.0893,-4.0816,-4.0816,-4.0816,-4.0816,-4.0816,-4.0816,-4.0816,-4.0816,-4.0816,-4.0816,-4.0816,-4.0816,-4.0816,-4.0816,-4.0816,-4.0816,-4.0816,-4.0816,-4.0816,-4.1235,-6.6521,-6.8592,-7.0075,-7.0302,-7.0277,-6.9611,-6.7183,-6.5998,-6.4489,-6.1306,-5.869,-5.7056,-5.725,-5.6631,0.0,-6.0035,-6.2665,0.0,-6.576,-6.6804,0.0,-6.7191,-6.6611,-6.6185,-6.6185,-6.6185,0.0,0.0,-6.7114,-6.7307,-6.6882,-6.7501,-6.7423,-6.6572,-6.6533,-6.6417,-6.6185,-6.5605,-6.518,-6.4986,-6.3671,-6.282,-6.2394,-6.1737,-6.1311,-6.1118,-6.1118,-6.1118,-6.1118,-6.1118,-6.1118,-6.1041,-6.0422,-6.0074,-5.9803,-5.9184,-5.8255,-5.7357,-5.7821,-5.7241,-5.6313,-5.6313,-5.6158,-5.6012,-5.6012,-5.5586,-5.5122,-5.5122,-5.4,-5.2801,-5.2577,-5.1873,-5.1177,-5.0937,-5.0898,-5.0743,-5.0132,-4.9165,-4.8198,-4.754,-4.6542,-4.5807,-4.5807,-4.5807,-4.5807,-4.5807,-4.4369,-4.3285,-4.3285,-4.2009,-4.1048,-4.0816,-4.0816,-4.0816,-4.0816,-4.0816,-4.0816,-4.0816,-4.0816,-4.0816,-4.0816,-4.0816,-4.0816,-4.0816,-4.0816,-4.0816,-4.0816,-4.0816,-4.0816,-4.0816,-4.0816,-4.1583,-6.8125,-6.9961,-7.1094,-7.031,-6.9793,-6.8715,-6.5715,-6.3663,-6.1499,-5.8453,-5.5389,-5.3343,-5.3683,-5.3382,-5.4078,0.0,0.0,0.0,-6.429,-6.5605,-6.6533,0.0,-6.6495,0.0,-6.6185,-6.6185,-6.6185,0.0,-6.665,-6.6727,-6.6224,-6.665,-6.6727,-6.6224,-6.6185,-6.6031,-6.5682,-6.5218,-6.4599,-6.3864,-6.2859,-6.2201,-6.1814,-6.1311,-6.1118,-6.1118,-6.1118,-6.0886,-6.0576,-6.0576,-6.0344,-5.9957,-5.9493,-5.9106,-5.872,-5.8217,-5.7482,-5.6738,-5.6738,-5.639,-5.6012,-5.6012,-5.6012,-5.6012,-5.6012,-5.5432,-5.4813,-5.4813,-5.3536,-5.219,-5.219,-5.1563,-5.0898,-5.0898,-5.0898,-5.0782,-5.0318,-4.9243,-4.8043,-4.6767,-4.6116,-4.5807,-4.5807,-4.5807,-4.5807,-4.5807,-4.4717,-4.375,-4.3363,-4.1854,-4.0816,-4.0816,-4.0816,-4.0816,-4.0816,-4.0816,-4.0816,-4.0816,-4.0816,-4.0816,-4.0816,-4.0816,-4.0816,-4.0816,-4.0816,-4.0816,-4.0816,-4.0816,-4.0816,-4.0816,-4.0816,-4.1506,-6.9297,-7.0859,-7.1562,-6.9686,-6.859,-6.7018,-6.3396,-6.0399,-5.7647,-5.5046,-5.165,-4.9397,-5.0086,-5.0318,-5.1246,-5.3846,0.0,-6.0151,-6.1814,-6.3748,-6.5257,-6.5953,-6.6147,-6.6185,-6.6185,-6.6185,-6.6185,-6.6185,-6.6185,-6.6185,-6.6185,-6.6185,-6.6185,-6.6185,-6.6185,-6.5799,-6.4986,-6.488,-6.4019,-6.2394,-6.2278,-6.1814,-6.1118,-6.1118,-6.1118,-6.1118,-6.1118,-6.0654,-5.988,-5.988,-5.9377,-5.8613,-5.8449,-5.7985,-5.728,-5.7164,-5.6661,-5.6012,-5.6012,-5.6012,-5.6012,-5.6012,-5.6012,-5.6012,-5.6012,-5.5354,-5.4619,-5.4619,-5.3382,-5.2028,-5.2028,-5.1486,-5.0898,-5.0898,-5.0898,-5.0898,-5.0898,-4.9591,-4.7889,-4.6155,-4.5807,-4.5807,-4.5807,-4.5807,-4.5807,-4.5807,-4.5104,-4.4284,-4.3401,-4.1932,-4.0932,-4.0816,-4.0816,-4.081,-4.081,-4.0771,-4.081,-4.081,-4.081,-4.0816,-4.0816,-4.0816,-4.0816,-4.0816,-4.0816,-4.0816,-4.0816,-4.0816,-4.0816,-4.0816,-4.0816,-4.1274,-7.1094,-7.1758,-7.1406,-6.9023,-6.7734,-6.6014,-6.1786,-5.8187,0.0,0.0,-4.8986,-4.6542,-4.6651,-4.727,-4.8585,-5.1169,-5.5036,-5.8372,-6.0074,-6.3013,-6.5064,0.0,-6.5799,-6.6185,-6.6185,-6.6185,0.0,0.0,-6.6185,-6.6185,-6.6185,-6.6185,-6.6185,-6.6185,-6.6185,-6.5799,-6.4986,-6.43,-6.34,-6.2394,-6.166,-6.1234,-6.1118,-6.1118,-6.1118,-6.1118,-6.1118,0.0,-5.988,-5.988,-5.9377,-5.8526,-5.783,-5.7434,-5.7202,-5.6467,-5.6119,-5.6012,-5.6012,-5.6012,-5.6012,-5.6012,-5.6012,-5.6012,-5.6012,-5.4929,-5.373,-5.373,-5.2453,-5.113,-5.113,-5.1014,-5.0898,-5.0898,-5.0898,-5.0898,-5.0898,-4.9591,-4.7889,-4.6155,-4.5807,-4.5807,-4.5807,-4.5807,-4.5807,-4.5807,-4.5104,-4.4284,-4.3401,-4.2434,-4.1545,-4.0855,-4.0816,-4.0765,-4.0733,-4.0759,-4.0765,-4.0733,-4.0759,-4.0816,-4.0816,-4.0816,-4.0816,-4.0816,-4.0816,-4.0816,-4.0816,-4.0816,-4.0816,-4.0816,-4.0816,-4.1622,-7.1523,-7.1992,-7.1406,-6.8828,-6.7187,-6.4961,-6.019,0.0,0.0,0.0,-4.6352,-4.3943,-4.4407,-4.4833,0.0,-4.9126,-5.2453,-5.5702,-5.8797,-6.1776,-6.398,-6.487,-6.5721,-6.6185,-6.6185,-6.6185,-6.6185,-6.6185,-6.6185,-6.6185,-6.6185,-6.6185,-6.6185,-6.6185,-6.5799,-6.518,-6.4338,-6.3439,-6.2588,-6.1737,-6.1311,-6.1118,-6.1118,-6.1118,-6.1118,-6.1118,-6.1118,-6.0383,-5.9223,-5.9223,-5.8449,-5.7211,-5.6786,-5.6622,-5.6583,-5.6158,-5.6012,-5.6012,-5.6012,-5.6012,-5.6012,-5.6012,-5.6012,-5.6012,-5.6012,-5.5161,-5.4078,-5.3614,-5.2569,-5.1486,-5.1014,-5.0898,-5.0898,-5.0898,-5.0898,-5.0782,-5.0357,-4.9281,-4.8005,-4.6728,-4.6116,-4.5807,-4.5807,-4.5807,-4.5807,-4.5807,-4.5452,-4.491,-4.4098,-4.3208,-4.2202,-4.0932,-4.0759,-4.0726,-4.0588,-4.064,-4.0686,-4.0581,-4.0661,-4.0739,-4.0816,-4.0816,-4.0816,-4.0816,-4.0816,-4.0816,-4.0816,-4.0816,-4.0816,-4.0816,-4.1235,-4.1854,-7.1523,-7.1992,-7.1328,-6.8594,-6.6601,-6.3906,-5.855,-5.3869,0.0,-4.7353,-4.4101,-4.1932,-4.2628,-4.2899,-4.3943,0.0,-4.9745,-5.2956,-5.6717,-6.0035,-6.2704,0.0,-6.5489,0.0,-6.6185,-6.6185,0.0,-6.6185,-6.6185,-6.6185,-6.6185,-6.6185,-6.6185,-6.6185,-6.5412,-6.4571,-6.3719,-6.2859,-6.1969,-6.1118,-6.1118,-6.1118,-6.1118,-6.1118,-6.1118,-6.1118,-6.1118,-6.0151,-5.8613,-5.8613,-5.7559,-5.6012,-5.6012,-5.6012,-5.6012,-5.6012,-5.6012,-5.6012,-5.6012,-5.6012,-5.6012,-5.6012,-5.6012,-5.6012,-5.6012,-5.5432,-5.4619,-5.373,-5.2879,-5.1989,-5.113,-5.0898,-5.0898,-5.0898,-5.0898,-5.0666,-4.9861,-4.9165,-4.8353,-4.7308,-4.6542,-4.6039,-4.5845,-4.5807,-4.5807,-4.5807,-4.5807,-4.549,-4.471,-4.3968,-4.2917,-4.121,-4.0842,-4.0647,-4.0523,-4.0576,-4.0583,-4.053,-4.0581,-4.0681,-4.081,-4.0816,-4.0816,-4.0816,-4.0816,-4.0816,-4.0816,-4.0816,-4.0893,-4.1087,-4.1699,-4.2202,-7.1523,-7.1992,-7.1211,-6.7851,-6.5703,-6.2851,-5.6909,0.0,-4.8185,-4.5562,-4.2858,-4.0932,-4.1009,-4.1622,-4.2473,-4.3595,0.0,-5.0596,-5.2539,-5.7637,-6.1582,-6.2549,0.0,0.0,-6.6185,-6.6185,-6.6185,-6.6185,-6.6185,-6.6185,-6.6185,-6.6185,-6.6185,-6.6185,-6.5412,-6.4571,-6.3719,-6.2859,-6.1969,-6.1118,-6.1118,-6.1118,-6.1118,-6.1118,-6.1118,-6.1118,-6.1118,-6.0151,0.0,-5.8613,-5.7559,-5.6012,-5.6012,-5.6012,-5.6012,-5.6012,-5.6012,-5.6012,-5.6012,-5.6012,-5.6012,-5.6012,-5.6012,-5.6012,-5.6012,-5.5432,-5.4619,-5.373,-5.2879,-5.1989,-5.113,-5.0898,-5.0898,-5.0898,-5.0898,-5.0666,-4.9861,-4.9629,-4.9088,-4.7424,-4.7038,-4.6728,-4.5923,-4.5807,-4.5807,-4.5807,-4.5807,-4.549,-4.471,-4.4488,-4.3704,-4.1901,-4.1103,-4.064,-4.0492,-4.0612,-4.064,-4.0607,-4.0713,-4.081,-4.0816,-4.0816,-4.0816,-4.0816,-4.0816,-4.0816,-4.0816,-4.0816,-4.1164,-4.1893,-4.197,-4.286,-6.9258,-7.0078,-6.9726,-6.6836,-6.4414,-6.1289,-5.5776,0.0,-4.7168,-4.4542,-4.231,-4.0816,-4.0816,-4.1048,-4.1699,-4.3092,-4.5568,-4.8314,-5.1022,-5.5238,-5.8565,-5.9957,-6.2356,0.0,0.0,0.0,-6.4677,-6.4677,-6.4677,-6.4677,-6.4677,-6.5644,-6.5992,-6.5489,-6.4648,-6.3787,-6.2936,-6.2046,-6.1427,-6.1118,-6.1118,-6.1118,-6.1118,-6.1118,-6.1118,-6.1079,-6.0576,-5.9687,0.0,-5.8023,-5.7095,-5.6012,-5.6012,-5.6012,-5.6012,-5.6012,-5.6012,-5.6012,-5.6012,-5.6012,-5.6012,-5.6012,-5.6012,-5.6012,-5.6012,-5.5432,-5.4619,-5.373,-5.2879,-5.1989,-5.113,-5.0898,-5.0898,-5.0898,-5.0898,-5.0821,-5.0473,-5.0055,-4.9475,-4.8817,-4.7811,-4.6999,-4.6651,-4.6155,-4.5807,-4.5807,-4.5807,-4.5691,-4.5374,-4.4896,-4.4035,-4.2711,-4.1848,-4.1116,-4.0444,-4.0462,-4.0546,-4.053,-4.0633,-4.0733,-4.081,-4.0816,-4.0816,-4.0816,-4.0816,-4.0816,-4.0816,-4.1274,-4.1699,-4.2048,-4.3092,-4.3943,-6.7031,-6.8398,-6.8711,-6.5937,-6.3437,-6.0273,0.0,-5.0395,-4.6658,-4.4032,-4.2077,-4.0816,-4.0816,-4.0816,-4.1203,-4.2357,-4.4175,-4.638,-4.9049,-5.2801,-5.5818,0.0,0.0,-6.1389,0.0,-6.2665,-6.3323,-6.3323,-6.3565,-6.3603,-6.3323,-6.4677,-6.518,-6.4648,-6.3748,-6.3013,-6.2433,-6.1543,-6.1118,-6.1118,-6.1118,-6.1118,-6.1118,-6.1118,-6.1118,-6.1079,-6.0267,-5.9416,0.0,-5.7675,-5.6777,-5.6012,-5.6012,-5.6012,-5.6012,-5.6012,-5.6012,-5.6012,-5.6012,-5.6012,-5.6012,-5.6012,-5.6012,-5.5973,-5.5741,-5.5238,-5.4542,-5.342,-5.2492,-5.1679,-5.1053,-5.0898,-5.0898,-5.0898,-5.0898,-5.0898,-5.0898,-5.0434,-4.9977,-4.9745,-4.8508,-4.7386,-4.7154,-4.6387,-4.5807,-4.5807,-4.5807,-4.5807,-4.5807,-4.5329,-4.4474,-4.322,-4.2548,-4.1684,-4.0449,-4.0438,-4.05,-4.0545,-4.0595,-4.0688,-4.081,-4.0816,-4.0893,-4.1164,-4.1164,-4.1274,-4.1545,-4.2125,-4.2512,-4.2783,-4.402,-4.4717,-6.539,-6.7461,-6.8594,-6.5156,-6.3008,-6.0117,-5.4098,-4.9963,-4.6658,-4.4032,-4.2077,-4.0816,-4.0816,-4.0816,-4.0816,-4.0816,-4.2976,-4.4949,-4.5845,-5.0333,0.0,0.0,0.0,-5.899,-5.9841,-6.1427,-6.2433,-6.2433,-6.3207,0.0,-6.2472,-6.3245,-6.3719,-6.3719,-6.2859,-6.2433,-6.2394,-6.1543,-6.1118,-6.1118,-6.1118,-6.1118,-6.1118,-6.1118,-6.1118,-6.1079,-6.0267,-5.9416,0.0,-5.7675,-5.6777,-5.6012,-5.6012,-5.6012,-5.6012,-5.6012,-5.6012,-5.6012,-5.6012,-5.6012,-5.6012,-5.6012,-5.6012,-5.5857,-5.5045,-5.4813,-5.4426,-5.2693,-5.1602,-5.0898,-5.0898,-5.0898,-5.0898,-5.0898,-5.0898,-5.0898,-5.0898,-5.0898,-5.0666,-4.9861,-4.8972,-4.8121,-4.7231,-4.6387,-4.5807,-4.5807,-4.5807,-4.5807,-4.5807,-4.5771,-4.5101,-4.3289,-4.3081,-4.2348,-4.0567,-4.0591,-4.0661,-4.0595,-4.0739,-4.0816,-4.0816,-4.0816,-4.1164,-4.197,-4.197,-4.2396,-4.3285,-4.3285,-4.375,-4.4555,-4.4594,-4.5026,-6.0976,-6.2656,-6.3594,-6.1367,-5.9062,-5.6367,-5.2652,-4.8595,-4.5209,-4.3798,-4.2077,-4.0816,-4.0816,-4.0816,-4.0816,-4.0816,-4.2434,0.0,0.0,0.0,0.0,-5.373,-5.667,-5.8952,0.0,0.0,-6.1505,-6.1505,-6.1776,-6.1814,-6.1543,-6.1776,-6.2201,-6.2781,-6.2549,-6.2124,-6.1505,-6.1234,-6.1118,-6.1118,-6.1118,-6.1118,-6.1118,-6.1118,-6.0809,-6.0228,-5.9377,-5.8526,-5.7637,-5.6786,-5.6235,-5.6012,-5.6012,-5.6012,-5.6012,-5.6012,-5.6012,-5.6012,-5.6012,-5.6012,-5.6012,-5.6012,-5.5625,-5.5006,-5.4155,-5.3923,-5.3536,-5.1796,-5.1091,-5.0898,-5.0898,-5.0898,-5.0898,-5.0898,-5.0898,-5.0898,-5.0898,-5.0898,-5.0821,-5.055,-4.9861,-4.901,-4.8121,-4.727,-4.6503,-4.5884,-4.5807,-4.5807,-4.5807,-4.5793,-4.5332,-4.4176,-4.409,-4.3118,-4.0693,-4.0566,-4.0661,-4.0739,-4.0765,-4.0816,-4.0816,-4.1313,-4.1738,-4.2009,-4.2589,-4.3015,-4.3285,-4.3904,-4.4601,-4.5413,-4.5413,-4.5568,-5.7226,-5.9219,-6.0273,-5.8242,-5.625,-5.3945,-5.0699,-4.7305,-4.4465,-4.3253,-4.1839,-4.07,-4.0352,-4.0313,-4.0313,-4.0313,-4.1699,-4.3401,0.0,0.0,0.0,-5.4155,0.0,0.0,0.0,-6.0151,-6.077,-6.1079,-6.1118,-6.1118,-6.1118,-6.1118,-6.135,-6.1892,-6.193,-6.166,-6.1118,-6.1118,-6.1118,-6.1118,-6.1118,-6.1118,-6.1118,-6.1118,-6.0654,-5.9841,-5.899,-5.8101,0.0,-5.6351,-5.6012,-5.6012,-5.6012,-5.6012,-5.6012,-5.6012,-5.6012,-5.6012,-5.6012,-5.6012,-5.5935,-5.5664,-5.4774,-5.373,-5.3149,-5.2763,-5.2298,-5.1207,-5.0898,-5.0898,-5.0898,-5.0898,-5.0898,-5.0898,-5.0898,-5.0898,-5.0898,-5.0898,-5.0898,-5.0898,-5.0241,-4.9436,-4.8546,-4.7695,-4.6806,-4.5923,-4.5807,-4.5807,-4.5807,-4.5807,-4.5476,-4.4614,-4.4573,-4.3761,-4.1721,-4.1581,-4.1654,-4.1738,-4.1738,-4.1738,-4.1738,-4.2202,-4.2667,-4.2976,-4.3518,-4.3943,-4.4253,-4.4794,-4.5297,-4.5807,-4.5807,-4.5807,0.0,-5.6719,-5.8125,-5.5625,-5.4336,-5.2578,-4.8432,-4.6013,0.0,-4.2549,-4.145,-4.0545,-3.9739,-3.9584,-3.9623,-3.9661,-4.1054,-4.275,0.0,-4.8546,0.0,0.0,-5.6932,0.0,-5.8604,-5.9493,-6.0306,-6.1041,-6.1118,-6.1118,-6.1118,-6.1118,-6.1118,-6.1118,-6.1118,-6.1118,-6.1118,-6.1118,-6.1118,-6.1118,-6.1118,-6.1079,-6.1002,-6.1002,-6.0538,0.0,-5.8874,-5.8023,-5.7125,-5.6313,-5.6012,-5.6012,-5.6012,-5.6012,-5.6012,-5.6012,-5.6012,-5.6012,-5.6012,-5.5973,-5.578,-5.489,-5.3536,-5.219,-5.2152,-5.1525,-5.0898,-5.0898,-5.0898,-5.0898,-5.0898,-5.0898,-5.0898,-5.0898,-5.0898,-5.0898,-5.0898,-5.0898,-5.0898,-5.0898,-5.0279,-4.9513,-4.8624,-4.7811,-4.696,-4.6039,-4.5884,-4.5884,-4.5807,-4.5807,-4.549,-4.4755,-4.4671,-4.4369,-4.3556,-4.3363,-4.3285,-4.3285,-4.3285,-4.3285,-4.3285,-4.3363,-4.3788,-4.4594,-4.4671,-4.5065,-4.5807,-4.5807,-4.5807,-4.5807,-4.5807,-4.5807,-4.918,0.0,-5.3906,-5.2656,-5.121,-4.9489,0.0,-4.4582,-4.2684,-4.2274,-4.1463,-4.0745,-4.0531,-4.0483,-4.0693,-4.1396,-4.2393,-4.4124,-4.708,0.0,0.0,-5.7714,-5.8758,-5.9377,-5.9571,-6.0344,-6.0886,-6.1079,-6.1118,-6.1118,-6.1118,-6.1118,-6.1118,-6.1118,-6.1118,-6.1118,-6.1118,-6.1118,-6.1118,-6.1118,-6.1118,-6.077,-6.019,-6.019,-5.9339,-5.7907,-5.7675,-5.7095,-5.6274,-5.6081,-5.6012,-5.6012,-5.6012,-5.6012,-5.6012,-5.6012,-5.6012,-5.6012,-5.6012,-5.5586,-5.4813,-5.3304,-5.2539,-5.2074,-5.1409,-5.1053,-5.0898,-5.0898,-5.0898,-5.0898,-5.0898,-5.0898,-5.0898,-5.0898,-5.0898,-5.0898,-5.0898,-5.0898,-5.0898,-5.0898,-5.0743,-5.0357,-4.9552,-4.9204,-4.8585,-4.7038,-4.6806,-4.6542,-4.5884,-4.5807,-4.5729,-4.5529,-4.5529,-4.5452,-4.522,-4.402,-4.3285,-4.3285,-4.3285,-4.3285,-4.3285,-4.3943,-4.44,-4.4594,-4.5181,-4.5613,-4.5807,-4.5807,-4.5807,-4.5807,-4.5807,-4.5807,-4.7383,-4.9531,-5.125,-4.996,-4.8941,-4.7684,-4.551,-4.3536,-4.2049,-4.1646,-4.0854,-4.0209,-4.0256,-4.0266,-4.0689,-4.1942,-4.3208,0.0,0.0,0.0,-5.7366,-5.9493,-6.0151,-6.046,0.0,-6.0847,-6.1118,-6.1118,-6.1118,-6.0925,-6.0576,-6.0538,-6.0383,-5.9957,-6.0344,-6.0731,-6.1118,-6.1118,-6.1118,-6.1118,-6.1118,-6.0692,-5.988,-5.988,-5.8952,-5.728,-5.728,-5.6815,-5.6012,-5.6012,-5.6012,-5.6012,-5.6012,-5.6012,-5.6012,-5.6012,-5.6012,-5.6012,-5.6012,-5.52,-5.3962,-5.2655,-5.1912,-5.1525,-5.1053,-5.0898,-5.0898,-5.0898,-5.0898,-5.0898,-5.0898,-5.0898,-5.0898,-5.0898,-5.0898,-5.0898,-5.0898,-5.0898,-5.0898,-5.0898,-5.0898,-5.0627,-4.9861,-4.9707,-4.9243,-4.7889,-4.7347,-4.6922,-4.6464,-4.6039,-4.5807,-4.5807,-4.5807,-4.5807,-4.5807,-4.4949,-4.4446,-4.4446,-4.4446,-4.4446,-4.4446,-4.491,-4.5142,-4.5142,-4.5568,-4.5807,-4.5807,-4.5807,-4.5807,-4.5807,-4.5807,-4.5807,-4.6953,-4.8672,-4.9648,-4.8162,-4.7647,-4.6889,-4.4519,0.0,0.0,0.0,0.0,0.0,0.0,-4.014,0.0,0.0,0.0,0.0,-5.4157,-5.6446,-5.8372,-6.0809,-6.1118,0.0,-6.1118,-6.1118,-6.1041,-6.0925,-6.0925,-6.0576,-5.9764,-5.9687,-5.9339,-5.8613,-5.93,-6.0035,-6.0692,-6.0963,-6.1041,-6.0925,-6.0925,-6.0422,-5.9493,-5.9493,-5.8604,-5.7086,-5.7086,0.0,-5.6012,-5.6012,-5.6012,-5.6012,-5.6012,-5.6012,-5.6012,-5.6012,-5.6012,-5.5973,-5.5702,-5.4697,-5.3343,-5.2337,-5.1486,-5.0898,-5.0898,-5.0898,-5.0898,-5.0898,-5.0898,-5.0898,-5.0898,-5.0898,-5.0898,-5.0898,-5.0898,-5.0898,-5.0898,-5.0898,-5.0898,-5.0898,-5.0898,-5.0666,-5.0016,-4.99,-4.9591,-4.874,-4.785,-4.7231,-4.7115,-4.6348,-4.5807,-4.5807,-4.5807,-4.5807,-4.5807,-4.5807,-4.5807,-4.5807,-4.5807,-4.5807,-4.5807,-4.5807,-4.5807,-4.5807,-4.5807,-4.5807,-4.5807,-4.5807,-4.5807,-4.5807,-4.5807,-4.5807,-4.6211,-4.7773,-4.9023,-4.8784,-4.8152,-4.7281,-4.6069,-4.3955,0.0,0.0,0.0,0.0,0.0,-4.2482,-4.3562,0.0,0.0,-5.2329,0.0,0.0,-5.9073,-6.0886,0.0,-6.1118,-6.1118,-6.1118,-6.0809,-6.0151,-6.0074,-5.9725,-5.8845,-5.8806,-5.8729,-5.8613,-5.8729,-5.8874,-5.899,-6.0383,-6.077,-6.0074,-6.0074,-5.9261,-5.7705,-5.7705,-5.7164,-5.6197,0.0,-5.6119,-5.6012,-5.6012,-5.6012,-5.6012,-5.6012,-5.6012,-5.6012,-5.6012,-5.6012,-5.5818,-5.4387,-5.373,-5.3227,-5.1641,-5.1014,-5.0898,-5.0898,-5.0898,-5.0898,-5.0898,-5.0898,-5.0898,-5.0898,-5.0898,-5.0898,-5.0898,-5.0898,-5.0898,-5.0898,-5.0898,-5.0898,-5.0898,-5.0898,-5.0859,-5.0743,-5.0705,-5.0434,-4.9629,-4.8778,-4.7927,-4.7192,-4.6348,-4.5807,-4.5807,-4.5807,-4.5807,-4.5807,-4.5807,-4.5807,-4.5807,-4.5807,-4.5807,-4.5807,-4.5807,-4.5807,-4.5807,-4.5807,-4.5807,-4.5807,-4.5807,-4.5807,-4.5807,-4.5807,-4.5807,-4.5351,-4.6172,-4.7148,-4.8552,-4.8936,-4.8571,-4.7221,-4.5234,-4.3637,0.0,0.0,0.0,0.0,0.0,-4.6162,-4.9789,0.0,-5.5244,-5.7243,-5.8583,-5.98,0.0,0.0,-6.0925,-6.0499,-6.046,-6.0112,-5.9261,-5.9184,-5.8836,-5.7946,-5.7907,-5.7675,-5.7211,-5.7637,-5.7907,-5.7907,-5.9145,-5.9571,-5.9184,-5.9184,-5.8526,-5.728,-5.728,-5.6815,-5.6012,0.0,-5.6012,-5.6012,-5.6012,-5.6012,-5.6012,-5.6012,-5.6012,-5.6012,-5.6012,-5.5741,-5.5161,-5.3923,-5.3188,-5.2569,-5.1323,-5.0898,-5.0898,-5.0898,-5.0898,-5.0898,-5.0898,-5.0898,-5.0898,-5.0898,-5.0898,-5.0898,-5.0898,-5.0898,-5.0898,-5.0898,-5.0898,-5.0898,-5.0898,-5.0898,-5.0898,-5.0898,-5.0898,-5.0782,-5.0395,-4.9243,-4.8275,-4.785,-4.6612,-4.5807,-4.5807,-4.5807,-4.5807,-4.5807,-4.5807,-4.5807,-4.5807,-4.5807,-4.5807,-4.5807,-4.5807,-4.5807,-4.5807,-4.5807,-4.5807,-4.5807,-4.5807,-4.5807,-4.5807,-4.5807,-4.6039,-4.4492,-4.4844,-4.5547,-4.7734,-4.9056,-4.9513,-4.8371,-4.6865,-4.5669,-4.5474,0.0,0.0,0.0,-4.6577,0.0,-5.3492,-5.546,-5.7038,-5.8815,-5.96,-6.0298,-6.1057,-6.1098,-6.0779,-5.9957,-5.988,-5.9455,-5.8372,-5.8294,-5.7907,-5.7048,-5.7009,-5.6699,-5.6012,-5.6661,-5.7009,-5.7009,-5.7675,-5.8101,-5.8294,-5.8294,-5.783,-5.7009,-5.7009,-5.6622,-5.6012,-5.6012,-5.6012,-5.6012,-5.6012,-5.6012,-5.6012,-5.6012,-5.6012,-5.5973,-5.578,-5.5316,-5.4658,-5.3575,-5.2763,-5.2066,-5.1169,-5.0898,-5.0898,-5.0898,-5.0898,-5.0898,-5.0898,-5.0898,-5.0898,-5.0898,-5.0898,-5.0898,-5.0898,-5.0898,-5.0898,-5.0898,-5.0898,-5.0898,-5.0898,-5.0898,-5.0898,-5.0898,-5.0898,-5.0898,-5.0898,-4.9668,-4.8624,-4.843,-4.7076,-4.6039,-4.5807,-4.5807,-4.5807,-4.5807,-4.5807,-4.5807,-4.5807,-4.5807,-4.5807,-4.5807,-4.5807,-4.5807,-4.5807,-4.5807,-4.5807,-4.5807,-4.5807,-4.5884,-4.6116,-4.6116,-4.6581,-4.3789,-4.4375,-4.5234,-4.625,-4.7693,-4.9054,-4.975,-4.9197,-4.8294,-4.7473,0.0,0.0,0.0,-4.9403,-5.1944,-5.4756,-5.5944,-5.7346,-5.9737,0.0,-6.0377,-6.1112,-6.1169,-6.0854,-5.9967,-5.988,-5.9184,-5.7512,-5.7396,-5.7009,-5.6128,-5.6089,-5.6042,-5.6012,-5.6051,-5.6089,-5.6089,-5.6167,-5.6592,-5.7396,-5.7396,-5.6932,-5.6089,-5.6089,-5.6051,-5.6012,-5.6012,-5.6012,-5.6012,-5.6012,-5.6012,-5.6012,-5.6012,-5.6012,-5.5896,-5.5161,-5.4851,-5.4542,-5.2879,-5.2268,-5.2066,-5.1169,-5.0898,-5.0898,-5.0898,-5.0898,-5.0898,-5.0898,-5.0898,-5.0898,-5.0898,-5.0898,-5.0898,-5.0898,-5.0898,-5.0898,-5.0898,-5.0898,-5.0898,-5.0898,-5.0898,-5.0898,-5.0898,-5.0898,-5.0898,-5.0898,-5.0163,-4.932,-4.8508,-4.7579,-4.6689,-4.5884,-4.5807,-4.5807,-4.5807,-4.5807,-4.5807,-4.5807,-4.5807,-4.5807,-4.5807,-4.5807,-4.5807,-4.5807,-4.5807,-4.5807,-4.5807,-4.5807,-4.6232,-4.6999,-4.6999,-4.7463,-4.3047,-4.3125,-4.3867,-4.582,-4.7187,-4.8554,-5.0467,-5.0661,-5.0622,-5.1403,-5.1091,0.0,0.0,0.0,-5.4335,-5.5858,-5.7259,-5.8687,-6.0054,-6.0711,-6.0905,-6.0505,-6.0445,-5.9877,-5.8419,-5.8294,-5.7791,-5.6583,-5.6467,-5.6351,-5.6012,-5.6012,-5.6012,-5.6012,-5.6012,-5.6012,-5.6012,-5.6012,-5.6167,-5.6467,-5.6467,-5.6313,-5.6012,-5.6012,-5.6012,-5.6012,-5.6012,-5.6012,-5.6012,-5.6012,-5.6012,-5.5935,-5.547,-5.5238,-5.5161,-5.431,-5.3652,-5.3072,-5.2422,-5.1834,-5.1331,-5.1014,-5.0898,-5.0898,-5.0898,-5.0898,-5.0898,-5.0898,-5.0898,-5.0898,-5.0898,-5.0898,-5.0898,-5.0898,-5.0898,-5.0898,-5.0898,-5.0898,-5.0898,-5.0898,-5.0898,-5.0898,-5.0898,-5.0898,-5.0898,-5.0898,-5.0202,-4.9397,-4.8508,-4.7657,-4.6767,-4.5884,-4.5807,-4.5807,-4.5807,-4.5807,-4.5807,-4.5807,-4.5807,-4.5807,-4.5807,-4.5807,-4.5807,-4.5807,-4.5807,-4.5807,-4.5807,-4.6348,-4.6767,-4.7115,-4.7657,-4.8392,-4.2266,-4.2031,-4.2656,-4.5234,0.0,0.0,-5.1094,-5.2226,-5.2969,-5.4141,-5.3945,-5.3516,-5.3516,0.0,0.0,0.0,-5.8045,-5.9328,-5.9855,-6.0636,-6.0794,-5.975,-5.9597,-5.8971,-5.7452,-5.728,-5.6932,-5.6089,-5.6012,-5.6012,-5.6012,-5.6012,-5.6012,-5.6012,-5.6012,-5.6012,-5.6012,-5.6012,-5.6012,-5.6012,-5.6012,-5.6012,-5.6012,-5.6012,-5.6012,-5.6012,-5.6012,-5.5857,-5.5625,-5.5625,-5.547,-5.5161,-5.4581,-5.4387,-5.4271,-5.342,-5.2724,-5.2152,-5.1873,-5.1409,-5.0898,-5.0898,-5.0898,-5.0898,-5.0898,-5.0898,-5.0898,-5.0898,-5.0898,-5.0898,-5.0898,-5.0898,-5.0898,-5.0898,-5.0898,-5.0898,-5.0898,-5.0898,-5.0898,-5.0898,-5.0898,-5.0898,-5.0898,-5.0898,-5.0898,-5.0898,-5.0434,-4.9784,-4.8933,-4.8043,-4.7076,-4.5923,-4.5807,-4.5807,-4.5807,-4.5807,-4.5807,-4.5807,-4.5807,-4.5807,-4.5807,-4.5807,-4.5807,-4.5807,-4.5807,-4.5923,-4.6194,-4.6806,-4.7386,-4.7927,-4.8546,-4.9281,-4.1406,-4.1211,-4.1836,-4.4375,0.0,0.0,-5.1719,-5.4062,-5.5312,-5.5351,-5.5351,-5.5351,-5.5312,-5.5312,0.0,-5.6445,-5.8004,-5.9089,-5.9081,-5.9765,-5.9903,-5.8913,-5.8736,-5.8319,-5.7366,-5.728,-5.6932,-5.6042,-5.6012,-5.6012,-5.6012,-5.6012,-5.6012,-5.6012,-5.6012,-5.6012,-5.6012,-5.6012,-5.6012,-5.6012,-5.6012,-5.6012,-5.6012,-5.6012,-5.6012,-5.6012,-5.6012,-5.5548,-5.4813,-5.4774,-5.4271,-5.3498,-5.3498,-5.3498,-5.3382,-5.25,-5.219,-5.2066,-5.1215,-5.0898,-5.0898,-5.0898,-5.0898,-5.0898,-5.0898,-5.0898,-5.0898,-5.0898,-5.0898,-5.0898,-5.0898,-5.0898,-5.0898,-5.0898,-5.0898,-5.0898,-5.0898,-5.0898,-5.0898,-5.0898,-5.0898,-5.0898,-5.0898,-5.0898,-5.0898,-5.0898,-5.0898,-5.0589,-4.9784,-4.8933,-4.7734,-4.6,-4.5807,-4.5807,-4.5807,-4.5807,-4.5807,-4.5807,-4.5807,-4.5807,-4.5807,-4.5807,-4.5807,-4.5807,-4.5807,-4.6232,-4.7115,-4.7115,-4.8005,-4.9707,-4.9707,-5.0132,-4.1366,-4.1562,0.0,-4.4492,0.0,0.0,0.0,-5.4531,0.0,0.0,-5.8906,-5.8359,-5.6523,-5.6719,0.0,-5.5859,-5.7147,-5.8234,-5.8137,-5.8841,-5.9005,-5.8007,-5.7857,-5.7467,-5.6485,-5.639,-5.6274,-5.6012,-5.6012,-5.6012,-5.6012,-5.6012,-5.6012,-5.6012,-5.6012,-5.6012,-5.6012,-5.6012,-5.6012,-5.6012,-5.6012,-5.6012,-5.6012,-5.6012,-5.6012,-5.5973,-5.5393,-5.5006,-5.4735,-5.4155,-5.373,-5.342,-5.284,-5.2577,-5.2492,-5.1602,-5.1293,-5.1254,-5.0975,-5.0898,-5.0898,-5.0898,-5.0898,-5.0898,-5.0898,-5.0898,-5.0898,-5.0898,-5.0898,-5.0898,-5.0898,-5.0898,-5.0898,-5.0898,-5.0898,-5.0898,-5.0898,-5.0898,-5.0898,-5.0898,-5.0898,-5.0898,-5.0898,-5.0898,-5.0898,-5.0898,-5.0898,-5.0589,-4.9784,-4.8392,-4.727,-4.6767,-4.6155,-4.5807,-4.5807,-4.5807,-4.5807,-4.5807,-4.5807,-4.5807,-4.5807,-4.5807,-4.5807,-4.5807,-4.6387,-4.6844,-4.7115,-4.8314,-4.9204,-4.9707,-5.0279,-5.0666,-4.1559,-4.2265,0.0,-4.5937,-4.8242,-5.0859,-5.4453,0.0,0.0,0.0,-6.0625,-5.9844,-5.7969,-5.7773,0.0,-5.6054,-5.6986,-5.7713,-5.7258,-5.7914,-5.8067,-5.7114,-5.6975,-5.6707,-5.6059,-5.6012,-5.6012,-5.6012,-5.6012,-5.6012,-5.6012,-5.6012,-5.6012,-5.6012,-5.6012,-5.6012,-5.6012,-5.6012,-5.6012,-5.6012,-5.6012,-5.5818,-5.5509,-5.5509,-5.5316,-5.4967,-5.4116,-5.3768,-5.3691,-5.284,-5.2453,-5.2414,-5.1873,-5.1679,-5.1602,-5.1091,-5.0898,-5.0898,-5.0898,-5.0898,-5.0898,-5.0898,-5.0898,-5.0898,-5.0898,-5.0898,-5.0898,-5.0898,-5.0898,-5.0898,-5.0898,-5.0898,-5.0898,-5.0898,-5.0898,-5.0898,-5.0898,-5.0898,-5.0898,-5.0898,-5.0898,-5.0898,-5.0898,-5.0898,-5.0898,-5.0898,-5.0898,-5.0589,-4.9784,-4.8778,-4.8005,-4.7657,-4.7154,-4.6844,-4.6844,-4.6844,-4.6844,-4.6844,-4.6844,-4.6844,-4.6844,-4.6503,-4.6464,-4.6844,-4.7347,-4.7773,-4.8121,-4.9204,-4.9861,-5.021,-5.0666,-5.0898,-4.1828,-4.3045,0.0,-4.8047,-5.0351,0.0,-5.7969,-5.9062,-5.957,-6.125,0.0,-6.0117,-5.9258,-5.8437,-5.7615,-5.6715,-5.7202,-5.7359,-5.651,-5.7001,-5.7165,-5.6269,-5.6118,-5.6054,-5.6012,-5.6012,-5.6012,-5.6012,-5.6012,-5.6012,-5.6012,-5.6012,-5.6012,-5.6012,-5.6012,-5.6012,-5.6012,-5.6012,-5.5973,-5.5896,-5.5896,-5.5432,-5.4581,-5.4735,-5.4271,-5.3343,-5.2539,-5.2152,-5.2028,-5.1215,-5.0898,-5.0898,-5.0898,-5.0898,-5.0898,-5.0898,-5.0898,-5.0898,-5.0898,-5.0898,-5.0898,-5.0898,-5.0898,-5.0898,-5.0898,-5.0898,-5.0898,-5.0898,-5.0898,-5.0898,-5.0898,-5.0898,-5.0898,-5.0898,-5.0898,-5.0898,-5.0898,-5.0898,-5.0898,-5.0898,-5.0898,-5.0898,-5.0898,-5.0898,-5.0898,-5.0898,-5.0898,-5.0627,-4.99,-4.9745,-4.9397,-4.8585,-4.8469,-4.8392,-4.8392,-4.8392,-4.8392,-4.8392,-4.8392,-4.843,-4.8508,-4.7695,-4.7579,-4.8392,-4.8469,-4.8894,-4.9707,-4.9784,-5.021,-5.0898,-5.0898,-5.0898,-4.1081,-4.3005,0.0,0.0,-5.1719,-5.5117,-5.7617,-5.8164,-5.8672,-6.0312,-6.0547,-5.9961,-5.8437,-5.8046,-5.7612,-5.6658,-5.6631,-5.6574,-5.6297,-5.6382,-5.6379,-5.607,-5.6037,-5.602,-5.6012,-5.6012,-5.6012,-5.6012,-5.6012,-5.6012,-5.6012,-5.6012,-5.6012,-5.6012,-5.6012,-5.6012,-5.6012,-5.6012,-5.5664,-5.5045,-5.5045,-5.4233,-5.2801,-5.4194,-5.3962,-5.2461,-5.2268,-5.1796,-5.1169,-5.0975,-5.0898,-5.0898,-5.0898,-5.0898,-5.0898,-5.0898,-5.0898,-5.0898,-5.0898,-5.0898,-5.0898,-5.0898,-5.0898,-5.0898,-5.0898,-5.0898,-5.0898,-5.0898,-5.0898,-5.0898,-5.0898,-5.0898,-5.0898,-5.0898,-5.0898,-5.0898,-5.0898,-5.0898,-5.0898,-5.0898,-5.0898,-5.0898,-5.0898,-5.0898,-5.0898,-5.0898,-5.0898,-5.0821,-5.0666,-5.0094,-4.9629,-4.9436,-4.8817,-4.8392,-4.8392,-4.8392,-4.8392,-4.8392,-4.8392,-4.8701,-4.9397,-4.8585,-4.8198,-4.8392,-4.9088,-4.9513,-4.9707,-5.0318,-5.0743,-5.0898,-5.0898,-5.0898,-4.1034,0.0,0.0,-5.0273,0.0,-5.6797,-5.7695,-5.8203,-5.8633,-5.9101,-5.9531,-5.9413,-5.8124,-5.7884,-5.7553,-5.6592,-5.6383,-5.6334,-5.6207,-5.6178,-5.611,-5.602,-5.6012,-5.6012,-5.6012,-5.6012,-5.6012,-5.6012,-5.6012,-5.6012,-5.6012,-5.6012,-5.5818,-5.5432,-5.5432,-5.5238,-5.4813,-5.4813,-5.4581,-5.4194,-5.4194,-5.3459,-5.2229,-5.2724,-5.2453,-5.1563,-5.1563,-5.1331,-5.0898,-5.0898,-5.0898,-5.0898,-5.0898,-5.0898,-5.0898,-5.0898,-5.0898,-5.0898,-5.0898,-5.0898,-5.0898,-5.0898,-5.0898,-5.0898,-5.0898,-5.0898,-5.0898,-5.0898,-5.0898,-5.0898,-5.0898,-5.0898,-5.0898,-5.0898,-5.0898,-5.0898,-5.0898,-5.0898,-5.0898,-5.0898,-5.0898,-5.0898,-5.0898,-5.0898,-5.0898,-5.0898,-5.0898,-5.0898,-5.0898,-5.0511,-5.0279,-5.0279,-4.9861,-4.9591,-4.9591,-4.9591,-4.9591,-4.9591,-4.9591,-4.9784,-5.0241,-4.9861,-4.9591,-4.9591,-5.0055,-5.0279,-5.0279,-5.0705,-5.0898,-5.0898,-5.0898,-5.0898,-4.0634,0.0,-4.6992,-5.2617,-5.5742,0.0,-5.7656,-5.8242,-5.8554,-5.7812,-5.8358,-5.8708,-5.7807,-5.759,-5.7314,-5.65,-5.6329,-5.6259,-5.6185,-5.611,-5.6054,-5.6012,-5.6012,-5.5935,-5.5818,-5.578,-5.5741,-5.5586,-5.5586,-5.5586,-5.5586,-5.5586,-5.5277,-5.4581,-5.4581,-5.4233,-5.3498,-5.3498,-5.342,-5.3265,-5.3111,-5.2685,-5.195,-5.1215,-5.0898,-5.0898,-5.0898,-5.0898,-5.0898,-5.0898,-5.0898,-5.0898,-5.0898,-5.0898,-5.0898,-5.0898,-5.0898,-5.0898,-5.0898,-5.0898,-5.0898,-5.0898,-5.0898,-5.0898,-5.0898,-5.0898,-5.0898,-5.0898,-5.0898,-5.0898,-5.0898,-5.0898,-5.0898,-5.0898,-5.0898,-5.0898,-5.0898,-5.0898,-5.0898,-5.0898,-5.0898,-5.0898,-5.0898,-5.0898,-5.0898,-5.0898,-5.0898,-5.0898,-5.0898,-5.0898,-5.0898,-5.0898,-5.0898,-5.0898,-5.0898,-5.0898,-5.0898,-5.0898,-5.0898,-5.0898,-5.0898,-5.0898,-5.0898,-5.0898,-5.0898,-5.0898,-5.0898,-5.0898,-5.0898,-5.0898,-5.0898,-5.0898,0.0,0.0,-4.9296,0.0,-5.4843,-5.5858,0.0,0.0,-5.6907,0.0,-5.7457,-5.7807,-5.6852,-5.6628,-5.6492,-5.6281,-5.6214,-5.6178,-5.6054,-5.6029,-5.6012,-5.6012,-5.6012,-5.5741,-5.5045,-5.4967,-5.4658,-5.3884,-5.3846,-5.3846,-5.3846,-5.3846,-5.3768,-5.3691,-5.3652,-5.3614,-5.3498,-5.3498,-5.3111,-5.2345,-5.1602,-5.1169,-5.1053,-5.0937,-5.0898,-5.0898,-5.0898,-5.0898,-5.0898,-5.0898,-5.0898,-5.0898,-5.0898,-5.0898,-5.0898,-5.0898,-5.0898,-5.0898,-5.0898,-5.0898,-5.0898,-5.0898,-5.0898,-5.0898,-5.0898,-5.0898,-5.0898,-5.0898,-5.0898,-5.0898,-5.0898,-5.0898,-5.0898,-5.0898,-5.0898,-5.0898,-5.0898,-5.0898,-5.0898,-5.0898,-5.0898,-5.0898,-5.0898,-5.0898,-5.0898,-5.0898,-5.0898,-5.0898,-5.0898,-5.0898,-5.0898,-5.0898,-5.0898,-5.0898,-5.0898,-5.0898,-5.0898,-5.0898,-5.0898,-5.0898,-5.0898,-5.0898,-5.0898,-5.0898,-5.0898,-5.0898,-5.0898,-5.0898,-5.0898,-5.0898,-5.0898,-5.0898,-3.8791,-4.4324,-4.9333,0.0,-5.3242,-5.4645,-5.5026,0.0,-5.5942,-5.635,-5.6734,-5.689,-5.6503,-5.6375,-5.6324,-5.6207,-5.617,-5.6102,-5.602,-5.6012,-5.5818,-5.5393,-5.5316,-5.5006,-5.4155,-5.4078,-5.3923,-5.3536,-5.3498,-5.3498,-5.3498,-5.3498,-5.3265,-5.2801,-5.2763,-5.2531,-5.2066,-5.2028,-5.1834,-5.1486,-5.1091,-5.0898,-5.0898,-5.0898,-5.0898,-5.0898,-5.0898,-5.0898,-5.0898,-5.0898,-5.0898,-5.0898,-5.0898,-5.0898,-5.0898,-5.0898,-5.0898,-5.0898,-5.0898,-5.0898,-5.0898,-5.0898,-5.0898,-5.0898,-5.0898,-5.0898,-5.0898,-5.0898,-5.0898,-5.0898,-5.0898,-5.0898,-5.0898,-5.0898,-5.0898,-5.0898,-5.0898,-5.0898,-5.0898,-5.0898,-5.0898,-5.0898,-5.0898,-5.0898,-5.0898,-5.0898,-5.0898,-5.0898,-5.0898,-5.0898,-5.0898,-5.0898,-5.0898,-5.0898,-5.0898,-5.0898,-5.0898,-5.0898,-5.0898,-5.0898,-5.0898,-5.0898,-5.0898,-5.0898,-5.0898,-5.0898,-5.0898,-5.0898,-5.0898,-5.0898,-5.0898,-5.0898,-3.8953,-4.3581,-4.7337,-4.9374,0.0,0.0,0.0,0.0,0.0,0.0,-5.5955,-5.5989,-5.5996,-5.6158,-5.6175,-5.5899,-5.5792,-5.5659,-5.5393,-5.5354,-5.5122,-5.4542,-5.4465,-5.4116,-5.3265,-5.3149,-5.3072,-5.2879,-5.284,-5.284,-5.284,-5.284,-5.2531,-5.1873,-5.1873,-5.1563,-5.0898,-5.0898,-5.0898,-5.0898,-5.0898,-5.0898,-5.0898,-5.0898,-5.0898,-5.0898,-5.0898,-5.0898,-5.0898,-5.0898,-5.0898,-5.0898,-5.0898,-5.0898,-5.0898,-5.0898,-5.0898,-5.0898,-5.0898,-5.0898,-5.0898,-5.0898,-5.0898,-5.0898,-5.0898,-5.0898,-5.0898,-5.0898,-5.0898,-5.0898,-5.0898,-5.0898,-5.0898,-5.0898,-5.0898,-5.0898,-5.0898,-5.0898,-5.0898,-5.0898,-5.0898,-5.0898,-5.0898,-5.0898,-5.0898,-5.0898,-5.0898,-5.0898,-5.0898,-5.0898,-5.0898,-5.0898,-5.0898,-5.0898,-5.0898,-5.0898,-5.0898,-5.0898,-5.0898,-5.0898,-5.0898,-5.0898,-5.0898,-5.0898,-5.0898,-5.0898,-5.0898,-5.0898,-5.0898,-5.0898,-5.0898,-5.0898,-3.765,-4.0049,0.0,-4.7726,0.0,0.0,0.0,0.0,0.0,0.0,0.0,-5.5054,-5.499,-5.563,-5.5899,-5.5039,-5.486,-5.4581,-5.373,-5.3614,-5.3614,-5.3575,-5.3575,-5.3227,-5.2345,-5.2268,-5.1912,-5.1091,-5.1053,-5.1053,-5.1053,-5.1053,-5.1014,-5.0975,-5.0975,-5.0937,-5.0898,-5.0898,-5.0898,-5.0898,-5.0898,-5.0898,-5.0898,-5.0898,-5.0898,-5.0898,-5.0898,-5.0898,-5.0898,-5.0898,-5.0898,-5.0898,-5.0898,-5.0898,-5.0898,-5.0898,-5.0898,-5.0898,-5.0898,-5.0898,-5.0898,-5.0898,-5.0898,-5.0898,-5.0898,-5.0898,-5.0898,-5.0898,-5.0898,-5.0898,-5.0898,-5.0898,-5.0898,-5.0898,-5.0898,-5.0898,-5.0898,-5.0898,-5.0898,-5.0898,-5.0898,-5.0898,-5.0898,-5.0898,-5.0898,-5.0898,-5.0898,-5.0898,-5.0898,-5.0898,-5.0898,-5.0898,-5.0898,-5.0898,-5.0898,-5.0898,-5.0898,-5.0898,-5.0898,-5.0898,-5.0898,-5.0898,-5.0898,-5.0898,-5.0898,-5.0898,-5.0898,-5.0898,-5.0898,-5.0898,-5.0898,-5.0898,-3.3843,-3.6409,0.0,0.0,0.0,0.0,0.0,0.0,0.0,0.0,0.0,0.0,-5.4003,-5.4715,-5.5017,-5.4094,-5.3962,-5.3846,-5.3536,-5.3498,-5.3304,-5.2724,-5.2655,-5.2298,-5.1447,-5.137,-5.1254,-5.0937,-5.0898,-5.0898,-5.0898,-5.0898,-5.0898,-5.0898,-5.0898,-5.0898,-5.0898,-5.0898,-5.0898,-5.0898,-5.0898,-5.0898,-5.0898,-5.0898,-5.0898,-5.0898,-5.0898,-5.0898,-5.0859,-5.0318,-5.0132,-5.0055,-4.9513,-4.9629,-5.0132,-5.0132,-5.0473,-5.0898,-5.0898,-5.0898,-5.0898,-5.0898,-5.0898,-5.0898,-5.0898,-5.0898,-5.0898,-5.0898,-5.0898,-5.0898,-5.0898,-5.0898,-5.0898,-5.0898,-5.0898,-5.1053,-5.1602,-5.1718,-5.1912,-5.2453,-5.2569,-5.2569,-5.2569,-5.2569,-5.2569,-5.2569,-5.2569,-5.2569,-5.2569,-5.2066,-5.1718,-5.1718,-5.1215,-5.0898,-5.0898,-5.0898,-5.0898,-5.0898,-5.0898,-5.0898,-5.0898,-5.1447,-5.1718,-5.1718,-5.1718,-5.1447,-5.0898,-5.0898,-5.0898,-5.0898,-5.0898,-5.0898,-3.1209,-3.3427,0.0,0.0,0.0,0.0,0.0,0.0,0.0,0.0,0.0,0.0,0.0,-5.3522,-5.3731,-5.3158,-5.3072,-5.2956,-5.2685,-5.2647,-5.2414,-5.1834,-5.1757,-5.1525,-5.0975,-5.0898,-5.0898,-5.0898,-5.0898,0.0,-5.0898,-5.0898,-5.0898,-5.0898,-5.0898,-5.0898,-5.0898,-5.0898,-5.0898,-5.0898,-5.0898,-5.0898,-5.0898,-5.0898,-5.0898,-5.0898,-5.0898,-5.0898,-5.0859,-5.0318,-5.0094,-5.0016,-4.9165,-4.9359,-5.0055,-4.9784,-5.0202,-5.0898,-5.0898,-5.0898,-5.0898,-5.0898,-5.0898,-5.0898,-5.0898,-5.0898,-5.0898,-5.0898,-5.0898,-5.0898,-5.0898,-5.113,-5.1331,-5.1331,-5.1563,-5.2028,-5.2879,-5.2616,-5.2461,-5.3343,-5.3498,-5.3498,-5.3498,-5.3498,-5.3498,-5.3498,-5.3498,-5.3498,-5.3498,-5.2995,-5.2655,-5.2655,-5.1873,-5.1447,-5.1757,-5.1486,-5.1447,-5.1757,-5.1486,-5.1486,-5.1757,-5.2066,-5.2345,-5.2616,-5.2655,-5.2337,-5.1757,-5.1169,-5.0898,-5.0898,-5.0898,-5.0898,0.0,0.0,0.0,0.0,0.0,0.0,0.0,0.0,0.0,0.0,0.0,0.0,0.0,0.0,0.0,-5.2152,-5.2152,-5.1873,-5.1014,-5.0898,-5.0898,-5.0898,-5.0898,-5.0898,-5.0898,-5.0898,-5.0898,-5.0898,-5.0898,-5.0898,-5.0898,-5.0898,-5.0898,-5.0898,-5.0898,-5.0898,-5.0898,-5.0898,-5.0898,-5.0898,-5.0898,-5.0898,-5.0898,-5.0898,-5.0898,-5.0898,-5.0898,-5.0898,-5.0898,-5.0859,-5.0859,-5.0782,-4.9939,-5.0132,-5.0782,-4.9977,-5.021,-5.0898,-5.0898,-5.0898,-5.0898,-5.0898,-5.0898,-5.0898,-5.0898,-5.0898,-5.0898,-5.0898,-5.0898,-5.0898,-5.0937,-5.1563,-5.2229,-5.2229,-5.2879,-5.373,-5.4619,-5.3459,-5.2539,-5.3382,-5.3575,-5.3575,-5.3575,-5.3575,-5.3575,-5.3575,-5.3575,-5.3575,-5.3575,-5.3536,-5.3536,-5.3536,-5.2732,-5.2539,-5.342,-5.2693,-5.2577,-5.342,-5.2732,-5.2616,-5.3459,-5.2724,-5.2647,-5.3536,-5.3536,-5.3536,-5.3536,-5.1796,-5.0937,-5.0937,-5.0898,-5.0898,-2.8371,0.0,0.0,0.0,0.0,0.0,0.0,0.0,0.0,0.0,0.0,0.0,0.0,0.0,0.0,0.0,-5.1254,-5.1177,-5.0937,-5.0898,-5.0898,-5.0898,-5.0898,-5.0898,-5.0898,-5.0898,-5.0898,0.0,-5.0898,-5.0898,-5.0898,-5.0898,-5.0898,-5.0898,-5.0898,-5.0898,-5.0898,-5.0898,-5.0898,-5.0898,-5.0898,-5.0898,-5.0898,-5.0898,-5.0898,-5.0898,-5.0898,-5.0898,-5.0859,-5.0279,-5.0016,-4.99,-4.8392,-4.874,-4.9939,-4.9088,-4.9668,-5.0898,-5.0898,-5.0898,-5.0898,-5.0898,-5.0898,-5.0898,-5.0898,-5.0898,-5.0898,-5.0898,-5.0898,-5.1053,-5.1679,-5.2028,-5.2345,-5.2995,-5.3304,-5.373,-5.4619,-5.4426,-5.431,-5.5161,-5.5316,-5.5316,-5.5316,-5.5316,-5.5316,-5.5316,-5.5316,-5.5316,-5.5316,-5.4813,-5.4426,-5.4426,-5.3111,-5.2539,-5.342,-5.2693,-5.2577,-5.342,-5.3265,-5.3265,-5.3498,-5.3884,-5.4194,-5.4426,-5.4426,-5.4426,-5.4426,-5.2685,-5.1834,-5.1834,-5.1169,-5.0898,-2.9075,-2.9631,-3.0153,-3.1708,0.0,0.0,-3.4311,-3.6328,0.0,0.0,0.0,0.0,0.0,0.0,0.0,0.0,-4.8314,-4.9281,-5.0705,-5.0898,-5.089,-5.0913,-5.0913,-5.0905,-5.085,-5.0866,-5.0913,-5.0913,-5.089,-5.0898,-5.0898,-5.0589,-5.055,-5.0898,-5.055,-5.055,-5.0898,-5.0898,-5.0898,-5.0898,-5.0898,-5.0898,-5.0898,-5.0898,-5.0898,-5.0859,-5.055,-5.0395,-5.0318,-4.9513,-4.9591,-5.0016,-4.8314,-4.8701,-5.0055,-4.8856,-4.9475,-5.0898,-5.0898,-5.0898,-5.0898,-5.0898,-5.0898,-5.0898,-5.0898,-5.0898,-5.0898,-5.0898,-5.0898,-5.1091,-5.195,-5.2461,-5.2956,-5.3846,-5.431,-5.4697,-5.52,-5.5316,-5.5432,-5.5896,-5.6012,-5.6012,-5.6012,-5.6012,-5.6012,-5.6012,-5.6012,-5.6012,-5.6012,-5.5586,-5.5316,-5.5316,-5.3768,-5.3227,-5.4426,-5.342,-5.3265,-5.4465,-5.4233,-5.4194,-5.4542,-5.4697,-5.4967,-5.5277,-5.5316,-5.4967,-5.4233,-5.2879,-5.1989,-5.1641,-5.113,-5.0898,-3.1493,-3.1538,-3.1433,-3.3738,-3.3594,0.0,-3.3682,-3.388,-3.4847,0.0,0.0,0.0,0.0,0.0,0.0,0.0,0.0,-4.6605,-4.9776,-5.0357,-5.0457,-5.0347,-5.0417,-5.0477,-5.0512,-5.0662,-5.0803,-5.088,-5.0805,-5.0782,-5.0782,-5.0016,-4.9977,-5.0859,-5.0132,-5.0094,-5.0898,-5.0898,-5.0898,-5.0898,-5.0898,-5.0898,-5.0898,-5.0898,-5.0898,-5.0859,-5.0047,-4.9699,-4.9629,-4.8732,-4.9274,-5.0473,-4.8894,-4.9281,-5.055,-4.8972,-4.9475,-5.0898,-5.0898,-5.0898,-5.0898,-5.0898,-5.0898,-5.0898,-5.0898,-5.0898,-5.0898,-5.0898,-5.0898,-5.113,-5.2105,-5.2917,-5.373,-5.4697,-5.547,-5.6012,-5.6012,-5.6012,-5.6012,-5.6012,-5.6012,-5.6012,-5.6012,-5.6012,-5.6012,-5.6012,-5.6012,-5.6012,-5.6012,-5.6012,-5.6012,-5.6012,-5.4503,-5.4194,-5.5857,-5.4465,-5.4233,-5.5896,-5.5316,-5.5238,-5.5973,-5.5316,-5.5277,-5.6012,-5.6012,-5.5238,-5.3652,-5.2763,-5.1834,-5.0898,-5.0898,-5.0898,-3.4443,-3.4109,-3.3595,-3.4102,-3.308,0.0,-3.05,-3.077,-3.1658,0.0,0.0,0.0,0.0,0.0,0.0,0.0,0.0,0.0,-4.5631,-4.697,-4.7573,-4.687,-4.738,-4.8012,-4.8737,-4.9401,-5.0074,-5.0841,-5.0302,-4.9939,-4.9939,-4.9126,-4.9359,-5.0859,-5.0132,-5.0094,-5.0898,-5.0898,-5.0898,-5.0898,-5.0898,-5.0898,-5.0898,-5.0898,-5.0898,-5.0859,-4.9977,-4.9637,-4.9622,-4.8709,-4.8555,-4.8778,-4.7773,-4.8392,-4.9823,-4.8778,-4.9475,-5.0898,-5.0898,-5.0898,-5.0898,-5.0898,-5.0898,-5.0898,-5.0898,-5.0898,-5.0898,-5.0898,-5.0898,-5.1246,-5.284,-5.3382,-5.3884,-5.5393,-5.5896,-5.6012,-5.6012,-5.6012,-5.6012,-5.6012,-5.6012,-5.6012,-5.6012,-5.6012,-5.6012,-5.6012,-5.6012,-5.6012,-5.6012,-5.6012,-5.6012,-5.6012,-5.4503,-5.4194,-5.5857,-5.4465,-5.4233,-5.5896,-5.5857,-5.5857,-5.6012,-5.5857,-5.5857,-5.6012,-5.6012,-5.5509,-5.4542,-5.3652,-5.2453,-5.0898,-5.0898,-5.0898,-3.6392,-3.6129,-3.545,-3.5509,-3.452,0.0,0.0,-3.1444,-3.1984,-3.2877,-3.4382,0.0,0.0,0.0,0.0,0.0,0.0,0.0,0.0,-4.3417,-4.5951,-4.6306,-4.6367,-4.6844,-4.809,-4.8184,-4.8604,-4.9534,-4.9211,-4.8987,-4.8987,-4.8184,-4.8485,-5.0146,-4.9412,-4.9613,-5.0874,-5.0913,-5.0882,-5.0898,-5.0898,-5.0898,-5.0898,-5.0898,-5.089,-5.0827,-4.9495,-4.89,-4.8839,-4.751,-4.6986,-4.7063,-4.71,-4.8159,-4.9591,-4.8701,-4.9475,-5.0898,-5.0898,-5.0898,-5.0898,-5.0898,-5.0898,-5.0898,-5.0898,-5.0898,-5.0898,-5.0898,-5.0898,-5.1285,-5.3033,-5.3498,-5.3923,-5.5586,-5.6012,-5.6012,-5.6012,-5.6012,-5.6012,-5.6012,-5.6012,-5.6012,-5.6012,-5.6012,-5.6012,-5.6012,-5.6012,-5.6012,-5.6012,-5.5664,-5.5393,-5.5393,-5.3884,-5.3382,-5.4658,-5.3575,-5.3382,-5.4658,-5.4735,-5.4967,-5.5393,-5.5393,-5.5586,-5.6012,-5.6012,-5.5586,-5.4813,-5.4349,-5.3265,-5.1563,-5.1563,-5.1331,-3.8623,-3.8238,-3.7399,-3.7312,-3.6388,-3.5046,0.0,0.0,0.0,-3.3394,0.0,0.0,0.0,0.0,0.0,0.0,0.0,0.0,0.0,0.0,0.0,-4.52,-4.5153,-4.5513,-4.6971,-4.6861,-4.6912,-4.7486,-4.7687,-4.7811,-4.7811,-4.7309,-4.7772,-4.947,-4.8891,-4.9294,-5.0872,-5.088,-5.0897,-5.0874,-5.0874,-5.0874,-5.0874,-5.0866,-5.0841,-5.0722,-4.8947,-4.8141,-4.8025,-4.6301,-4.564,-4.5773,-4.6544,-4.7927,-4.9359,-4.8662,-4.9475,-5.0898,-5.0898,-5.0898,-5.0898,-5.0898,-5.0898,-5.0898,-5.0898,-5.0898,-5.0898,-5.0898,-5.0898,-5.1246,-5.284,-5.3265,-5.3614,-5.5161,-5.5509,-5.5548,-5.5741,-5.578,-5.5818,-5.5973,-5.6012,-5.6012,-5.6012,-5.6012,-5.6012,-5.6012,-5.6012,-5.6012,-5.6012,-5.5432,-5.5045,-5.5045,-5.3459,-5.2879,-5.3884,-5.3033,-5.2879,-5.3923,-5.3962,-5.431,-5.5006,-5.5045,-5.5354,-5.6012,-5.6012,-5.5664,-5.5045,-5.5045,-5.4039,-5.219,-5.219,-5.1718,0.0,0.0,-3.99,-3.9207,-3.7245,-3.5045,-3.3327,0.0,-3.0704,-3.082,0.0,0.0,0.0,0.0,0.0,0.0,0.0,0.0,0.0,0.0,0.0,-3.9868,-4.1378,-4.2624,-4.3585,-4.4974,-4.5547,-4.49,-4.5549,-4.5997,-4.5997,-4.6645,-4.7764,-4.947,-4.9423,-4.9847,-5.0791,-5.0863,-5.0863,-5.0791,-5.0791,-5.0791,-5.0791,-5.0747,-5.0701,-5.0539,-4.8798,-4.8039,-4.7914,-4.6269,-4.5654,-4.5735,-4.5894,-4.6999,-4.8546,-4.843,-4.9475,-5.0898,-5.0898,-5.0898,-5.0898,-5.0898,-5.0898,-5.0898,-5.0898,-5.0898,-5.0898,-5.0898,-5.0898,-5.113,-5.2105,-5.2345,-5.2577,-5.3536,-5.3768,-5.4,-5.4774,-5.4929,-5.5161,-5.5857,-5.6012,-5.6012,-5.6012,-5.6012,-5.6012,-5.6012,-5.6012,-5.6012,-5.6012,-5.5935,-5.5857,-5.5857,-5.4349,-5.4,-5.5586,-5.4271,-5.4039,-5.5625,-5.5741,-5.578,-5.5857,-5.5857,-5.5896,-5.6012,-5.6012,-5.5973,-5.5857,-5.5857,-5.4619,-5.219,-5.219,-5.1718,0.0,0.0,0.0,0.0,0.0,-3.6238,-3.3506,-3.2737,-3.2583,0.0,0.0,0.0,0.0,0.0,0.0,0.0,-3.2429,0.0,0.0,0.0,0.0,0.0,0.0,0.0,-4.1508,-4.2263,-4.2541,-4.2156,-4.2941,-4.3643,-4.4144,-4.5453,-4.6955,-4.8612,-4.868,-4.9353,-5.0738,-5.0331,-5.0331,-5.0729,-5.0106,-5.0067,-5.0557,-4.9939,-4.9656,-4.9559,-4.782,-4.7093,-4.7047,-4.5937,-4.5568,-4.5662,-4.5757,-4.6883,-4.8392,-4.8392,-4.9475,-5.0898,-5.0898,-5.0898,-5.0898,-5.0898,-5.0898,-5.0898,-5.0898,-5.0898,-5.0898,-5.0898,-5.0898,-5.1207,-5.2608,-5.2956,-5.3304,-5.4619,-5.4581,-5.4465,-5.5316,-5.5122,-5.5045,-5.5857,-5.6012,-5.6012,-5.6012,-5.6012,-5.6012,-5.6012,-5.6012,-5.6012,-5.6012,-5.5586,-5.5316,-5.5316,-5.3768,-5.3227,-5.4465,-5.342,-5.3265,-5.4465,-5.5006,-5.5316,-5.5316,-5.5741,-5.6012,-5.6012,-5.6012,-5.6012,-5.6012,-5.6012,-5.4967,-5.2956,-5.2956,-5.2221,-4.3508,0.0,0.0,0.0,0.0,0.0,-3.3699,-3.3776,-3.4507,0.0,0.0,0.0,0.0,0.0,0.0,0.0,0.0,-3.1275,0.0,0.0,0.0,0.0,0.0,0.0,0.0,-3.9669,-3.99,-4.0169,-4.0777,-4.17,-4.3047,-4.471,-4.6278,-4.774,-4.824,-4.9067,-5.0336,-4.9767,-4.9874,-5.0654,-4.9573,-4.9526,-5.0331,-4.9293,-4.8841,-4.8803,-4.7091,-4.639,-4.638,-4.5676,-4.5611,-4.5958,-4.609,-4.7231,-4.874,-4.8508,-4.9475,-5.0898,-5.0898,-5.0898,-5.0898,-5.0898,-5.0898,-5.0898,-5.0898,-5.0898,-5.0898,-5.0898,-5.0898,-5.1246,-5.2763,-5.3141,-5.3481,-5.4951,-5.4663,-5.4345,-5.5388,-5.4972,-5.4701,-5.5775,-5.5968,-5.5968,-5.5968,-5.5995,-5.6012,-5.6012,-5.6012,-5.6012,-5.6012,-5.5509,-5.5122,-5.5122,-5.3807,-5.3265,-5.4116,-5.3382,-5.3265,-5.4116,-5.4774,-5.5122,-5.5122,-5.5702,-5.6012,-5.6012,-5.6012,-5.6012,-5.6012,-5.6012,-5.5277,-5.3846,-5.3614,-5.2569,0.0,0.0,0.0,-3.8892,0.0,0.0,0.0,0.0,-3.5231,0.0,0.0,0.0,0.0,0.0,-3.2929,-3.2852,0.0,0.0,0.0,0.0,0.0,0.0,0.0,0.0,0.0,-3.7584,-3.843,0.0,-3.9361,-4.0469,-4.297,-4.471,-4.6009,-4.6923,-4.8509,-4.9394,-4.9433,-4.9479,-4.9875,-5.0584,-4.9455,-4.9404,-5.0245,-4.9112,-4.8604,-4.8528,-4.6923,-4.6227,-4.6174,-4.5545,-4.588,-4.6767,-4.6978,-4.8121,-4.9552,-4.8701,-4.9475,-5.0898,-5.0898,-5.0898,-5.0898,-5.0898,-5.0898,-5.0898,-5.0898,-5.0898,-5.0898,-5.0898,-5.0898,-5.1091,-5.1989,-5.2189,-5.2387,-5.3275,-5.2815,-5.2625,-5.4284,-5.3937,-5.3869,-5.5557,-5.5905,-5.5905,-5.5905,-5.595,-5.6012,-5.6012,-5.6012,-5.6012,-5.6012,-5.5973,-5.5973,-5.5973,-5.52,-5.5045,-5.5857,-5.52,-5.5045,-5.5857,-5.5935,-5.5973,-5.5973,-5.6012,-5.6012,-5.6012,-5.6012,-5.6012,-5.6012,-5.6012,-5.5586,-5.4735,-5.3884,-5.2569,0.0,0.0,-4.2662,-4.0969,0.0,0.0,0.0,0.0,0.0,0.0,0.0,0.0,0.0,0.0,-3.5231,-3.4692,-3.2731,0.0,0.0,0.0,0.0,0.0,0.0,0.0,0.0,0.0,0.0,0.0,-3.7815,0.0,-4.1285,-4.3508,-4.5393,-4.6846,-4.7471,-4.8009,-4.8548,-4.8018,-4.8135,-4.8882,-4.7583,-4.7441,-4.8276,-4.7085,-4.6567,-4.6572,-4.5536,-4.5153,-4.5281,-4.5197,-4.5771,-4.6743,-4.6968,-4.8075,-4.9542,-4.9336,-4.9977,-5.0898,-5.0898,-5.0898,-5.0898,-5.0898,-5.0898,-5.0898,-5.0898,-5.0898,-5.0898,-5.0898,-5.0898,-5.1199,-5.2644,-5.2975,-5.3305,-5.4737,-5.4409,-5.4082,-5.5201,-5.4776,-5.4516,-5.5663,-5.5895,-5.5895,-5.5895,-5.5924,-5.5961,-5.5998,-5.5998,-5.6007,-5.6003,-5.6012,-5.6012,-5.6012,-5.5277,-5.5122,-5.5935,-5.5741,-5.5702,-5.5973,-5.6012,-5.5995,-5.5998,-5.5995,-5.5995,-5.5998,-5.5995,-5.5995,-5.5998,-5.5998,-5.5555,-5.4678,-5.4369,-5.3323,-4.521,-4.4355,0.0,-4.17,-4.0777,0.0,-3.5853,0.0,-3.8346,0.0,0.0,0.0,0.0,0.0,0.0,0.0,0.0,0.0,0.0,-2.8857,0.0,0.0,0.0,0.0,0.0,0.0,-3.5269,-3.5885,-3.6654,0.0,0.0,-4.22,-4.4085,-4.5509,-4.6423,-4.7154,-4.7663,-4.7154,-4.7261,-4.7969,-4.6639,-4.6455,-4.7273,-4.6038,-4.5499,-4.5499,-4.4772,-4.4537,-4.4764,-4.4946,-4.5846,-4.7124,-4.7326,-4.8407,-4.9881,-4.9705,-5.0162,-5.0858,-5.0858,-5.0858,-5.0858,-5.0858,-5.0858,-5.0858,-5.0858,-5.0858,-5.0858,-5.0858,-5.0858,-5.1236,-5.2949,-5.3356,-5.3792,-5.5461,-5.52,-5.4805,-5.5653,-5.5152,-5.4805,-5.5653,-5.5845,-5.5845,-5.5845,-5.5845,-5.5865,-5.5933,-5.5961,-5.5989,-5.6016,-5.5995,-5.6012,-5.6012,-5.5548,-5.5432,-5.5973,-5.6012,-5.6012,-5.6012,-5.5995,-5.6007,-5.6018,-5.5989,-5.5989,-5.6018,-5.5989,-5.5989,-5.6018,-5.6,-5.5663,-5.5046,-5.5046,-5.4158]},{"header":{"parameterUnit":"m.s-1","parameterCategory":1,"la1":30.6,"la2":29.2853,"lo1":-89.7004,"lo2":-87.6739,"dy":0.0162,"dx":0.0183,"nx":112,"ny":82,"refTime":"2026-04-22T12:00:00:Z","depth":0,"parameterNumber":3,"parameterNumberName":"V-component_of_WINDS"},"data":[0.0,0.0,0.0,0.0,0.0,0.0,0.0,0.0,0.0,0.0,0.0,0.0,0.0,0.0,0.0,0.0,0.0,0.0,0.0,0.0,0.0,0.0,0.0,0.0,0.0,0.0,0.0,0.0,0.0,0.0,0.0,0.0,0.0,0.0,0.0,0.0,0.0,0.0,0.0,0.0,0.0,0.0,0.0,0.0,0.0,0.0,0.0,0.0,0.0,0.0,0.0,0.0,0.0,0.0,0.0,0.0,0.0,0.0,0.0,0.0,0.0,0.0,0.0,0.0,0.0,0.0,0.0,0.0,0.0,0.0,0.0,0.0,0.0,0.0,0.0,0.0,0.0,0.0,0.0,0.0,0.0,0.0,0.0,0.0,0.0,0.0,0.0,0.0,0.0,0.0,0.0601,0.0798,0.0814,0.0852,0.0748,0.0289,0.0,0.0,0.0,0.0,0.0,0.0,0.0,0.0,0.0,0.0,0.0,0.0,0.0,0.0,0.0,0.0,0.0,0.0,0.0,0.0,0.0,0.0,0.0,0.0,0.0,0.0,0.0,0.0,0.0,0.0,0.0,0.0,0.0,0.0,0.0,0.0,0.0,0.0,0.0,0.0,0.0,0.0,0.0,0.0,0.0,0.0,0.0,0.0,0.0,0.0,0.0,0.0,0.0,0.0,0.0,0.0,0.0,0.0,0.0,0.0,0.0,0.0,0.0,0.0,0.0,0.0,0.0,0.0,0.0,0.0,0.0,0.0,0.0,0.0,0.0,0.0,0.0,0.0,0.0,0.0,0.0,0.0,0.0,0.0,0.0,0.0,0.0,0.0,0.0,0.0,0.0,0.0,0.0,0.0,0.0,0.0,0.0,0.0,0.0,0.0,0.0,0.0,0.0,0.0,0.0,0.0,0.0873,0.1512,0.1982,0.194,0.1286,0.0442,0.0,0.0,0.0,0.0,0.0,0.0,0.0,0.0,0.0,0.0,0.0,0.0,0.0,0.0,0.0,0.0,0.0,0.0,0.0,0.0,0.0,0.0,0.0,0.0,0.0,0.0,0.0,0.0,0.0,0.0,0.0,0.0,0.0,0.0,0.0,0.0,0.0,0.0,0.0,0.0,0.0,0.0,0.0,0.0,0.0,0.0,0.0,0.0,0.0,0.0,0.0,0.0,0.0,0.0,0.0,0.0,0.0,0.0,0.0,0.0,0.0,0.0,0.0,0.0,0.0,0.0,0.0,0.0,0.0,0.0,0.0,0.0,0.0,0.0,0.0,0.0,0.0,0.0,0.0,0.0,0.0,0.0,0.0,0.0,0.0,0.0,0.0,0.0,0.0,0.0,0.0,0.0,0.0,0.0,0.0,0.0,0.0,0.0,0.0,0.0,0.0,0.0,0.0,0.0,0.0,0.1849,0.2434,0.3171,0.3159,0.281,0.2209,0.1004,0.0339,0.0245,0.011,0.0,0.0,0.0,0.0,0.0,0.0,0.0,0.0,0.0,0.0,0.0,0.0,0.0,0.0,0.0,0.0,0.0,0.0,0.0,0.0,0.0,0.0,0.0,0.0,0.0,0.0,0.0,0.0,0.0,0.0,0.0,0.0,0.0,0.0,0.0,0.0,0.0,0.0,0.0,0.0,0.0,0.0,0.0,0.0,0.0,0.0,0.0,0.0,0.0,0.0,0.0,0.0,0.0,0.0,0.0,0.0,0.0,0.0,0.0,0.0,0.0,0.0,0.0,0.0,0.0,0.0,0.0,0.0,0.0,0.0,0.0,0.0,0.0,0.0,0.0,0.0,0.0,0.0,0.0,0.0,0.0,0.0,0.0,0.0,0.0,0.0,0.0,0.0,0.0,0.0,0.0,0.0,0.0,0.0,0.0,0.0,0.0,0.0,0.0,0.0,0.0,0.0,0.3712,0.4387,0.4858,0.458,0.4004,0.3355,0.1864,0.0844,0.0583,0.021,0.0,0.0,0.0,0.0,0.0,0.0,0.0,0.0,0.0,0.0,0.0,0.0,0.0,0.0,0.0,0.0,0.0,0.0,0.0,0.0,0.0,0.0,0.0,0.0,0.0,0.0,0.0,0.0,0.0,0.0,0.0,0.0,0.0,0.0,0.0,0.0,0.0,0.0,0.0,0.0,0.0,0.0,0.0,0.0,0.0,0.0,0.0,0.0,0.0,0.0,0.0,0.0,0.0,0.0,0.0,0.0,0.0,0.0,0.0,0.0,0.0,0.0,0.0,0.0,0.0,0.0,0.0,0.0,0.0,0.0,0.0,0.0,0.0,0.0,0.0,0.0,0.0,0.0,0.0,0.0,0.0,0.0,0.0,0.0,0.0,0.0,0.0,0.0,0.0,0.0,0.0,0.0,0.0,0.0,0.0,0.0,0.0,0.0,0.0,0.0,0.0,0.0,0.558,0.646,0.6224,0.655,0.6141,0.4504,0.2939,0.1671,0.0941,0.0348,0.0,0.0,0.0,0.0,0.0,0.0,0.0,0.0,0.0,0.0,0.0,0.0,0.0,0.0,0.0,0.0,0.0,0.0,0.0,0.0,0.0,0.0,0.0,0.0,0.0,0.0,0.0,0.0,0.0,0.0,0.0,0.0,0.0,0.0,0.0,0.0,0.0,0.0,0.0,0.0,0.0,0.0,0.0,0.0,0.0,0.0,0.0,0.0,0.0,0.0,0.0,0.0,0.0,0.0,0.0,0.0,0.0,0.0,0.0,0.0,0.0,0.0,0.0,0.0,0.0,0.0,0.0,0.0,0.0,0.0,0.0,0.0,0.0,0.0,0.0,0.0,0.0,0.0,0.0,0.0,0.0,0.0,0.0,0.0,0.0,0.0,0.0,0.0,0.0,0.0,0.0,0.0,0.0,0.0,0.0,0.0,0.0,0.0,0.0,0.0,0.0,0.0,0.6139,0.6964,0.0,0.7164,0.6589,0.5342,0.3719,0.2443,0.1732,0.0,0.0,0.0,0.0,0.0,0.0,0.0,0.0,0.0,0.0,0.0,0.0,0.0,0.0,0.0,0.0,0.0,0.0,0.0,0.0,0.0,0.0,0.0,0.0,0.0,0.0,0.0,0.0,0.0,0.0,0.0,0.0,0.0,0.0,0.0,0.0,0.0,0.0,0.0,0.0,0.0,0.0,0.0,0.0,0.0,0.0,0.0,0.0,0.0,0.0,0.0,0.0,0.0,0.0,0.0,0.0,0.0,0.0,0.0,0.0,0.0,0.0,0.0,0.0,0.0,0.0,0.0,0.0,0.0,0.0,0.0,0.0,0.0,0.0,0.0,0.0,0.0,0.0,0.0,0.0,0.0,0.0,0.0,0.0,0.0,0.0,0.0,0.0,0.0,0.0,0.0,0.0,0.0,0.0,0.0,0.0,0.0,0.0,0.0,0.0,0.0,0.0,0.5953,0.6827,0.7563,0.0,0.7785,0.7283,0.6271,0.4905,0.3695,0.2898,0.0,0.0,0.0,0.0,0.0,0.0,0.0,0.0,0.0,0.0,0.0,0.0,0.0,0.0,0.0,0.0,0.0,0.0,0.0,0.0,0.0,0.0,0.0,0.0,0.0,0.0,0.0,0.0,0.0,0.0,0.0,0.0,0.0,0.0,0.0,0.0,0.0,0.0,0.0,0.0,0.0,0.0,0.0,0.0,0.0,0.0,0.0,0.0,0.0,0.0,0.0,0.0,0.0,0.0,0.0,0.0,0.0,0.0,0.0,0.0,0.0,0.0,0.0,0.0,0.0,0.0,0.0,0.0,0.0,0.0,0.0,0.0,0.0,0.0,0.0,0.0,0.0,0.0,0.0,0.0,0.0,0.0,0.0,0.0,0.0,0.0,0.0,0.0,0.0,0.0,0.0,0.0,0.0,0.0,0.0,0.0,0.0,0.0,0.0,0.0,0.0,0.0,0.7117,0.7888,0.8459,0.8573,0.8693,0.8421,0.736,0.6575,0.5574,0.0,0.0,0.0,0.0,0.0,0.0,0.0,0.0,0.0,0.0,0.0,0.0,0.0,0.0,0.0,0.0,0.0,0.0,0.0,0.0,0.0,0.0,0.0,0.0,0.0,0.0,0.0,0.0,0.0,0.0,0.0,0.0,0.0,0.0,0.0,0.0,0.0,0.0,0.0,0.0,0.0,0.0,0.0,0.0,0.0,0.0,0.0,0.0,0.0,0.0,0.0,0.0,0.0,0.0,0.0,0.0,0.0,0.0,0.0,0.0,0.0,0.0,0.0,0.0,0.0,0.0,0.0,0.0,0.0,0.0,0.0,0.0,0.0,0.0,0.0,0.0,0.0,0.0,0.0,0.0,0.0,0.0,0.0,0.0,0.0,0.0,0.0,0.0,0.0,0.0,0.0,0.0,0.0,0.0,0.0,0.0,0.0,0.0,0.0,0.0,0.0,0.0,0.0,0.6942,0.7693,0.8209,0.8329,0.8448,0.8177,0.7453,0.6676,0.5859,0.4918,0.0,0.0,0.0,0.0,0.0,0.0,0.0,0.0,0.0,0.0,0.0,0.0,0.0,0.0,0.0,0.0,0.0,0.0,0.0,0.0,0.0,0.0,0.0,0.0,0.0,0.0,0.0,0.0,0.0,0.0,0.0,0.0,0.0,0.0,0.0,0.0,0.0,0.0,0.0,0.0,0.0,0.0,0.0,0.0,0.0,0.0,0.0,0.0,0.0,0.0,0.0,0.0,0.0,0.0,0.0,0.0,0.0,0.0,0.0,0.0,0.0,0.0,0.0,0.0,0.0,0.0,0.0,0.0,0.0,0.0,0.0,0.0,0.0,0.0,0.0,0.0,0.0,0.0,0.0,0.0,0.0,0.0,0.0,0.0,0.0,0.0,0.0,0.0,0.0,0.0,0.0,0.0,0.0,0.0,0.0,0.0,0.0,0.0,0.0,0.0,0.0,0.0,0.6817,0.754,0.803,0.8149,0.8274,0.8151,0.7654,0.716,0.6544,0.5741,0.0,0.0,0.0,0.0,0.0,0.0,0.0,0.0,0.0,0.0,0.0,0.0,0.0,0.0,0.0,0.0,0.0,0.0,0.0,0.0,0.0,0.0,0.0,0.0,0.0,0.0,0.0,0.0,0.0,0.0,0.0,0.0,0.0,0.0,0.0,0.0,0.0,0.0,0.0,0.0,0.0,0.0,0.0,0.0,0.0,0.0,0.0,0.0,0.0,0.0,0.0,0.0,0.0,0.0,0.0,0.0,0.0,0.0,0.0,0.0,0.0,0.0,0.0,0.0,0.0,0.0,0.0,0.0,0.0,0.0,0.0,0.0,0.0,0.0,0.0,0.0,0.0,0.0,0.0,0.0,0.0,0.0,0.0,0.0,0.0,0.0,0.0,0.0,0.0,0.0,0.0,0.0,0.0,0.0,0.0,0.0,0.0,0.0,0.0,0.0,0.0,0.0,0.6692,0.741,0.7899,0.807,0.8138,0.8122,0.7877,0.7752,0.7377,0.6665,0.0,0.0,0.0,0.0,0.0,0.0,0.0,0.0,0.0,0.0,0.0,0.0,0.0,0.0,0.0,0.0,0.0,0.0,0.0,0.0,0.0,0.0,0.0,0.0,0.0,0.0,0.0,0.0,0.0,0.0,0.0,0.0,0.0,0.0,0.0,0.0,0.0,0.0,0.0,0.0,0.0,0.0,0.0,0.0,0.0,0.0,0.0,0.0,0.0,0.0,0.0,0.0,0.0,0.0,0.0,0.0,0.0,0.0,0.0,0.0,0.7856,0.7714,0.0,0.0,0.0,0.0,0.0,0.0,0.0,0.0,0.0,0.0,0.0,0.0,0.0,0.0,0.0,0.0,0.0,0.0,0.0,0.0,0.0,0.0,0.0,0.0,0.0,0.0,0.0,0.0,0.0,0.0,0.0,0.0,0.0,0.0,0.0,0.0,0.0,0.0,0.0,0.0,0.6567,0.729,0.7747,0.7774,0.7964,0.7997,0.7758,0.7627,0.729,0.666,0.5988,0.0,0.0,0.0,0.0,0.0,0.0,0.0,0.0,0.0,0.0,0.0,0.0,0.0,0.0,0.0,0.0,0.0,0.0,0.0,0.0,0.0,0.0,0.0,0.0,0.0,0.0,0.0,0.0,0.0,0.0,0.0,0.0,0.0,0.0,0.0,0.0,0.0,0.0,0.0,0.0,0.0,0.0,0.0,0.0,0.0,0.0,0.0,0.0,0.0,0.0,0.0,0.0,0.0,0.0,0.0,0.0,0.0,0.0,0.0,0.8448,0.8247,0.0,0.0,0.0,0.0,0.0,0.0,0.0,0.0,0.0,0.0,0.0,0.0,0.0,0.0,0.0,0.0,0.0,0.0,0.0,0.0,0.0,0.0,0.0,0.0,0.0,0.0,0.0,0.0,0.0,0.0,0.0,0.0,0.0,0.0,0.0,0.0,0.0,0.0,0.0,0.0,0.6513,0.71,0.7486,0.76,0.7725,0.7725,0.754,0.747,0.7198,0.6654,0.617,0.0,0.0,0.0,0.0,0.0,0.0,0.0,0.0,0.0,0.0,0.0,0.0,0.0,0.0,0.0,0.0,0.0,0.0,0.0,0.0,0.0,0.0,0.0,0.0,0.0,0.0,0.0,0.0,0.0,0.0,0.0,0.0,0.0,0.0,0.0,0.0,0.0,0.0,0.0,0.0,0.0,0.0,0.0,0.0,0.0,0.0,0.0,0.0,0.0,0.0,0.0,0.0,0.0,0.9372,0.9438,0.9465,0.9563,0.9622,0.9622,0.9204,0.897,0.8878,0.8617,0.0,0.0,0.0,0.0,0.0,0.0,0.0,0.0,0.0,0.0,0.0,0.0,0.0,0.0,0.0,0.0,0.0,0.0,0.0,0.0,0.0,0.0,0.7232,0.7002,0.6926,0.6757,0.6257,0.0,0.0,0.0,0.0,0.0,0.0,0.0,0.0,0.0,0.0,0.0,0.6469,0.6921,0.7298,0.7464,0.7508,0.747,0.7288,0.7317,0.7105,0.6649,0.6301,0.5909,0.0,0.0,0.0,0.0,0.0,0.0,0.0,0.0,0.0,0.0,0.0,0.0,0.0,0.0,0.0,0.0,0.0,0.0,0.0,0.0,0.0,0.0,0.0,0.0,0.0,0.0,0.0,0.0,0.0,0.0,0.0,0.0,0.9686,0.9355,0.0,0.0,0.0,0.0,0.0,0.0,0.0,0.0,0.0,0.0,0.0,0.0,0.0,0.9188,0.9188,0.9443,0.9633,0.9748,0.9867,0.9981,1.0085,1.0101,1.0166,1.0259,1.009,0.0,0.9367,0.9024,0.0,0.0,0.0,0.0,0.0,0.0,0.0,0.0,0.0,0.0,0.0,0.0,0.0,0.0,0.0,0.0,0.0,0.0,0.0,0.0,0.0,0.0,0.7491,0.7568,0.7421,0.7185,0.711,0.6673,0.6225,0.6034,0.5773,0.548,0.0,0.0,0.0,0.0,0.0,0.0,0.6317,0.6866,0.7209,0.7288,0.7453,0.747,0.7288,0.7241,0.7018,0.6643,0.6382,0.6078,0.5659,0.5224,0.0,0.0,0.0,0.0,0.0,0.0,0.0,0.0,0.0,0.0,0.0,0.0,0.0,0.0,0.0,0.0,0.0,0.0,0.0,0.0,0.0,0.0,0.0,0.0,0.0,0.0,0.0,0.0,0.0,0.9032,0.8992,0.8781,0.8798,0.8601,0.0,0.0,0.0,0.0,0.0,0.0,0.0,0.0,0.0,0.9019,0.9601,0.9943,1.0008,1.0318,1.0498,1.0552,1.0666,1.0721,1.071,1.0775,1.0759,1.0683,1.0628,1.0373,0.9954,0.9459,0.9111,0.8829,0.0,0.0,0.0,0.0,0.7822,0.7954,0.8002,0.7992,0.7943,0.7926,0.0,0.0,0.0,0.0,0.0,0.0,0.0,0.7018,0.7432,0.7627,0.7714,0.7703,0.7622,0.7502,0.7309,0.7072,0.6781,0.6458,0.6083,0.5714,0.5349,0.4947,0.0,0.0,0.0,0.5703,0.6306,0.6681,0.6899,0.7024,0.7084,0.7095,0.704,0.6986,0.6861,0.6632,0.6458,0.623,0.5942,0.5491,0.513,0.0,0.0,0.0,0.0,0.0,0.0,0.0,0.0,0.0,0.0,0.0,0.0,0.0,0.0,0.0,0.0,0.0,0.0,0.0,0.0,0.0,0.0,0.0,0.0,0.0,0.0,0.0,0.0,0.8595,0.8628,0.8606,0.8704,0.8677,0.0,0.0,0.0,0.0,0.0,0.0,0.8807,0.9242,0.9541,0.9666,1.0193,1.0514,1.0601,1.0905,1.1041,1.1009,1.1128,1.1139,1.1058,1.1145,1.1085,1.0916,1.0857,1.0661,1.0346,0.9835,0.9481,0.9215,0.8638,0.841,0.8541,0.8416,0.8432,0.8513,0.8541,0.8552,0.8541,0.8383,0.8111,0.7703,0.7491,0.0,0.0,0.0,0.0,0.7279,0.7616,0.7763,0.7812,0.7758,0.7725,0.7644,0.7426,0.7334,0.7165,0.6747,0.635,0.5975,0.5659,0.5279,0.0,0.0,0.0,0.5788,0.6317,0.6495,0.6665,0.679,0.6801,0.6801,0.6801,0.6774,0.6714,0.6627,0.6475,0.6301,0.6094,0.5696,0.534,0.5023,0.0,0.0,0.0,0.0,0.0,0.0,0.0,0.0,0.0,0.0,0.0,0.0,0.0,0.0,0.0,0.0,0.0,0.0,0.0,0.0,0.0,0.0,0.0,0.0,0.0,0.0,0.0,0.0,0.0,0.9073,0.9198,0.0,0.0,0.0,0.0,0.882,0.8949,0.9193,0.9427,0.9786,1.0041,1.0166,1.0525,1.0721,1.0726,1.0862,1.0873,1.0759,1.0878,1.0933,1.0927,1.0933,1.0933,1.0905,1.0677,1.0503,1.0367,1.0101,0.9856,0.9595,0.9106,0.8852,0.8841,0.8791,0.8747,0.8769,0.8883,0.8857,0.8852,0.8847,0.8437,0.7839,0.772,0.7345,0.0,0.0,0.7266,0.7383,0.7638,0.7703,0.7736,0.7839,0.778,0.7665,0.7535,0.7328,0.7144,0.6839,0.6681,0.6469,0.6111,0.0,0.5686,0.5855,0.5882,0.6018,0.6338,0.6495,0.6665,0.679,0.6801,0.6801,0.6801,0.6698,0.6627,0.6622,0.6404,0.6219,0.6089,0.5696,0.534,0.5023,0.4659,0.0,0.0,0.0,0.0,0.0,0.0,0.0,0.0,0.0,0.0,0.0,0.0,0.0,0.0,0.0,0.0,0.0,0.0,0.0,0.0,0.0,0.0,0.0,0.0,0.0,0.0,0.0,0.0,0.9351,0.9601,0.0,0.9461,0.9237,0.9182,0.9424,0.9633,0.9807,1.0052,1.0405,1.0617,1.0661,1.0867,1.0971,1.0971,1.1014,1.1014,1.0971,1.1014,1.1036,1.1036,1.1036,1.0949,1.0797,1.071,1.052,1.0264,1.0172,0.9998,0.9737,0.9334,0.9177,0.9166,0.9046,0.9003,0.9019,0.9139,0.9177,0.9139,0.891,0.8557,0.8187,0.7986,0.7703,0.7481,0.7638,0.7627,0.7611,0.7769,0.7812,0.7818,0.7861,0.7785,0.7665,0.7546,0.7388,0.7203,0.6964,0.6757,0.6551,0.6344,0.6181,0.6089,0.6132,0.6138,0.6208,0.636,0.6425,0.6468,0.6562,0.6567,0.6567,0.6567,0.6458,0.6393,0.6393,0.6241,0.6132,0.6089,0.5888,0.5599,0.5324,0.5007,0.4643,0.0,0.0,0.0,0.0,0.0,0.0,0.0,0.0,0.0,0.0,0.0,0.0,0.0,0.0,0.0,0.0,0.0,0.0,0.0,0.0,0.0,0.0,0.0,0.0,0.0,0.9068,0.9579,0.9655,0.9949,1.0095,0.997,0.9671,0.9633,0.9992,1.0057,1.0204,1.0492,1.0726,1.0878,1.0916,1.0998,1.1041,1.1041,1.1041,1.102,1.0976,1.0976,1.0976,1.0976,1.0938,1.0829,1.0672,1.059,1.0422,1.0199,1.0161,1.0019,0.9813,0.9536,0.9427,0.941,0.9247,0.9193,0.9204,0.928,0.9253,0.9144,0.891,0.8644,0.8388,0.8225,0.804,0.7888,0.7921,0.7877,0.7828,0.7861,0.7845,0.7812,0.7812,0.7693,0.7557,0.7475,0.7361,0.723,0.7073,0.685,0.6643,0.6468,0.6404,0.6323,0.6323,0.6323,0.635,0.6376,0.6387,0.6387,0.6387,0.6387,0.6371,0.6382,0.6312,0.63,0.6257,0.6056,0.5969,0.5969,0.585,0.561,0.5335,0.5018,0.4713,0.4503,0.0,0.0,0.0,0.0,0.0,0.0,0.0,0.0,0.0,0.0,0.0,0.0,0.0,0.0,0.0,0.0,0.0,0.0,0.0,0.0,0.0,0.0,0.0,0.8747,0.9302,0.9764,0.9998,1.0248,1.0351,1.0231,1.0003,1.0008,1.0373,1.0286,1.0367,1.0721,1.0737,1.0791,1.0911,1.0916,1.0916,1.0916,1.0916,1.0851,1.0732,1.0732,1.0732,1.0721,1.0606,1.0629,1.053,1.0302,1.0199,1.0188,1.0063,0.9943,0.9824,0.9715,0.9666,0.9633,0.9394,0.9302,0.9302,0.9302,0.915,0.8884,0.8884,0.8642,0.8421,0.8421,0.8334,0.8209,0.8095,0.8114,0.8081,0.796,0.7785,0.7703,0.7703,0.7513,0.7277,0.7277,0.7241,0.721,0.7204,0.6964,0.6763,0.6643,0.6468,0.6387,0.6387,0.6387,0.0,0.6387,0.6387,0.6387,0.6387,0.6381,0.6388,0.6328,0.6311,0.6251,0.6083,0.5855,0.568,0.568,0.5567,0.534,0.5029,0.4664,0.4509,0.4503,0.0,0.0,0.0,0.0,0.0,0.0,0.0,0.0,0.0,0.0,0.0,0.0,0.0,0.0,0.0,0.0,0.0,0.0,0.0,0.0,0.0,0.8361,0.8758,0.8997,0.9546,0.9981,1.0134,1.0443,1.0628,1.0596,1.0449,1.0438,1.0628,1.053,1.0541,1.0726,1.0737,1.0753,1.0786,1.0786,1.0786,1.0786,1.0786,1.0726,1.0606,1.0606,1.0563,1.0481,1.0449,1.0384,1.0297,1.0231,1.015,1.0063,0.9938,0.9867,0.9824,0.9715,0.9617,0.9519,0.9362,0.9302,0.9302,0.9302,0.915,0.8884,0.8884,0.8764,0.8541,0.8541,0.8399,0.8161,0.8193,0.8057,0.7977,0.7939,0.7785,0.7703,0.7703,0.7513,0.7277,0.7277,0.7241,0.7188,0.7046,0.691,0.679,0.6757,0.6578,0.6387,0.6387,0.6387,0.0,0.6387,0.6387,0.6387,0.6387,0.6366,0.6301,0.6322,0.6105,0.5953,0.5839,0.5642,0.5518,0.5474,0.5481,0.5378,0.5143,0.4871,0.4648,0.0,0.0,0.0,0.0,0.0,0.0,0.0,0.0,0.0,0.0,0.0,0.0,0.0,0.0,0.0,0.0,0.0,0.0,0.0,0.0,0.0,0.0,0.8758,0.9155,0.9394,0.9769,1.0085,1.0259,1.0503,1.0661,1.0661,1.0552,1.0536,1.065,1.0552,1.0558,1.0726,1.0737,1.0737,1.0737,1.0737,1.071,1.0661,1.0661,1.0601,1.0487,1.0487,1.0449,1.0384,1.0335,1.0269,1.0199,1.0095,1.0008,0.9932,0.9818,0.9737,0.9682,0.0,0.0,0.0,0.0,0.9302,0.9302,0.9302,0.915,0.8884,0.8884,0.8785,0.859,0.859,0.8459,0.8301,0.8183,0.8095,0.7999,0.7944,0.7747,0.7627,0.7627,0.7437,0.7258,0.7258,0.7165,0.7117,0.6997,0.6844,0.0,0.6725,0.6562,0.6387,0.6387,0.6387,0.6387,0.6387,0.6387,0.6387,0.6387,0.6333,0.6295,0.6246,0.6013,0.0,0.0,0.0,0.5442,0.5413,0.5436,0.0,0.0,0.0,0.0,0.0,0.0,0.0,0.0,0.4186,0.4334,0.0,0.0,0.0,0.0,0.0,0.0,0.0,0.0,0.0,0.0,0.0,0.0,0.0,0.0,0.0,0.0,0.9204,0.9584,0.9807,0.9943,1.0106,1.034,1.0465,1.0618,1.0618,1.0443,1.0433,1.0629,1.046,1.0503,1.0726,1.0737,0.0,0.0,0.0,1.0666,1.0639,1.0623,1.0481,1.0367,1.0367,1.0356,1.034,1.0215,1.0161,1.015,0.9921,0.9818,0.9807,0.9699,0.9579,0.9465,0.9465,0.9465,0.9454,0.9345,0.9296,0.9285,0.9285,0.0,0.0,0.8863,0.8774,0.859,0.859,0.8497,0.8372,0.8199,0.8138,0.807,0.796,0.7698,0.7519,0.7519,0.7334,0.721,0.721,0.7122,0.698,0.697,0.6779,0.6616,0.66,0.6457,0.6387,0.6387,0.6387,0.6387,0.6387,0.6387,0.6387,0.6387,0.0,0.0,0.6094,0.5964,0.5833,0.5675,0.5496,0.5418,0.5429,0.5418,0.5418,0.5429,0.517,0.5002,0.4855,0.4855,0.4866,0.4871,0.4816,0.4876,0.0,0.0,0.0,0.0,0.0,0.0,0.0,0.0,0.0,0.0,0.0,0.0,0.0,0.0,0.0,0.8997,0.9383,0.9682,0.9818,0.9943,1.0074,1.0221,1.0346,1.0416,1.0416,1.04,1.0433,1.0629,1.0618,1.0585,1.0732,1.0737,1.0737,1.0737,1.0645,1.0579,1.0639,1.0465,1.0356,1.0237,1.0237,0.0,1.0085,0.9965,0.9905,0.99,0.9764,0.9704,0.9693,0.9574,0.9449,0.934,0.934,0.934,0.9334,0.9313,0.9247,0.9166,0.9166,0.9008,0.8807,0.8807,0.8709,0.859,0.859,0.8437,0.0,0.8178,0.8079,0.796,0.7877,0.7698,0.7519,0.7519,0.7334,0.721,0.721,0.7122,0.6953,0.6855,0.6719,0.6589,0.6435,0.6403,0.6387,0.6387,0.6387,0.6387,0.6387,0.6387,0.6387,0.6387,0.6246,0.6111,0.6089,0.5888,0.5669,0.5551,0.5453,0.5415,0.547,0.542,0.5415,0.547,0.5377,0.5331,0.5268,0.5268,0.5317,0.5367,0.5186,0.5199,0.0,0.0,0.0,0.0,0.0,0.0,0.0,0.0,0.0,0.0,0.0,0.8062,0.8356,0.0,0.9046,0.9351,0.9601,0.9796,0.9911,0.9981,1.0063,1.0188,1.0259,1.0297,1.0297,1.0297,1.0346,1.046,1.0471,1.0547,1.0726,1.0677,1.0645,1.0645,1.053,1.0443,1.0378,1.0324,1.0231,1.0112,1.0052,0.9987,0.9927,0.9807,0.9753,0.9748,0.9628,0.9579,0.9568,0.9449,0.9356,0.9302,0.9302,0.9269,0.922,0.922,0.9144,0.8971,0.8971,0.8921,0.8769,0.8769,0.8687,0.8579,0.8519,0.8378,0.822,0.816,0.8013,0.7856,0.7801,0.7655,0.7502,0.7442,0.7285,0.721,0.721,0.7018,0.6877,0.6812,0.6654,0.6457,0.6398,0.6387,0.6387,0.6387,0.6387,0.6387,0.6387,0.6387,0.6365,0.6361,0.6192,0.6062,0.6002,0.5833,0.5637,0.5518,0.5551,0.5551,0.5508,0.5551,0.5551,0.5508,0.5448,0.5431,0.5413,0.5431,0.5448,0.5508,0.5443,0.5496,0.0,0.0,0.0,0.0,0.0,0.0,0.0,0.766,0.7725,0.7964,0.8285,0.8595,0.8829,0.9166,0.947,0.9671,0.9818,0.9932,1.0008,0.9998,1.0019,1.0123,1.0155,1.0166,1.0166,1.0188,1.0242,1.034,1.0373,1.0471,1.0655,1.0574,1.0525,1.0525,1.0411,1.0291,1.0172,1.0144,1.0068,0.9954,0.9851,0.9807,0.9802,0.9688,0.9633,0.9628,0.9503,0.9454,0.9443,0.9345,0.9291,0.9269,0.9269,0.9188,0.9068,0.9117,0.9041,0.8847,0.8847,0.884,0.8736,0.8736,0.8655,0.8535,0.8448,0.8318,0.8182,0.8147,0.8026,0.7845,0.7731,0.7611,0.7486,0.7309,0.7241,0.721,0.721,0.697,0.6801,0.6801,0.6605,0.6387,0.6387,0.6387,0.6387,0.6387,0.6387,0.6387,0.6387,0.6365,0.6372,0.6328,0.6138,0.6002,0.5882,0.5739,0.5648,0.5551,0.5637,0.5648,0.5545,0.5637,0.5642,0.5545,0.554,0.5497,0.5442,0.5497,0.554,0.5545,0.5642,0.5691,0.6784,0.7616,0.8021,0.8048,0.8073,0.8091,0.0,0.8091,0.822,0.8459,0.8709,0.8895,0.9198,0.9536,0.9786,0.9813,1.0014,1.0128,1.0036,0.9927,0.9862,0.9878,0.9976,1.0041,1.0041,1.0139,1.021,1.0221,1.0324,1.04,1.0422,1.0411,1.0405,1.0405,1.0286,1.0166,1.0041,0.9932,0.9818,0.9709,0.9693,0.9688,0.9682,0.9563,0.9508,0.9503,0.9378,0.9323,0.9323,0.9307,0.9242,0.9155,0.9155,0.9014,0.884,0.9057,0.8986,0.8791,0.8791,0.8709,0.8606,0.8606,0.853,0.8437,0.8421,0.8258,0.8136,0.8119,0.8026,0.7845,0.7731,0.7611,0.7486,0.7309,0.7241,0.721,0.721,0.697,0.6801,0.6801,0.6605,0.6387,0.6387,0.6387,0.6387,0.6387,0.6387,0.6387,0.6387,0.635,0.6333,0.6317,0.6062,0.5877,0.5718,0.5696,0.5686,0.5669,0.568,0.5686,0.5669,0.568,0.568,0.5669,0.5669,0.5664,0.5648,0.5664,0.5669,0.5669,0.568,0.5691,0.7231,0.8051,0.8383,0.8519,0.8617,0.8758,0.8758,0.8812,0.8905,0.9079,0.9302,0.9424,0.9595,0.9796,0.9943,0.9943,1.003,1.0052,0.9932,0.9867,0.9813,0.9748,0.9786,0.984,0.9905,1.0025,1.0128,1.0199,1.0253,1.0313,1.0384,1.0318,1.028,1.028,1.009,0.9965,0.9916,0.9796,0.9715,0.9666,0.9595,0.9563,0.9557,0.9438,0.9378,0.9378,0.9329,0.9264,0.9204,0.9204,0.9133,0.896,0.896,0.8921,0.8785,0.8883,0.8812,0.8666,0.8666,0.8628,0.8579,0.8508,0.8454,0.8394,0.8247,0.8196,0.8103,0.8032,0.7971,0.7828,0.7644,0.7557,0.747,0.7274,0.7248,0.721,0.721,0.697,0.6801,0.6801,0.6605,0.6387,0.6387,0.6387,0.6387,0.6387,0.6387,0.6387,0.6387,0.6339,0.6262,0.6072,0.5904,0.5739,0.5691,0.5691,0.5691,0.5691,0.5691,0.5691,0.5691,0.5691,0.5691,0.5691,0.5691,0.5691,0.5691,0.5691,0.5691,0.5691,0.5691,0.5691,0.7185,0.7802,0.807,0.8385,0.8625,0.8831,0.9011,0.9197,0.9329,0.9416,0.9574,0.9699,0.9737,0.984,0.9921,0.9921,0.9976,0.9965,0.9813,0.9791,0.9748,0.9633,0.9617,0.965,0.9731,0.9878,1.0008,1.0095,1.0134,1.0193,1.028,1.0199,1.0139,1.0101,0.9932,0.9807,0.9742,0.9661,0.9601,0.9568,0.9476,0.9438,0.9432,0.9313,0.9237,0.9204,0.9204,0.916,0.9014,0.9014,0.8944,0.8899,0.8899,0.8829,0.872,0.872,0.8666,0.859,0.859,0.8568,0.8524,0.8443,0.8372,0.8285,0.8169,0.8092,0.8048,0.7955,0.7872,0.7818,0.7578,0.7519,0.7459,0.727,0.721,0.721,0.721,0.697,0.6801,0.6801,0.6605,0.6387,0.6387,0.6387,0.6387,0.6387,0.6387,0.6387,0.6387,0.6306,0.6127,0.5882,0.5739,0.5691,0.5691,0.5691,0.5691,0.5691,0.5691,0.5691,0.5691,0.5691,0.5691,0.5691,0.5691,0.5691,0.5691,0.5691,0.5691,0.5691,0.5691,0.5691,0.6259,0.6439,0.6708,0.7406,0.7842,0.8237,0.8788,0.9097,0.9307,0.9307,0.9313,0.9356,0.9476,0.9595,0.9682,0.9682,0.9873,0.9938,0.9709,0.9677,0.9628,0.9508,0.9492,0.9492,0.9497,0.9709,0.9845,0.9851,0.996,1.0025,1.003,1.0025,0.997,0.9851,0.984,0.9726,0.9497,0.9492,0.9432,0.9313,0.9313,0.9307,0.9307,0.9193,0.9003,0.8895,0.8895,0.889,0.889,0.889,0.8889,0.8774,0.8774,0.8704,0.8595,0.8595,0.859,0.859,0.859,0.8513,0.8421,0.8421,0.8258,0.8125,0.8119,0.8032,0.7877,0.7872,0.7872,0.7818,0.7578,0.7519,0.7459,0.727,0.721,0.721,0.721,0.697,0.6801,0.6801,0.6605,0.6387,0.6387,0.6387,0.6387,0.6387,0.6387,0.6387,0.6387,0.6236,0.6002,0.5718,0.5691,0.5691,0.5691,0.5691,0.5691,0.5691,0.5691,0.5691,0.5691,0.5691,0.5691,0.5691,0.5691,0.5691,0.5691,0.5691,0.5691,0.5691,0.5691,0.5691,0.4818,0.4965,0.5177,0.5773,0.6708,0.7686,0.8113,0.8955,0.9612,0.9459,0.9362,0.9318,0.9356,0.934,0.9367,0.9525,0.9682,0.9758,0.9682,0.9671,0.9622,0.9503,0.9416,0.9367,0.9367,0.9584,0.0,0.9726,0.9835,0.9867,0.9791,0.9856,0.9845,0.9731,0.9644,0.9568,0.9487,0.9405,0.9345,0.9302,0.9226,0.9193,0.9188,0.8998,0.8922,0.8884,0.8884,0.8905,0.8834,0.8834,0.8758,0.8649,0.8649,0.8622,0.859,0.859,0.8541,0.8475,0.8475,0.8399,0.8285,0.8204,0.8185,0.8103,0.8021,0.7966,0.7872,0.7872,0.7818,0.772,0.7562,0.7459,0.7355,0.7248,0.721,0.7188,0.7111,0.6915,0.6779,0.6698,0.65,0.6387,0.6387,0.6387,0.6387,0.6387,0.6372,0.6295,0.6214,0.6062,0.5904,0.5707,0.5691,0.5691,0.5691,0.5691,0.5691,0.5691,0.5691,0.5691,0.5691,0.5691,0.5691,0.5691,0.5691,0.5691,0.5691,0.5691,0.5691,0.5691,0.5691,0.5729,0.342,0.3464,0.371,0.4381,0.5515,0.6543,0.7182,0.8244,0.9191,0.9069,0.903,0.9003,0.9041,0.8954,0.8954,0.9193,0.9405,0.9525,0.9481,0.9552,0.9557,0.9438,0.9351,0.9302,0.9302,0.9449,0.0,0.9601,0.9671,0.9699,0.9671,0.9737,0.9726,0.9606,0.953,0.9465,0.9421,0.9345,0.9285,0.9242,0.9171,0.909,0.9003,0.8921,0.8861,0.8823,0.8823,0.8774,0.8704,0.8704,0.866,0.859,0.859,0.8562,0.8524,0.8524,0.8426,0.8301,0.8388,0.8312,0.8155,0.8141,0.8086,0.8037,0.7955,0.7872,0.7872,0.7872,0.779,0.7671,0.7551,0.7426,0.7307,0.7237,0.721,0.7188,0.7117,0.6915,0.6779,0.6698,0.65,0.6387,0.6387,0.6387,0.6387,0.6387,0.6301,0.6176,0.6094,0.598,0.586,0.5702,0.5691,0.5691,0.5691,0.5691,0.5691,0.5691,0.5691,0.5691,0.5691,0.5691,0.5691,0.5691,0.5691,0.5691,0.5691,0.5691,0.5691,0.5691,0.5691,0.5795,0.2094,0.2098,0.2315,0.3247,0.4089,0.4962,0.6002,0.7195,0.8041,0.8143,0.823,0.8421,0.0,0.0,0.8465,0.8715,0.9052,0.9253,0.9155,0.934,0.9443,0.0,0.9307,0.9302,0.9302,0.9302,0.0,0.947,0.0,0.9536,0.9644,0.9655,0.9606,0.9481,0.9476,0.9421,0.9307,0.9296,0.9242,0.9133,0.9122,0.8992,0.8769,0.8764,0.8698,0.859,0.859,0.859,0.859,0.859,0.859,0.859,0.8579,0.8513,0.8416,0.841,0.8258,0.8152,0.8318,0.8242,0.8108,0.8108,0.8026,0.7872,0.7872,0.7867,0.7861,0.7861,0.7774,0.7655,0.754,0.7421,0.7296,0.7237,0.721,0.721,0.7204,0.6964,0.6801,0.6796,0.66,0.6387,0.6387,0.6387,0.6387,0.6387,0.6236,0.6083,0.6083,0.5975,0.5855,0.5702,0.5691,0.5691,0.5691,0.5691,0.5691,0.5691,0.5691,0.5691,0.5691,0.5691,0.5691,0.5691,0.5691,0.5691,0.5691,0.5691,0.5691,0.5691,0.5691,0.5795,0.0581,0.0524,0.0688,0.1227,0.2224,0.3268,0.4036,0.5774,0.7134,0.7121,0.7596,0.8019,0.8046,0.7959,0.0,0.8437,0.8807,0.0,0.9242,0.9389,0.0,0.9443,0.9362,0.9302,0.9302,0.9302,0.0,0.0,0.9432,0.9459,0.94,0.9487,0.9476,0.9356,0.9351,0.9334,0.9302,0.922,0.916,0.9133,0.8948,0.8829,0.8769,0.8677,0.8617,0.859,0.859,0.859,0.859,0.859,0.859,0.8579,0.8492,0.8443,0.8405,0.8318,0.8187,0.8125,0.8191,0.8108,0.7977,0.7977,0.7955,0.7872,0.7872,0.7812,0.7747,0.7747,0.7589,0.7421,0.7331,0.729,0.7192,0.7215,0.721,0.7188,0.7046,0.691,0.6774,0.6681,0.6489,0.6387,0.6387,0.6387,0.6387,0.6387,0.6236,0.6083,0.6083,0.5904,0.5723,0.5691,0.5691,0.5691,0.5691,0.5691,0.5691,0.5691,0.5691,0.5691,0.5691,0.5691,0.5691,0.5691,0.5691,0.5691,0.5691,0.5691,0.5691,0.5691,0.5691,0.5844,0.0,0.0,0.0078,0.0537,0.1294,0.2174,0.2941,0.4591,0.6057,0.6273,0.6924,0.7497,0.7604,0.7502,0.76,0.0,0.0,0.0,0.9035,0.922,0.9351,0.0,0.9345,0.0,0.9302,0.9302,0.9302,0.0,0.9367,0.9378,0.9307,0.9367,0.9378,0.9307,0.9302,0.928,0.9231,0.9166,0.9079,0.8976,0.8834,0.8742,0.8687,0.8617,0.859,0.859,0.859,0.8557,0.8513,0.8513,0.8481,0.8426,0.8361,0.8307,0.8253,0.8182,0.8079,0.8037,0.8037,0.7988,0.7872,0.7872,0.7872,0.7872,0.7872,0.779,0.7703,0.7703,0.7524,0.7277,0.7277,0.7247,0.721,0.721,0.721,0.7193,0.7128,0.6921,0.6752,0.6573,0.643,0.6387,0.6387,0.6387,0.6387,0.6387,0.6285,0.6149,0.6094,0.5882,0.5691,0.5691,0.5691,0.5691,0.5691,0.5691,0.5691,0.5691,0.5691,0.5691,0.5691,0.5691,0.5691,0.5691,0.5691,0.5691,0.5691,0.5691,0.5691,0.5691,0.5691,0.5833,0.0,0.0,0.0078,0.0456,0.0748,0.1316,0.2283,0.3628,0.4853,0.5422,0.6285,0.6942,0.7095,0.7128,0.7259,0.7568,0.0,0.8454,0.8687,0.8959,0.9171,0.9269,0.9296,0.9302,0.9302,0.9302,0.9302,0.9302,0.9302,0.9302,0.9302,0.9302,0.9302,0.9302,0.9302,0.9247,0.9133,0.9046,0.8997,0.8769,0.8753,0.8687,0.859,0.859,0.859,0.859,0.859,0.8524,0.8416,0.8416,0.8345,0.8172,0.8214,0.8149,0.8114,0.8097,0.8026,0.7872,0.7872,0.7872,0.7872,0.7872,0.7872,0.7872,0.7872,0.778,0.7676,0.7676,0.7502,0.7312,0.7312,0.7236,0.721,0.721,0.721,0.721,0.721,0.697,0.673,0.6435,0.6387,0.6387,0.6387,0.6387,0.6387,0.6387,0.6339,0.6273,0.61,0.5893,0.5707,0.5691,0.5691,0.5735,0.5735,0.573,0.5735,0.5735,0.5735,0.5691,0.5691,0.5691,0.5691,0.5691,0.5691,0.5691,0.5691,0.5691,0.5691,0.5691,0.5691,0.5801,0.0,0.0,0.0,0.0075,0.0148,0.0432,0.1146,0.254,0.0,0.0,0.5527,0.6489,0.6556,0.6643,0.6828,0.7248,0.7796,0.8204,0.8443,0.8856,0.9144,0.0,0.9247,0.9302,0.9302,0.9302,0.0,0.0,0.9302,0.9302,0.9302,0.9302,0.9302,0.9302,0.9302,0.9247,0.9133,0.8965,0.891,0.8769,0.8666,0.8606,0.859,0.859,0.859,0.859,0.859,0.0,0.8416,0.8416,0.8345,0.8225,0.8127,0.8136,0.8103,0.7999,0.7949,0.7872,0.7872,0.7872,0.7872,0.7872,0.7872,0.7872,0.7872,0.772,0.7551,0.7551,0.7372,0.7243,0.7243,0.7226,0.721,0.721,0.721,0.721,0.721,0.697,0.673,0.6435,0.6387,0.6387,0.6387,0.6387,0.6387,0.6387,0.6339,0.6273,0.61,0.5964,0.5839,0.5696,0.5691,0.5774,0.5997,0.5819,0.5774,0.5997,0.5819,0.5691,0.5691,0.5691,0.5691,0.5691,0.5691,0.5691,0.5691,0.5691,0.5691,0.5691,0.5691,0.585,0.0,0.0,0.0,0.0,0.0,0.0142,0.0788,0.0,0.0,0.0,0.5179,0.6176,0.6241,0.6301,0.0,0.6904,0.7372,0.7828,0.8263,0.8682,0.8992,0.9117,0.9237,0.9302,0.9302,0.9302,0.9302,0.9302,0.9302,0.9302,0.9302,0.9302,0.9302,0.9302,0.9247,0.916,0.8971,0.8916,0.8796,0.8677,0.8617,0.859,0.859,0.859,0.859,0.859,0.859,0.8486,0.8323,0.8323,0.8214,0.804,0.7981,0.8021,0.8015,0.7955,0.7872,0.7872,0.7872,0.7872,0.7872,0.7872,0.7872,0.7872,0.7872,0.7752,0.76,0.7535,0.7388,0.7236,0.7226,0.721,0.721,0.721,0.721,0.7193,0.7133,0.6926,0.6747,0.6567,0.643,0.6387,0.6387,0.6387,0.6387,0.6387,0.6388,0.6312,0.6198,0.6072,0.5931,0.5707,0.5819,0.6041,0.6428,0.6346,0.6308,0.6473,0.6213,0.5952,0.5691,0.5691,0.5691,0.5691,0.5691,0.5691,0.5691,0.5691,0.5691,0.5691,0.5795,0.5882,0.0,0.0,0.0,0.0,0.0,0.0139,0.0766,0.1999,0.0,0.3727,0.4927,0.5893,0.5991,0.6029,0.6176,0.0,0.6991,0.7442,0.7908,0.8437,0.8812,0.0,0.9204,0.0,0.9302,0.9302,0.0,0.9302,0.9302,0.9302,0.9302,0.9302,0.9302,0.9302,0.9193,0.9003,0.8884,0.8834,0.8709,0.859,0.859,0.859,0.859,0.859,0.859,0.859,0.859,0.8454,0.8172,0.8172,0.8089,0.7872,0.7872,0.7872,0.7872,0.7872,0.7872,0.7872,0.7872,0.7872,0.7872,0.7872,0.7872,0.7872,0.7872,0.779,0.7676,0.7551,0.7432,0.7307,0.7243,0.721,0.721,0.721,0.721,0.7177,0.7008,0.691,0.6796,0.6649,0.6489,0.6419,0.6392,0.6387,0.6387,0.6387,0.6387,0.6393,0.6333,0.6277,0.6175,0.5975,0.6058,0.6302,0.6827,0.6745,0.67,0.6782,0.6473,0.608,0.5735,0.5691,0.5691,0.5691,0.5691,0.5691,0.5691,0.5691,0.5702,0.5729,0.586,0.5931,0.0,0.0,0.0,0.0,0.0,0.0137,0.0745,0.0,0.3053,0.3586,0.4788,0.5707,0.5718,0.585,0.5969,0.6127,0.0,0.7111,0.7325,0.81,0.8655,0.8791,0.0,0.0,0.9302,0.9302,0.9302,0.9302,0.9302,0.9302,0.9302,0.9302,0.9302,0.9302,0.9193,0.9003,0.8884,0.8834,0.8709,0.859,0.859,0.859,0.859,0.859,0.859,0.859,0.859,0.8454,0.0,0.8172,0.8089,0.7872,0.7872,0.7872,0.7872,0.7872,0.7872,0.7872,0.7872,0.7872,0.7872,0.7872,0.7872,0.7872,0.7872,0.779,0.7676,0.7551,0.7432,0.7307,0.7243,0.721,0.721,0.721,0.721,0.7177,0.7008,0.6975,0.6899,0.6665,0.6611,0.6567,0.6403,0.6387,0.6387,0.6387,0.6387,0.6393,0.6333,0.65,0.6727,0.6871,0.6418,0.6346,0.7003,0.6523,0.6346,0.6795,0.613,0.5735,0.5691,0.5691,0.5691,0.5691,0.5691,0.5691,0.5691,0.5691,0.5739,0.5888,0.5899,0.6024,0.0,0.0,0.0,0.0,0.0,0.0134,0.073,0.0,0.304,0.3603,0.4774,0.5691,0.5691,0.5723,0.586,0.6056,0.6404,0.679,0.7171,0.7763,0.8231,0.8426,0.8764,0.0,0.0,0.0,0.909,0.909,0.909,0.909,0.909,0.9226,0.9275,0.9204,0.9014,0.8965,0.8845,0.872,0.8633,0.859,0.859,0.859,0.859,0.859,0.859,0.8584,0.8513,0.8388,0.0,0.8155,0.8024,0.7872,0.7872,0.7872,0.7872,0.7872,0.7872,0.7872,0.7872,0.7872,0.7872,0.7872,0.7872,0.7872,0.7872,0.779,0.7676,0.7551,0.7432,0.7307,0.7243,0.721,0.721,0.721,0.721,0.7199,0.715,0.7035,0.6953,0.6861,0.6719,0.6605,0.6556,0.6435,0.6387,0.6387,0.6387,0.6371,0.6377,0.641,0.663,0.7004,0.6956,0.7065,0.7496,0.718,0.6922,0.6782,0.639,0.5997,0.5735,0.5691,0.5691,0.5691,0.5691,0.5691,0.5691,0.5801,0.586,0.5909,0.6056,0.6176,0.0,0.0,0.0,0.0,0.0,0.0131,0.0,0.187,0.3058,0.361,0.4748,0.5691,0.5691,0.5691,0.5745,0.5953,0.6208,0.6518,0.6893,0.7421,0.7845,0.0,0.0,0.8628,0.0,0.8807,0.8899,0.8899,0.8863,0.8868,0.8899,0.909,0.916,0.9014,0.8959,0.8856,0.8774,0.8649,0.859,0.859,0.859,0.859,0.859,0.859,0.859,0.8584,0.847,0.835,0.0,0.8106,0.8043,0.7872,0.7872,0.7872,0.7872,0.7872,0.7872,0.7872,0.7872,0.7872,0.7872,0.7872,0.7872,0.7867,0.7834,0.7763,0.7665,0.7508,0.7377,0.7263,0.7232,0.721,0.721,0.721,0.721,0.721,0.721,0.7144,0.7024,0.6991,0.6817,0.666,0.6627,0.6468,0.6387,0.6387,0.6387,0.6387,0.6387,0.6421,0.6597,0.7039,0.7263,0.7444,0.768,0.7312,0.6959,0.6694,0.6384,0.6035,0.5735,0.5691,0.5702,0.5739,0.5739,0.5801,0.5839,0.592,0.5975,0.6013,0.6187,0.6285,0.0,0.0,0.0,0.0,0.0,0.0131,0.0649,0.1908,0.3058,0.361,0.4748,0.5691,0.5691,0.5691,0.5691,0.5691,0.604,0.6317,0.6392,0.7018,0.0,0.0,0.0,0.8291,0.841,0.8633,0.8774,0.8774,0.8883,0.0,0.878,0.8889,0.8884,0.8884,0.8834,0.8774,0.8769,0.8649,0.859,0.859,0.859,0.859,0.859,0.859,0.859,0.8584,0.847,0.835,0.0,0.8106,0.8043,0.7872,0.7872,0.7872,0.7872,0.7872,0.7872,0.7872,0.7872,0.7872,0.7872,0.7872,0.7872,0.785,0.7736,0.7703,0.7649,0.7347,0.7252,0.721,0.721,0.721,0.721,0.721,0.721,0.721,0.721,0.721,0.7177,0.7008,0.6883,0.6763,0.6638,0.6468,0.6387,0.6387,0.6387,0.6387,0.6387,0.6637,0.6891,0.7099,0.7161,0.7277,0.7473,0.6656,0.6213,0.6384,0.5952,0.5691,0.5691,0.5691,0.5739,0.5899,0.5899,0.5958,0.6083,0.6083,0.6149,0.6311,0.6317,0.6328,0.0,0.0,0.0,0.0,0.0,0.0123,0.0689,0.1909,0.3062,0.3591,0.4748,0.5691,0.5691,0.5691,0.5691,0.5691,0.5964,0.0,0.0,0.0,0.0,0.7551,0.7964,0.8285,0.0,0.0,0.8644,0.8644,0.8682,0.8687,0.8649,0.8682,0.8742,0.8823,0.8791,0.8731,0.8644,0.8606,0.859,0.859,0.859,0.859,0.859,0.859,0.8546,0.8465,0.8345,0.8225,0.81,0.7981,0.7966,0.7872,0.7872,0.7872,0.7872,0.7872,0.7872,0.7872,0.7872,0.7872,0.7872,0.7872,0.7818,0.7731,0.7611,0.7578,0.7524,0.7279,0.7237,0.721,0.721,0.721,0.721,0.721,0.721,0.721,0.721,0.721,0.7199,0.7161,0.7008,0.6888,0.6763,0.6643,0.6484,0.6398,0.6387,0.6387,0.6387,0.6487,0.6674,0.6997,0.6786,0.6685,0.6992,0.6561,0.6213,0.5952,0.5774,0.5691,0.5691,0.5806,0.5866,0.5904,0.5986,0.6045,0.6083,0.617,0.6268,0.6382,0.6382,0.6404,0.0,0.0,0.0,0.0,0.0,0.0118,0.0664,0.191,0.3061,0.3547,0.4767,0.5675,0.5626,0.5621,0.5621,0.5621,0.586,0.61,0.0,0.0,0.0,0.7611,0.0,0.0,0.0,0.8454,0.8541,0.8584,0.859,0.859,0.859,0.859,0.8622,0.8698,0.8704,0.8666,0.859,0.859,0.859,0.859,0.859,0.859,0.859,0.859,0.8524,0.841,0.8291,0.8166,0.0,0.7982,0.7872,0.7872,0.7872,0.7872,0.7872,0.7872,0.7872,0.7872,0.7872,0.7872,0.7861,0.7823,0.7698,0.7551,0.747,0.7415,0.735,0.7254,0.721,0.721,0.721,0.721,0.721,0.721,0.721,0.721,0.721,0.721,0.721,0.721,0.7117,0.6948,0.6823,0.6703,0.6578,0.6403,0.6387,0.6387,0.6387,0.6387,0.6492,0.6717,0.6463,0.6345,0.6515,0.64,0.6179,0.5866,0.5866,0.5866,0.5866,0.5931,0.5996,0.604,0.6116,0.6176,0.6219,0.6295,0.6366,0.6387,0.6387,0.6387,0.0,0.0,0.0,0.0,0.0,0.0172,0.074,0.1959,0.0,0.3536,0.4723,0.5653,0.5497,0.5475,0.548,0.5486,0.5679,0.5961,0.0,0.6823,0.0,0.0,0.8065,0.0,0.8236,0.8361,0.8475,0.8579,0.859,0.859,0.859,0.859,0.859,0.859,0.859,0.859,0.859,0.859,0.859,0.859,0.859,0.8584,0.8573,0.8573,0.8508,0.0,0.8274,0.8155,0.8092,0.7977,0.7872,0.7872,0.7872,0.7872,0.7872,0.7872,0.7872,0.7872,0.7872,0.7867,0.7839,0.7714,0.7524,0.7277,0.7271,0.7241,0.721,0.721,0.721,0.721,0.721,0.721,0.721,0.721,0.721,0.721,0.721,0.721,0.721,0.721,0.7122,0.6959,0.6834,0.6719,0.66,0.6419,0.6398,0.6398,0.6387,0.6387,0.6393,0.629,0.6328,0.6236,0.6121,0.6094,0.6083,0.6083,0.6083,0.6083,0.6083,0.6094,0.6154,0.6317,0.6328,0.6333,0.6387,0.6387,0.6387,0.6387,0.6387,0.6387,0.0,0.0,0.0059,0.023,0.0279,0.054,0.0,0.2434,0.3312,0.3977,0.4953,0.5636,0.5471,0.524,0.5132,0.5175,0.5393,0.5711,0.6303,0.0,0.0,0.8111,0.8258,0.8345,0.8372,0.8481,0.8557,0.8584,0.859,0.859,0.859,0.859,0.859,0.859,0.859,0.859,0.859,0.859,0.859,0.859,0.859,0.8541,0.8459,0.8459,0.8339,0.8138,0.8106,0.8024,0.7971,0.7944,0.7872,0.7872,0.7872,0.7872,0.7872,0.7872,0.7872,0.7872,0.7872,0.7812,0.7703,0.7491,0.7325,0.7261,0.7225,0.7232,0.721,0.721,0.721,0.721,0.721,0.721,0.721,0.721,0.721,0.721,0.721,0.721,0.721,0.721,0.7188,0.7133,0.6964,0.6915,0.6828,0.6611,0.6578,0.6489,0.6398,0.6387,0.6376,0.6399,0.6399,0.6388,0.6355,0.6187,0.6083,0.6083,0.6083,0.6083,0.6083,0.6176,0.6289,0.6317,0.635,0.636,0.6387,0.6387,0.6387,0.6387,0.6387,0.6387,0.0,0.0,0.0056,0.0327,0.0641,0.104,0.1838,0.2901,0.3864,0.4377,0.5107,0.5517,0.5166,0.4766,0.4501,0.4547,0.4827,0.0,0.0,0.0,0.8062,0.8361,0.8454,0.8497,0.0,0.8552,0.859,0.859,0.859,0.8562,0.8513,0.8508,0.8486,0.8426,0.8481,0.8535,0.859,0.859,0.859,0.859,0.859,0.853,0.8416,0.8416,0.8285,0.8114,0.8114,0.8048,0.7872,0.7872,0.7872,0.7872,0.7872,0.7872,0.7872,0.7872,0.7872,0.7872,0.7872,0.7758,0.7584,0.7342,0.7296,0.7241,0.7232,0.721,0.721,0.721,0.721,0.721,0.721,0.721,0.721,0.721,0.721,0.721,0.721,0.721,0.721,0.721,0.721,0.7172,0.7008,0.6986,0.6921,0.673,0.6654,0.6594,0.6478,0.6419,0.6387,0.6387,0.6387,0.6387,0.6387,0.6317,0.6246,0.6246,0.6246,0.6246,0.6246,0.6312,0.6344,0.6344,0.6404,0.6387,0.6387,0.6387,0.6387,0.6387,0.6387,0.6387,0.0,0.0,0.0054,0.042,0.0936,0.1535,0.2138,0.0,0.0,0.0,0.0,0.0,0.0,0.413,0.0,0.0,0.0,0.0,0.731,0.787,0.8204,0.8546,0.859,0.0,0.859,0.859,0.8579,0.8562,0.8562,0.8513,0.8399,0.8388,0.8339,0.8172,0.8334,0.8437,0.853,0.8568,0.8579,0.8562,0.8562,0.8492,0.8361,0.8361,0.8236,0.8086,0.8086,0.0,0.7872,0.7872,0.7872,0.7872,0.7872,0.7872,0.7872,0.7872,0.7872,0.7867,0.7828,0.7687,0.7497,0.7355,0.7236,0.721,0.721,0.721,0.721,0.721,0.721,0.721,0.721,0.721,0.721,0.721,0.721,0.721,0.721,0.721,0.721,0.721,0.721,0.7177,0.7029,0.7013,0.697,0.685,0.6725,0.6638,0.6622,0.6462,0.6387,0.6387,0.6387,0.6387,0.6387,0.6387,0.6387,0.6387,0.6387,0.6387,0.6387,0.6387,0.6387,0.6387,0.6387,0.6387,0.6387,0.6387,0.6387,0.6387,0.6387,0.6387,0.0,0.0,0.0107,0.0692,0.1051,0.1496,0.2414,0.3074,0.0,0.0,0.0,0.0,0.0,0.339,0.3094,0.0,0.0,0.55,0.0,0.0,0.7974,0.8557,0.0,0.859,0.859,0.859,0.8546,0.8454,0.8443,0.8394,0.8205,0.8199,0.8188,0.8172,0.8188,0.8274,0.8291,0.8486,0.8541,0.8443,0.8443,0.8329,0.8174,0.8174,0.8097,0.796,0.0,0.7949,0.7872,0.7872,0.7872,0.7872,0.7872,0.7872,0.7872,0.7872,0.7872,0.7845,0.7644,0.7551,0.7481,0.7258,0.7226,0.721,0.721,0.721,0.721,0.721,0.721,0.721,0.721,0.721,0.721,0.721,0.721,0.721,0.721,0.721,0.721,0.721,0.721,0.7204,0.7188,0.7182,0.7144,0.6975,0.6855,0.6736,0.6632,0.6462,0.6387,0.6387,0.6387,0.6387,0.6387,0.6387,0.6387,0.6387,0.6387,0.6387,0.6387,0.6387,0.6387,0.6387,0.6387,0.6387,0.6387,0.6387,0.6387,0.6387,0.6387,0.6387,0.0,0.0,0.0103,0.053,0.0961,0.1484,0.2062,0.2668,0.3147,0.0,0.0,0.0,0.0,0.0,0.2116,0.2337,0.0,0.453,0.6206,0.6869,0.7541,0.0,0.0,0.8562,0.8503,0.8497,0.8448,0.8329,0.8318,0.8269,0.8144,0.8138,0.8106,0.804,0.81,0.8138,0.8138,0.8312,0.8372,0.8318,0.8318,0.8225,0.8114,0.8114,0.8048,0.7872,0.0,0.7872,0.7872,0.7872,0.7872,0.7872,0.7872,0.7872,0.7872,0.7872,0.7834,0.7752,0.7578,0.7475,0.7388,0.727,0.721,0.721,0.721,0.721,0.721,0.721,0.721,0.721,0.721,0.721,0.721,0.721,0.721,0.721,0.721,0.721,0.721,0.721,0.721,0.721,0.721,0.721,0.7193,0.7139,0.6921,0.6785,0.6725,0.6551,0.6387,0.6387,0.6387,0.6387,0.6387,0.6387,0.6387,0.6387,0.6387,0.6387,0.6387,0.6387,0.6387,0.6387,0.6387,0.6387,0.6387,0.6387,0.6387,0.6387,0.6387,0.6419,0.0,0.0,0.005,0.026,0.0803,0.1351,0.1636,0.2149,0.2593,0.2582,0.0,0.0,0.0,0.1525,0.0,0.1576,0.23,0.3551,0.5404,0.6199,0.7003,0.8174,0.8451,0.8474,0.8426,0.8416,0.8356,0.8204,0.8193,0.8138,0.8081,0.8075,0.8032,0.7872,0.8026,0.8075,0.8075,0.8106,0.8166,0.8193,0.8193,0.8127,0.8075,0.8075,0.8021,0.7872,0.7872,0.7872,0.7872,0.7872,0.7872,0.7872,0.7872,0.7872,0.7867,0.7839,0.7774,0.7682,0.7529,0.7415,0.7317,0.7248,0.721,0.721,0.721,0.721,0.721,0.721,0.721,0.721,0.721,0.721,0.721,0.721,0.721,0.721,0.721,0.721,0.721,0.721,0.721,0.721,0.721,0.721,0.721,0.721,0.698,0.6834,0.6806,0.6616,0.6419,0.6387,0.6387,0.6387,0.6387,0.6387,0.6387,0.6387,0.6387,0.6387,0.6387,0.6387,0.6387,0.6387,0.6387,0.6387,0.6387,0.6387,0.6398,0.643,0.643,0.6495,0.0,0.0,0.0,0.0,0.0416,0.091,0.1248,0.1449,0.1581,0.1606,0.0,0.0,0.0,0.1024,0.0963,0.1016,0.1893,0.2943,0.4177,0.0,0.6279,0.7436,0.7917,0.8214,0.8361,0.8416,0.8318,0.8147,0.813,0.8075,0.7888,0.7883,0.7939,0.7872,0.7877,0.7883,0.7883,0.7894,0.7954,0.813,0.813,0.8065,0.7883,0.7883,0.7877,0.7872,0.7872,0.7872,0.7872,0.7872,0.7872,0.7872,0.7872,0.7872,0.7856,0.7752,0.7709,0.7665,0.7432,0.7288,0.7317,0.7248,0.721,0.721,0.721,0.721,0.721,0.721,0.721,0.721,0.721,0.721,0.721,0.721,0.721,0.721,0.721,0.721,0.721,0.721,0.721,0.721,0.721,0.721,0.721,0.721,0.7106,0.6931,0.6817,0.6687,0.6562,0.6398,0.6387,0.6387,0.6387,0.6387,0.6387,0.6387,0.6387,0.6387,0.6387,0.6387,0.6387,0.6387,0.6387,0.6387,0.6387,0.6387,0.6446,0.6605,0.6605,0.6671,0.0,0.0,0.0,0.0,0.0154,0.0318,0.044,0.0553,0.0552,0.0561,0.0557,0.0,0.0,0.0,0.0356,0.0366,0.0875,0.1665,0.2753,0.3647,0.4793,0.656,0.7087,0.7551,0.8145,0.8193,0.8122,0.8015,0.7999,0.7982,0.7872,0.7872,0.7872,0.7872,0.7872,0.7872,0.7872,0.7872,0.7894,0.7999,0.7999,0.7977,0.7872,0.7872,0.7872,0.7872,0.7872,0.7872,0.7872,0.7872,0.7872,0.7861,0.7796,0.7763,0.7752,0.7633,0.754,0.7459,0.7309,0.7285,0.7214,0.7226,0.721,0.721,0.721,0.721,0.721,0.721,0.721,0.721,0.721,0.721,0.721,0.721,0.721,0.721,0.721,0.721,0.721,0.721,0.721,0.721,0.721,0.721,0.721,0.721,0.7111,0.6942,0.6817,0.6698,0.6573,0.6398,0.6387,0.6387,0.6387,0.6387,0.6387,0.6387,0.6387,0.6387,0.6387,0.6387,0.6387,0.6387,0.6387,0.6387,0.6387,0.6462,0.6573,0.6622,0.6698,0.6801,0.0,0.0,0.0,0.0,0.0,0.0,0.0,0.0,0.0,0.0,0.0,0.0,0.0,0.0,0.0,0.0,0.038,0.0971,0.1829,0.2846,0.4184,0.5885,0.6593,0.7241,0.801,0.8114,0.8065,0.7883,0.7872,0.7872,0.7872,0.7872,0.7872,0.7872,0.7872,0.7872,0.7872,0.7872,0.7872,0.7872,0.7872,0.7872,0.7872,0.7872,0.7872,0.7872,0.7872,0.785,0.7818,0.7818,0.7796,0.7752,0.7671,0.7644,0.7627,0.7508,0.741,0.7271,0.729,0.7225,0.721,0.721,0.721,0.721,0.721,0.721,0.721,0.721,0.721,0.721,0.721,0.721,0.721,0.721,0.721,0.721,0.721,0.721,0.721,0.721,0.721,0.721,0.721,0.721,0.721,0.721,0.7144,0.6997,0.6877,0.6752,0.6616,0.6403,0.6387,0.6387,0.6387,0.6387,0.6387,0.6387,0.6387,0.6387,0.6387,0.6387,0.6387,0.6387,0.6387,0.6403,0.6441,0.6578,0.666,0.6736,0.6823,0.6926,0.0,0.0,0.0,0.0,0.0,0.0,0.0,0.0,0.0,0.0,0.0,0.0,0.0,0.0,0.0,0.0,0.0633,0.1225,0.1547,0.3067,0.4583,0.5608,0.6562,0.7419,0.8062,0.8114,0.8065,0.7939,0.7872,0.7872,0.7872,0.7872,0.7872,0.7872,0.7872,0.7872,0.7872,0.7872,0.7872,0.7872,0.7872,0.7872,0.7872,0.7872,0.7872,0.7872,0.7872,0.7807,0.7703,0.7698,0.7627,0.7519,0.7519,0.7519,0.7502,0.732,0.7277,0.7317,0.7198,0.721,0.721,0.721,0.721,0.721,0.721,0.721,0.721,0.721,0.721,0.721,0.721,0.721,0.721,0.721,0.721,0.721,0.721,0.721,0.721,0.721,0.721,0.721,0.721,0.721,0.721,0.721,0.721,0.7166,0.6997,0.6877,0.6709,0.6414,0.6387,0.6387,0.6387,0.6387,0.6387,0.6387,0.6387,0.6387,0.6387,0.6387,0.6387,0.6387,0.6387,0.6446,0.6622,0.6622,0.6747,0.6986,0.6986,0.7046,0.0271,0.0136,0.0,0.0,0.0,0.0,0.0,0.0,0.0,0.0,0.0,0.0,0.0,0.0,0.0,0.0,0.0374,0.0953,0.1776,0.2762,0.3997,0.5649,0.6336,0.6992,0.7876,0.7988,0.7971,0.7872,0.7872,0.7872,0.7872,0.7872,0.7872,0.7872,0.7872,0.7872,0.7872,0.7872,0.7872,0.7872,0.7872,0.7872,0.7872,0.7872,0.7872,0.7867,0.7785,0.7731,0.7693,0.7611,0.7551,0.7508,0.7426,0.7331,0.7377,0.7252,0.7209,0.7203,0.7221,0.721,0.721,0.721,0.721,0.721,0.721,0.721,0.721,0.721,0.721,0.721,0.721,0.721,0.721,0.721,0.721,0.721,0.721,0.721,0.721,0.721,0.721,0.721,0.721,0.721,0.721,0.721,0.721,0.7166,0.6997,0.6801,0.6643,0.6573,0.6435,0.6387,0.6387,0.6387,0.6387,0.6387,0.6387,0.6387,0.6387,0.6387,0.6387,0.6387,0.6468,0.6584,0.6622,0.679,0.6915,0.6986,0.7122,0.7177,0.0544,0.0277,0.0,0.0,0.0,0.0,0.0,0.0,0.0,0.0,0.0,0.0,0.0,0.0126,0.0,0.0183,0.0808,0.1574,0.2312,0.3289,0.4506,0.594,0.6491,0.7088,0.7816,0.7872,0.7872,0.7872,0.7872,0.7872,0.7872,0.7872,0.7872,0.7872,0.7872,0.7872,0.7872,0.7872,0.7872,0.7872,0.7872,0.7845,0.7801,0.7801,0.7774,0.7725,0.7606,0.7557,0.7546,0.7426,0.7372,0.7366,0.729,0.7263,0.7252,0.7237,0.721,0.721,0.721,0.721,0.721,0.721,0.721,0.721,0.721,0.721,0.721,0.721,0.721,0.721,0.721,0.721,0.721,0.721,0.721,0.721,0.721,0.721,0.721,0.721,0.721,0.721,0.721,0.721,0.721,0.721,0.721,0.7166,0.6997,0.6855,0.6747,0.6698,0.6627,0.6584,0.6584,0.6584,0.6584,0.6584,0.6584,0.6584,0.6584,0.6484,0.6478,0.6584,0.6654,0.6714,0.6763,0.6915,0.7008,0.7056,0.7177,0.721,0.0821,0.0376,0.0,0.0,0.0,0.0,0.0,0.0,0.0,0.0,0.0,0.0,0.0,0.0255,0.0503,0.0619,0.1685,0.2692,0.3209,0.4611,0.5819,0.6473,0.7077,0.7566,0.7872,0.7872,0.7872,0.7872,0.7872,0.7872,0.7872,0.7872,0.7872,0.7872,0.7872,0.7872,0.7872,0.7872,0.7867,0.7856,0.7856,0.779,0.7671,0.7693,0.7627,0.7497,0.7325,0.7271,0.7312,0.7198,0.721,0.721,0.721,0.721,0.721,0.721,0.721,0.721,0.721,0.721,0.721,0.721,0.721,0.721,0.721,0.721,0.721,0.721,0.721,0.721,0.721,0.721,0.721,0.721,0.721,0.721,0.721,0.721,0.721,0.721,0.721,0.721,0.721,0.721,0.721,0.721,0.721,0.7172,0.7013,0.6991,0.6942,0.6828,0.6812,0.6801,0.6801,0.6801,0.6801,0.6801,0.6801,0.6806,0.6817,0.6703,0.6687,0.6801,0.6812,0.6872,0.6986,0.6997,0.7056,0.721,0.721,0.721,0.1031,0.0469,0.0,0.0,0.0,0.0,0.0,0.0,0.0,0.0,0.0,0.0,0.0,0.0253,0.0754,0.1546,0.2349,0.346,0.5049,0.5802,0.6548,0.7444,0.7689,0.7811,0.7872,0.7872,0.7872,0.7872,0.7872,0.7872,0.7872,0.7872,0.7872,0.7872,0.7872,0.7872,0.7872,0.7872,0.7823,0.7736,0.7736,0.7622,0.7421,0.7616,0.7584,0.7315,0.7288,0.7279,0.7248,0.7221,0.721,0.721,0.721,0.721,0.721,0.721,0.721,0.721,0.721,0.721,0.721,0.721,0.721,0.721,0.721,0.721,0.721,0.721,0.721,0.721,0.721,0.721,0.721,0.721,0.721,0.721,0.721,0.721,0.721,0.721,0.721,0.721,0.721,0.721,0.721,0.721,0.721,0.7199,0.7177,0.704,0.6975,0.6948,0.6861,0.6801,0.6801,0.6801,0.6801,0.6801,0.6801,0.6844,0.6942,0.6828,0.6774,0.6801,0.6899,0.6959,0.6986,0.7128,0.7188,0.721,0.721,0.721,0.1299,0.0,0.0,0.0,0.0,0.0,0.0,0.0,0.0,0.0,0.013,0.0259,0.0254,0.0884,0.1696,0.2347,0.3387,0.4619,0.597,0.6587,0.7138,0.7811,0.7872,0.7872,0.7872,0.7872,0.7872,0.7872,0.7872,0.7872,0.7872,0.7872,0.7845,0.779,0.779,0.7763,0.7703,0.7703,0.7671,0.7616,0.7616,0.7513,0.7282,0.741,0.7372,0.7247,0.7247,0.7214,0.721,0.721,0.721,0.721,0.721,0.721,0.721,0.721,0.721,0.721,0.721,0.721,0.721,0.721,0.721,0.721,0.721,0.721,0.721,0.721,0.721,0.721,0.721,0.721,0.721,0.721,0.721,0.721,0.721,0.721,0.721,0.721,0.721,0.721,0.721,0.721,0.721,0.721,0.721,0.721,0.721,0.7155,0.7122,0.7122,0.7008,0.697,0.697,0.697,0.697,0.697,0.697,0.6997,0.7117,0.7008,0.697,0.697,0.7035,0.7122,0.7122,0.7182,0.721,0.721,0.721,0.721,0.1552,0.0,0.0051,0.0,0.0061,0.0,0.0063,0.0127,0.0192,0.0189,0.0318,0.0576,0.0757,0.176,0.2816,0.3394,0.4681,0.5851,0.6526,0.7138,0.7566,0.7872,0.7872,0.7861,0.7845,0.7839,0.7834,0.7812,0.7812,0.7812,0.7812,0.7812,0.7769,0.7671,0.7671,0.7622,0.7519,0.7519,0.7508,0.7486,0.7464,0.7404,0.7301,0.7198,0.721,0.721,0.721,0.721,0.721,0.721,0.721,0.721,0.721,0.721,0.721,0.721,0.721,0.721,0.721,0.721,0.721,0.721,0.721,0.721,0.721,0.721,0.721,0.721,0.721,0.721,0.721,0.721,0.721,0.721,0.721,0.721,0.721,0.721,0.721,0.721,0.721,0.721,0.721,0.721,0.721,0.721,0.721,0.721,0.721,0.721,0.721,0.721,0.721,0.721,0.721,0.721,0.721,0.721,0.721,0.721,0.721,0.721,0.721,0.721,0.721,0.721,0.721,0.721,0.721,0.721,0.721,0.721,0.0,0.0,0.0269,0.0,0.0239,0.0427,0.0,0.0,0.0869,0.0,0.0689,0.0757,0.1613,0.2411,0.3517,0.5233,0.5908,0.6587,0.7566,0.775,0.7872,0.7872,0.7872,0.7834,0.7736,0.7725,0.7682,0.7573,0.7568,0.7568,0.7568,0.7568,0.7557,0.7546,0.754,0.7535,0.7519,0.7519,0.7464,0.7298,0.7252,0.7248,0.7232,0.7215,0.721,0.721,0.721,0.721,0.721,0.721,0.721,0.721,0.721,0.721,0.721,0.721,0.721,0.721,0.721,0.721,0.721,0.721,0.721,0.721,0.721,0.721,0.721,0.721,0.721,0.721,0.721,0.721,0.721,0.721,0.721,0.721,0.721,0.721,0.721,0.721,0.721,0.721,0.721,0.721,0.721,0.721,0.721,0.721,0.721,0.721,0.721,0.721,0.721,0.721,0.721,0.721,0.721,0.721,0.721,0.721,0.721,0.721,0.721,0.721,0.721,0.721,0.721,0.721,0.721,0.721,0.721,0.721,0.1694,0.1016,0.0484,0.0,0.0232,0.0596,0.1201,0.0,0.1954,0.2522,0.2663,0.267,0.259,0.351,0.4742,0.597,0.6648,0.7199,0.7811,0.7872,0.7845,0.7785,0.7774,0.7731,0.7611,0.76,0.7578,0.7524,0.7519,0.7519,0.7519,0.7519,0.7486,0.7421,0.7415,0.7383,0.7317,0.7312,0.7285,0.7236,0.7237,0.721,0.721,0.721,0.721,0.721,0.721,0.721,0.721,0.721,0.721,0.721,0.721,0.721,0.721,0.721,0.721,0.721,0.721,0.721,0.721,0.721,0.721,0.721,0.721,0.721,0.721,0.721,0.721,0.721,0.721,0.721,0.721,0.721,0.721,0.721,0.721,0.721,0.721,0.721,0.721,0.721,0.721,0.721,0.721,0.721,0.721,0.721,0.721,0.721,0.721,0.721,0.721,0.721,0.721,0.721,0.721,0.721,0.721,0.721,0.721,0.721,0.721,0.721,0.721,0.721,0.721,0.721,0.721,0.721,0.721,0.721,0.1573,0.1046,0.0775,0.0323,0.0,0.0,0.0,0.0,0.0,0.0,0.4465,0.4529,0.3916,0.4851,0.5904,0.6616,0.716,0.7575,0.7785,0.778,0.7747,0.7665,0.7655,0.7606,0.7486,0.747,0.7459,0.7432,0.7426,0.7426,0.7426,0.7426,0.7383,0.729,0.729,0.7247,0.721,0.721,0.721,0.721,0.721,0.721,0.721,0.721,0.721,0.721,0.721,0.721,0.721,0.721,0.721,0.721,0.721,0.721,0.721,0.721,0.721,0.721,0.721,0.721,0.721,0.721,0.721,0.721,0.721,0.721,0.721,0.721,0.721,0.721,0.721,0.721,0.721,0.721,0.721,0.721,0.721,0.721,0.721,0.721,0.721,0.721,0.721,0.721,0.721,0.721,0.721,0.721,0.721,0.721,0.721,0.721,0.721,0.721,0.721,0.721,0.721,0.721,0.721,0.721,0.721,0.721,0.721,0.721,0.721,0.721,0.721,0.721,0.721,0.721,0.721,0.721,0.185,0.153,0.0,0.0885,0.0,0.0,0.0,0.0,0.0,0.0,0.0,0.5726,0.5962,0.6215,0.6616,0.7491,0.7649,0.7671,0.7551,0.7535,0.7535,0.7529,0.7529,0.7481,0.7298,0.7288,0.7296,0.7237,0.7232,0.7232,0.7232,0.7232,0.7226,0.7221,0.7221,0.7215,0.721,0.721,0.721,0.721,0.721,0.721,0.721,0.721,0.721,0.721,0.721,0.721,0.721,0.721,0.721,0.721,0.721,0.721,0.721,0.721,0.721,0.721,0.721,0.721,0.721,0.721,0.721,0.721,0.721,0.721,0.721,0.721,0.721,0.721,0.721,0.721,0.721,0.721,0.721,0.721,0.721,0.721,0.721,0.721,0.721,0.721,0.721,0.721,0.721,0.721,0.721,0.721,0.721,0.721,0.721,0.721,0.721,0.721,0.721,0.721,0.721,0.721,0.721,0.721,0.721,0.721,0.721,0.721,0.721,0.721,0.721,0.721,0.721,0.721,0.721,0.721,0.2626,0.2346,0.0,0.0,0.0,0.0,0.0,0.0,0.0,0.0,0.0,0.0,0.699,0.6961,0.706,0.7482,0.7584,0.7568,0.7524,0.7519,0.7491,0.741,0.7342,0.735,0.723,0.722,0.7203,0.7215,0.721,0.721,0.721,0.721,0.721,0.721,0.721,0.721,0.721,0.721,0.721,0.721,0.721,0.721,0.721,0.721,0.721,0.721,0.721,0.721,0.7204,0.7128,0.7046,0.7035,0.6959,0.6975,0.7046,0.7046,0.715,0.721,0.721,0.721,0.721,0.721,0.721,0.721,0.721,0.721,0.721,0.721,0.721,0.721,0.721,0.721,0.721,0.721,0.721,0.7232,0.7252,0.7269,0.7296,0.7372,0.7388,0.7388,0.7388,0.7388,0.7388,0.7388,0.7388,0.7388,0.7388,0.7317,0.7269,0.7269,0.7198,0.721,0.721,0.721,0.721,0.721,0.721,0.721,0.721,0.723,0.7269,0.7269,0.7269,0.723,0.721,0.721,0.721,0.721,0.721,0.721,0.3143,0.2924,0.0,0.0,0.0,0.0,0.0,0.0,0.0,0.0,0.0,0.0,0.0,0.7343,0.7253,0.7412,0.7459,0.7442,0.7404,0.7399,0.7366,0.7285,0.7274,0.7241,0.7221,0.721,0.721,0.721,0.721,0.0,0.721,0.721,0.721,0.721,0.721,0.721,0.721,0.721,0.721,0.721,0.721,0.721,0.721,0.721,0.721,0.721,0.721,0.721,0.7204,0.7128,0.704,0.7029,0.691,0.6937,0.7035,0.6997,0.7111,0.721,0.721,0.721,0.721,0.721,0.721,0.721,0.721,0.721,0.721,0.721,0.721,0.721,0.721,0.7243,0.7214,0.7214,0.7247,0.7312,0.7432,0.7336,0.7315,0.7497,0.7519,0.7519,0.7519,0.7519,0.7519,0.7519,0.7519,0.7519,0.7519,0.7448,0.7342,0.7342,0.729,0.723,0.7274,0.7236,0.723,0.7274,0.7236,0.7236,0.7274,0.7317,0.7298,0.7336,0.7342,0.7355,0.7274,0.7248,0.721,0.721,0.721,0.721,0.0,0.0,0.0,0.0,0.0,0.0,0.0,0.0,0.0,0.0,0.0,0.0,0.0,0.0,0.0,0.7271,0.7271,0.729,0.7226,0.721,0.721,0.721,0.721,0.721,0.721,0.721,0.721,0.721,0.721,0.721,0.721,0.721,0.721,0.721,0.721,0.721,0.721,0.721,0.721,0.721,0.721,0.721,0.721,0.721,0.721,0.721,0.721,0.721,0.721,0.7204,0.7204,0.7193,0.7018,0.7046,0.7193,0.7024,0.7056,0.721,0.721,0.721,0.721,0.721,0.721,0.721,0.721,0.721,0.721,0.721,0.721,0.721,0.7215,0.7247,0.7282,0.7282,0.7432,0.7551,0.7676,0.7513,0.7325,0.7502,0.7529,0.7529,0.7529,0.7529,0.7529,0.7529,0.7529,0.7529,0.7529,0.7524,0.7524,0.7524,0.7352,0.7325,0.7508,0.7347,0.7331,0.7508,0.7352,0.7336,0.7513,0.741,0.7399,0.7524,0.7524,0.7524,0.7524,0.7279,0.7215,0.7215,0.721,0.721,0.4145,0.0,0.0,0.0,0.0,0.0,0.0,0.0,0.0,0.0,0.0,0.0,0.0,0.0,0.0,0.0,0.7203,0.7192,0.7215,0.721,0.721,0.721,0.721,0.721,0.721,0.721,0.721,0.0,0.721,0.721,0.721,0.721,0.721,0.721,0.721,0.721,0.721,0.721,0.721,0.721,0.721,0.721,0.721,0.721,0.721,0.721,0.721,0.721,0.7204,0.7122,0.7029,0.7013,0.6801,0.685,0.7018,0.6899,0.698,0.721,0.721,0.721,0.721,0.721,0.721,0.721,0.721,0.721,0.721,0.721,0.721,0.7232,0.7263,0.7312,0.7298,0.7448,0.7491,0.7551,0.7676,0.7649,0.7633,0.7752,0.7774,0.7774,0.7774,0.7774,0.7774,0.7774,0.7774,0.7774,0.7774,0.7703,0.7649,0.7649,0.7464,0.7325,0.7508,0.7347,0.7331,0.7508,0.7486,0.7486,0.7519,0.7573,0.7616,0.7649,0.7649,0.7649,0.7649,0.7404,0.7285,0.7285,0.7248,0.721,0.4703,0.4693,0.4641,0.4809,0.0,0.0,0.4822,0.5065,0.0,0.0,0.0,0.0,0.0,0.0,0.0,0.0,0.679,0.6926,0.7182,0.721,0.7265,0.7382,0.7382,0.7438,0.7543,0.7432,0.7382,0.7382,0.7265,0.721,0.721,0.7166,0.7161,0.721,0.7161,0.7161,0.721,0.721,0.721,0.721,0.721,0.721,0.721,0.721,0.721,0.7204,0.7161,0.7139,0.7128,0.6959,0.697,0.7029,0.679,0.6844,0.7035,0.6866,0.6953,0.721,0.721,0.721,0.721,0.721,0.721,0.721,0.721,0.721,0.721,0.721,0.721,0.7237,0.7301,0.7315,0.7442,0.7568,0.7633,0.7687,0.7758,0.7774,0.779,0.7856,0.7872,0.7872,0.7872,0.7872,0.7872,0.7872,0.7872,0.7872,0.7872,0.7812,0.7774,0.7774,0.7557,0.7481,0.7649,0.7508,0.7486,0.7655,0.7622,0.7616,0.7665,0.7687,0.7725,0.7769,0.7774,0.7725,0.7622,0.7432,0.7307,0.7258,0.7243,0.721,0.5164,0.5136,0.5049,0.523,0.5133,0.0,0.4809,0.4799,0.4936,0.0,0.0,0.0,0.0,0.0,0.0,0.0,0.0,0.6602,0.7051,0.7133,0.726,0.7468,0.7535,0.7656,0.7944,0.7741,0.7593,0.7604,0.731,0.7193,0.7193,0.7029,0.7024,0.7204,0.7046,0.704,0.721,0.721,0.721,0.721,0.721,0.721,0.721,0.721,0.721,0.7204,0.7089,0.704,0.6975,0.6903,0.698,0.715,0.6872,0.6926,0.7161,0.6883,0.6953,0.721,0.721,0.721,0.721,0.721,0.721,0.721,0.721,0.721,0.721,0.721,0.721,0.7243,0.7323,0.7437,0.7551,0.7687,0.7796,0.7872,0.7872,0.7872,0.7872,0.7872,0.7872,0.7872,0.7872,0.7872,0.7872,0.7872,0.7872,0.7872,0.7872,0.7872,0.7872,0.7872,0.766,0.7616,0.785,0.7655,0.7622,0.7856,0.7774,0.7763,0.7867,0.7774,0.7769,0.7872,0.7872,0.7763,0.754,0.7415,0.7285,0.721,0.721,0.721,0.5996,0.5861,0.5622,0.5669,0.5387,0.0,0.4694,0.4736,0.4873,0.0,0.0,0.0,0.0,0.0,0.0,0.0,0.0,0.0,0.6515,0.681,0.7004,0.6952,0.724,0.7497,0.7665,0.7714,0.7707,0.7598,0.7237,0.7018,0.7018,0.6904,0.6937,0.7204,0.7046,0.704,0.721,0.721,0.721,0.721,0.721,0.721,0.721,0.721,0.721,0.7204,0.7302,0.7197,0.7029,0.7063,0.704,0.6855,0.6714,0.6801,0.7002,0.6855,0.6953,0.721,0.721,0.721,0.721,0.721,0.721,0.721,0.721,0.721,0.721,0.721,0.721,0.7259,0.7426,0.7502,0.7573,0.7785,0.7856,0.7872,0.7872,0.7872,0.7872,0.7872,0.7872,0.7872,0.7872,0.7872,0.7872,0.7872,0.7872,0.7872,0.7872,0.7872,0.7872,0.7872,0.766,0.7616,0.785,0.7655,0.7622,0.7856,0.785,0.785,0.7872,0.785,0.785,0.7872,0.7872,0.7801,0.7665,0.754,0.7372,0.721,0.721,0.721,0.6417,0.633,0.6131,0.6022,0.5777,0.0,0.0,0.498,0.5066,0.517,0.5407,0.0,0.0,0.0,0.0,0.0,0.0,0.0,0.0,0.6537,0.7021,0.7282,0.7396,0.7629,0.7994,0.7901,0.7753,0.7624,0.7409,0.7321,0.7321,0.7147,0.7246,0.7494,0.7385,0.7359,0.7376,0.7382,0.7321,0.721,0.721,0.721,0.721,0.721,0.7265,0.7426,0.7618,0.7636,0.7517,0.7419,0.7232,0.6981,0.6724,0.6768,0.697,0.6844,0.6953,0.721,0.721,0.721,0.721,0.721,0.721,0.721,0.721,0.721,0.721,0.721,0.721,0.7265,0.7453,0.7519,0.7578,0.7812,0.7872,0.7872,0.7872,0.7872,0.7872,0.7872,0.7872,0.7872,0.7872,0.7872,0.7872,0.7872,0.7872,0.7872,0.7872,0.7823,0.7785,0.7785,0.7573,0.7502,0.7682,0.7529,0.7502,0.7682,0.7693,0.7725,0.7785,0.7785,0.7812,0.7872,0.7872,0.7812,0.7703,0.7638,0.7486,0.7247,0.7247,0.7214,0.681,0.6742,0.6552,0.6369,0.6212,0.5943,0.0,0.0,0.0,0.5401,0.0,0.0,0.0,0.0,0.0,0.0,0.0,0.0,0.0,0.0,0.0,0.7513,0.7556,0.777,0.8282,0.8,0.7693,0.7574,0.7553,0.7519,0.7519,0.744,0.7513,0.778,0.7689,0.7642,0.766,0.7604,0.7493,0.7376,0.7376,0.7376,0.7376,0.7432,0.7598,0.7864,0.8081,0.8164,0.8144,0.78,0.7484,0.7147,0.6749,0.6736,0.6937,0.6839,0.6953,0.721,0.721,0.721,0.721,0.721,0.721,0.721,0.721,0.721,0.721,0.721,0.721,0.7259,0.7426,0.7486,0.7535,0.7752,0.7801,0.7807,0.7834,0.7839,0.7845,0.7867,0.7872,0.7872,0.7872,0.7872,0.7872,0.7872,0.7872,0.7872,0.7872,0.779,0.7736,0.7736,0.7513,0.7432,0.7573,0.7453,0.7432,0.7578,0.7584,0.7633,0.7731,0.7736,0.778,0.7872,0.7872,0.7823,0.7736,0.7736,0.7595,0.7277,0.7277,0.7269,0.0,0.0,0.6991,0.6869,0.6525,0.6179,0.5801,0.0,0.5379,0.54,0.0,0.0,0.0,0.0,0.0,0.0,0.0,0.0,0.0,0.0,0.0,0.6716,0.7156,0.7516,0.7685,0.7677,0.7571,0.7413,0.7316,0.7234,0.7234,0.7388,0.7565,0.778,0.7828,0.7895,0.7931,0.7715,0.7715,0.7931,0.7931,0.7931,0.7931,0.8208,0.8484,0.8741,0.8714,0.8741,0.8772,0.8211,0.764,0.7141,0.6603,0.6605,0.6823,0.6806,0.6953,0.721,0.721,0.721,0.721,0.721,0.721,0.721,0.721,0.721,0.721,0.721,0.721,0.7243,0.7323,0.7298,0.7331,0.7524,0.7557,0.7589,0.7698,0.772,0.7752,0.785,0.7872,0.7872,0.7872,0.7872,0.7872,0.7872,0.7872,0.7872,0.7872,0.7861,0.785,0.785,0.7638,0.7589,0.7812,0.7627,0.7595,0.7818,0.7834,0.7839,0.785,0.785,0.7856,0.7872,0.7872,0.7867,0.785,0.785,0.7676,0.7277,0.7277,0.7269,0.0,0.0,0.0,0.0,0.0,0.639,0.5908,0.5772,0.5745,0.0,0.0,0.0,0.0,0.0,0.0,0.0,0.5718,0.0,0.0,0.0,0.0,0.0,0.0,0.0,0.7319,0.731,0.731,0.7244,0.7282,0.7352,0.7437,0.7657,0.791,0.8189,0.8255,0.8259,0.8263,0.8084,0.8084,0.8318,0.8722,0.8941,0.9085,0.9425,0.9652,0.9745,0.9675,0.9528,0.9358,0.8721,0.8137,0.759,0.6736,0.6589,0.6801,0.6801,0.6953,0.721,0.721,0.721,0.721,0.721,0.721,0.721,0.721,0.721,0.721,0.721,0.721,0.7254,0.7394,0.7442,0.7491,0.7676,0.7671,0.7655,0.7774,0.7747,0.7736,0.785,0.7872,0.7872,0.7872,0.7872,0.7872,0.7872,0.7872,0.7872,0.7872,0.7812,0.7774,0.7774,0.7557,0.7481,0.7655,0.7508,0.7486,0.7655,0.7731,0.7774,0.7774,0.7834,0.7872,0.7872,0.7872,0.7872,0.7872,0.7872,0.7725,0.7442,0.7442,0.7339,0.7672,0.0,0.0,0.0,0.0,0.0,0.5942,0.5956,0.6084,0.0,0.0,0.0,0.0,0.0,0.0,0.0,0.0,0.5515,0.0,0.0,0.0,0.0,0.0,0.0,0.0,0.695,0.6991,0.7038,0.719,0.7353,0.759,0.7833,0.816,0.8418,0.8506,0.8541,0.8536,0.8384,0.8458,0.8761,0.9468,0.9908,1.0069,1.0646,1.0884,1.0875,1.0656,1.0391,1.007,0.9241,0.8556,0.7949,0.6888,0.6638,0.685,0.6817,0.6953,0.721,0.721,0.721,0.721,0.721,0.721,0.721,0.721,0.721,0.721,0.721,0.721,0.7259,0.7415,0.7528,0.7635,0.7845,0.7926,0.794,0.8093,0.7971,0.7931,0.8149,0.8177,0.8177,0.8177,0.7994,0.7872,0.7872,0.7872,0.7872,0.7872,0.7801,0.7747,0.7747,0.7562,0.7486,0.7606,0.7502,0.7486,0.7606,0.7698,0.7747,0.7747,0.7828,0.7872,0.7872,0.7872,0.7872,0.7872,0.7872,0.7769,0.7568,0.7535,0.7388,0.0,0.0,0.0,0.6858,0.0,0.0,0.0,0.0,0.6252,0.0,0.0,0.0,0.0,0.0,0.5806,0.5793,0.0,0.0,0.0,0.0,0.0,0.0,0.0,0.0,0.0,0.6627,0.6776,0.0,0.6896,0.7136,0.7577,0.7833,0.8113,0.8327,0.8554,0.871,0.8716,0.8447,0.8682,0.9375,1.0062,1.0501,1.068,1.1621,1.2062,1.2043,1.1536,1.1258,1.0979,0.9681,0.8814,0.8088,0.7021,0.6763,0.6964,0.6844,0.6953,0.721,0.721,0.721,0.721,0.721,0.721,0.721,0.721,0.721,0.721,0.721,0.721,0.7237,0.7307,0.7567,0.7829,0.7962,0.8129,0.8335,0.8598,0.8543,0.8472,0.8799,0.8854,0.8854,0.8854,0.8299,0.7872,0.7872,0.7872,0.7872,0.7872,0.7867,0.7867,0.7867,0.7758,0.7736,0.785,0.7758,0.7736,0.785,0.7861,0.7867,0.7867,0.7872,0.7872,0.7872,0.7872,0.7872,0.7872,0.7872,0.7812,0.7693,0.7573,0.7388,0.0,0.0,0.7522,0.7224,0.0,0.0,0.0,0.0,0.0,0.0,0.0,0.0,0.0,0.0,0.6252,0.6156,0.5808,0.0,0.0,0.0,0.0,0.0,0.0,0.0,0.0,0.0,0.0,0.0,0.6668,0.0,0.7233,0.7672,0.8004,0.8313,0.837,0.8465,0.856,0.8413,0.865,0.9336,1.0603,1.139,1.1757,1.2782,1.3188,1.3025,1.2521,1.1993,1.1342,1.0175,0.9364,0.8663,0.7597,0.7346,0.757,0.7098,0.7024,0.721,0.721,0.721,0.721,0.721,0.721,0.721,0.721,0.721,0.721,0.721,0.721,0.731,0.7692,0.7858,0.8026,0.8486,0.8557,0.8626,0.8805,0.8737,0.8634,0.8878,0.8915,0.8915,0.8915,0.8732,0.8488,0.8244,0.8244,0.8183,0.7933,0.7872,0.7872,0.7872,0.7769,0.7747,0.7861,0.7834,0.7828,0.7867,0.7872,0.7994,0.8244,0.7994,0.7994,0.8244,0.7994,0.7994,0.8244,0.8244,0.8303,0.8355,0.8307,0.791,0.7921,0.7821,0.0,0.7353,0.719,0.0,0.6322,0.0,0.6805,0.0,0.0,0.0,0.0,0.0,0.0,0.0,0.0,0.0,0.0,0.5056,0.0,0.0,0.0,0.0,0.0,0.0,0.6259,0.6368,0.6504,0.0,0.0,0.7441,0.7773,0.8024,0.8238,0.8368,0.8404,0.8368,0.8653,0.9324,1.0875,1.1798,1.2226,1.3473,1.391,1.364,1.3209,1.2613,1.1785,1.0739,0.9954,0.9373,0.8292,0.7992,0.8179,0.7539,0.7385,0.7487,0.7487,0.7487,0.7487,0.7487,0.7487,0.7487,0.7487,0.7487,0.7487,0.7487,0.7487,0.76,0.8031,0.8212,0.846,0.8908,0.9052,0.9048,0.9188,0.9106,0.9048,0.9188,0.922,0.922,0.922,0.922,0.9098,0.8671,0.8488,0.8305,0.8122,0.7994,0.7872,0.7872,0.7807,0.779,0.7867,0.7872,0.7872,0.7872,0.7994,0.8183,0.8372,0.8305,0.8305,0.8372,0.8305,0.8305,0.8372,0.8494,0.863,0.878,0.878,0.8396]}]]